<?xml version="1.0" encoding="UTF-8" standalone="no" ?>
<gpx xmlns="http://www.topografix.com/GPX/1/1" xmlns:xsi="http://www.w3.org/2001/XMLSchema-instance" xsi:schemaLocation="http://www.topografix.com/GPX/1/1 http://www.topografix.com/GPX/1/1/gpx.xsd" version="1.1" creator="VisuGPX - https://www.visugpx.com">
  <metadata>
    <name>Saillant-Gutty-L\'Antoine-Veille route</name>
    <desc><![CDATA[A partir de Chamelet, chemin des Brotteaux, retour vers Chalosset par le chemin de la veille route, Saillant, Bois Clayet, Gutty, Coret, L\'Antoine, et descente par la veille route]]></desc>
  </metadata>
  <trk>
    <name><![CDATA[Mountain Biking 7/9/15 10:39 am]]></name>
    <trkseg>
      <trkpt lat="45.98234" lon="4.50961">
        <ele>324.2</ele>
        <time>2015-07-09T08:39:46Z</time>
      </trkpt>
      <trkpt lat="45.98234" lon="4.5096">
        <ele>326.4</ele>
        <time>2015-07-09T08:39:47Z</time>
      </trkpt>
      <trkpt lat="45.98242" lon="4.50959">
        <ele>328.1</ele>
        <time>2015-07-09T08:40:50Z</time>
      </trkpt>
      <trkpt lat="45.98251" lon="4.50959">
        <ele>329.6</ele>
        <time>2015-07-09T08:40:55Z</time>
      </trkpt>
      <trkpt lat="45.98261" lon="4.50959">
        <ele>330.7</ele>
        <time>2015-07-09T08:41:00Z</time>
      </trkpt>
      <trkpt lat="45.9827" lon="4.5096">
        <ele>331.6</ele>
        <time>2015-07-09T08:41:05Z</time>
      </trkpt>
      <trkpt lat="45.98279" lon="4.50962">
        <ele>331.7</ele>
        <time>2015-07-09T08:41:10Z</time>
      </trkpt>
      <trkpt lat="45.98287" lon="4.50964">
        <ele>333.5</ele>
        <time>2015-07-09T08:41:14Z</time>
      </trkpt>
      <trkpt lat="45.98295" lon="4.50967">
        <ele>335.4</ele>
        <time>2015-07-09T08:41:19Z</time>
      </trkpt>
      <trkpt lat="45.98303" lon="4.50972">
        <ele>337.2</ele>
        <time>2015-07-09T08:41:24Z</time>
      </trkpt>
      <trkpt lat="45.98312" lon="4.50976">
        <ele>339</ele>
        <time>2015-07-09T08:41:29Z</time>
      </trkpt>
      <trkpt lat="45.98321" lon="4.50983">
        <ele>340.8</ele>
        <time>2015-07-09T08:41:34Z</time>
      </trkpt>
      <trkpt lat="45.98328" lon="4.5099">
        <ele>340.9</ele>
        <time>2015-07-09T08:41:38Z</time>
      </trkpt>
      <trkpt lat="45.98335" lon="4.51">
        <ele>341.4</ele>
        <time>2015-07-09T08:41:42Z</time>
      </trkpt>
      <trkpt lat="45.9834" lon="4.5101">
        <ele>341.7</ele>
        <time>2015-07-09T08:41:46Z</time>
      </trkpt>
      <trkpt lat="45.98346" lon="4.5102">
        <ele>342.1</ele>
        <time>2015-07-09T08:41:50Z</time>
      </trkpt>
      <trkpt lat="45.98352" lon="4.51028">
        <ele>342.8</ele>
        <time>2015-07-09T08:41:54Z</time>
      </trkpt>
      <trkpt lat="45.98358" lon="4.51038">
        <ele>343.5</ele>
        <time>2015-07-09T08:41:56Z</time>
      </trkpt>
      <trkpt lat="45.98366" lon="4.51051">
        <ele>344.3</ele>
        <time>2015-07-09T08:41:59Z</time>
      </trkpt>
      <trkpt lat="45.98372" lon="4.51059">
        <ele>345</ele>
        <time>2015-07-09T08:42:01Z</time>
      </trkpt>
      <trkpt lat="45.9838" lon="4.51071">
        <ele>345.7</ele>
        <time>2015-07-09T08:42:05Z</time>
      </trkpt>
      <trkpt lat="45.98387" lon="4.5108">
        <ele>346.5</ele>
        <time>2015-07-09T08:42:07Z</time>
      </trkpt>
      <trkpt lat="45.98394" lon="4.51092">
        <ele>347.2</ele>
        <time>2015-07-09T08:42:11Z</time>
      </trkpt>
      <trkpt lat="45.98399" lon="4.51102">
        <ele>347.9</ele>
        <time>2015-07-09T08:42:15Z</time>
      </trkpt>
      <trkpt lat="45.98408" lon="4.51107">
        <ele>348.3</ele>
        <time>2015-07-09T08:42:20Z</time>
      </trkpt>
      <trkpt lat="45.98418" lon="4.51111">
        <ele>348.7</ele>
        <time>2015-07-09T08:42:24Z</time>
      </trkpt>
      <trkpt lat="45.9843" lon="4.51104">
        <ele>349.2</ele>
        <time>2015-07-09T08:42:28Z</time>
      </trkpt>
      <trkpt lat="45.98436" lon="4.51094">
        <ele>349.3</ele>
        <time>2015-07-09T08:42:29Z</time>
      </trkpt>
      <trkpt lat="45.98445" lon="4.51091">
        <ele>349.4</ele>
        <time>2015-07-09T08:42:31Z</time>
      </trkpt>
      <trkpt lat="45.98454" lon="4.51087">
        <ele>349.5</ele>
        <time>2015-07-09T08:42:33Z</time>
      </trkpt>
      <trkpt lat="45.98465" lon="4.51085">
        <ele>347.3</ele>
        <time>2015-07-09T08:42:35Z</time>
      </trkpt>
      <trkpt lat="45.98476" lon="4.51079">
        <ele>345.1</ele>
        <time>2015-07-09T08:42:37Z</time>
      </trkpt>
      <trkpt lat="45.98485" lon="4.5107">
        <ele>344.6</ele>
        <time>2015-07-09T08:42:39Z</time>
      </trkpt>
      <trkpt lat="45.98497" lon="4.51057">
        <ele>344.2</ele>
        <time>2015-07-09T08:42:41Z</time>
      </trkpt>
      <trkpt lat="45.9851" lon="4.5105">
        <ele>343.7</ele>
        <time>2015-07-09T08:42:43Z</time>
      </trkpt>
      <trkpt lat="45.98523" lon="4.51042">
        <ele>343.3</ele>
        <time>2015-07-09T08:42:45Z</time>
      </trkpt>
      <trkpt lat="45.98535" lon="4.5103">
        <ele>342.7</ele>
        <time>2015-07-09T08:42:46Z</time>
      </trkpt>
      <trkpt lat="45.98548" lon="4.51017">
        <ele>340.5</ele>
        <time>2015-07-09T08:42:49Z</time>
      </trkpt>
      <trkpt lat="45.9856" lon="4.51005">
        <ele>338.4</ele>
        <time>2015-07-09T08:42:51Z</time>
      </trkpt>
      <trkpt lat="45.98573" lon="4.50992">
        <ele>336.2</ele>
        <time>2015-07-09T08:42:53Z</time>
      </trkpt>
      <trkpt lat="45.98583" lon="4.50976">
        <ele>336.2</ele>
        <time>2015-07-09T08:42:55Z</time>
      </trkpt>
      <trkpt lat="45.98593" lon="4.50961">
        <ele>338.5</ele>
        <time>2015-07-09T08:42:56Z</time>
      </trkpt>
      <trkpt lat="45.98604" lon="4.50946">
        <ele>339.5</ele>
        <time>2015-07-09T08:42:58Z</time>
      </trkpt>
      <trkpt lat="45.98615" lon="4.50931">
        <ele>338.9</ele>
        <time>2015-07-09T08:43:00Z</time>
      </trkpt>
      <trkpt lat="45.98625" lon="4.50914">
        <ele>338.3</ele>
        <time>2015-07-09T08:43:02Z</time>
      </trkpt>
      <trkpt lat="45.98634" lon="4.50897">
        <ele>337.6</ele>
        <time>2015-07-09T08:43:04Z</time>
      </trkpt>
      <trkpt lat="45.98641" lon="4.50879">
        <ele>337</ele>
        <time>2015-07-09T08:43:06Z</time>
      </trkpt>
      <trkpt lat="45.98647" lon="4.50861">
        <ele>335.6</ele>
        <time>2015-07-09T08:43:08Z</time>
      </trkpt>
      <trkpt lat="45.98654" lon="4.50844">
        <ele>335.9</ele>
        <time>2015-07-09T08:43:10Z</time>
      </trkpt>
      <trkpt lat="45.98663" lon="4.50829">
        <ele>337.2</ele>
        <time>2015-07-09T08:43:12Z</time>
      </trkpt>
      <trkpt lat="45.98673" lon="4.50816">
        <ele>338.5</ele>
        <time>2015-07-09T08:43:14Z</time>
      </trkpt>
      <trkpt lat="45.98684" lon="4.50806">
        <ele>337.5</ele>
        <time>2015-07-09T08:43:16Z</time>
      </trkpt>
      <trkpt lat="45.98694" lon="4.50796">
        <ele>336.6</ele>
        <time>2015-07-09T08:43:18Z</time>
      </trkpt>
      <trkpt lat="45.98703" lon="4.50784">
        <ele>336.9</ele>
        <time>2015-07-09T08:43:20Z</time>
      </trkpt>
      <trkpt lat="45.98711" lon="4.50772">
        <ele>337.2</ele>
        <time>2015-07-09T08:43:22Z</time>
      </trkpt>
      <trkpt lat="45.98716" lon="4.50764">
        <ele>337.5</ele>
        <time>2015-07-09T08:43:24Z</time>
      </trkpt>
      <trkpt lat="45.98723" lon="4.50751">
        <ele>337.7</ele>
        <time>2015-07-09T08:43:28Z</time>
      </trkpt>
      <trkpt lat="45.98729" lon="4.50742">
        <ele>337.5</ele>
        <time>2015-07-09T08:43:30Z</time>
      </trkpt>
      <trkpt lat="45.98736" lon="4.50733">
        <ele>338.1</ele>
        <time>2015-07-09T08:43:33Z</time>
      </trkpt>
      <trkpt lat="45.98746" lon="4.50726">
        <ele>339</ele>
        <time>2015-07-09T08:43:36Z</time>
      </trkpt>
      <trkpt lat="45.98757" lon="4.50719">
        <ele>338.9</ele>
        <time>2015-07-09T08:43:39Z</time>
      </trkpt>
      <trkpt lat="45.98766" lon="4.50716">
        <ele>338.8</ele>
        <time>2015-07-09T08:43:42Z</time>
      </trkpt>
      <trkpt lat="45.98776" lon="4.50713">
        <ele>338.7</ele>
        <time>2015-07-09T08:43:45Z</time>
      </trkpt>
      <trkpt lat="45.98786" lon="4.50708">
        <ele>338.6</ele>
        <time>2015-07-09T08:43:48Z</time>
      </trkpt>
      <trkpt lat="45.98797" lon="4.507">
        <ele>338.5</ele>
        <time>2015-07-09T08:43:51Z</time>
      </trkpt>
      <trkpt lat="45.98805" lon="4.50694">
        <ele>338.5</ele>
        <time>2015-07-09T08:43:52Z</time>
      </trkpt>
      <trkpt lat="45.98815" lon="4.50686">
        <ele>338.4</ele>
        <time>2015-07-09T08:43:55Z</time>
      </trkpt>
      <trkpt lat="45.98826" lon="4.50677">
        <ele>338.3</ele>
        <time>2015-07-09T08:43:57Z</time>
      </trkpt>
      <trkpt lat="45.98839" lon="4.50667">
        <ele>339.7</ele>
        <time>2015-07-09T08:43:59Z</time>
      </trkpt>
      <trkpt lat="45.98852" lon="4.50653">
        <ele>341.2</ele>
        <time>2015-07-09T08:44:01Z</time>
      </trkpt>
      <trkpt lat="45.98859" lon="4.50646">
        <ele>342.3</ele>
        <time>2015-07-09T08:44:02Z</time>
      </trkpt>
      <trkpt lat="45.98865" lon="4.50638">
        <ele>343.4</ele>
        <time>2015-07-09T08:44:03Z</time>
      </trkpt>
      <trkpt lat="45.98873" lon="4.50633">
        <ele>343.1</ele>
        <time>2015-07-09T08:44:04Z</time>
      </trkpt>
      <trkpt lat="45.98885" lon="4.50626">
        <ele>342.8</ele>
        <time>2015-07-09T08:44:06Z</time>
      </trkpt>
      <trkpt lat="45.98892" lon="4.50614">
        <ele>342.5</ele>
        <time>2015-07-09T08:44:08Z</time>
      </trkpt>
      <trkpt lat="45.98891" lon="4.506">
        <ele>342.3</ele>
        <time>2015-07-09T08:44:10Z</time>
      </trkpt>
      <trkpt lat="45.98886" lon="4.50589">
        <ele>342.5</ele>
        <time>2015-07-09T08:44:13Z</time>
      </trkpt>
      <trkpt lat="45.98877" lon="4.50583">
        <ele>342.8</ele>
        <time>2015-07-09T08:44:16Z</time>
      </trkpt>
      <trkpt lat="45.98869" lon="4.50576">
        <ele>343.1</ele>
        <time>2015-07-09T08:44:18Z</time>
      </trkpt>
      <trkpt lat="45.98861" lon="4.50565">
        <ele>342.3</ele>
        <time>2015-07-09T08:44:20Z</time>
      </trkpt>
      <trkpt lat="45.98851" lon="4.50559">
        <ele>341.5</ele>
        <time>2015-07-09T08:44:22Z</time>
      </trkpt>
      <trkpt lat="45.98843" lon="4.50548">
        <ele>340.6</ele>
        <time>2015-07-09T08:44:25Z</time>
      </trkpt>
      <trkpt lat="45.98835" lon="4.50538">
        <ele>339.8</ele>
        <time>2015-07-09T08:44:29Z</time>
      </trkpt>
      <trkpt lat="45.98829" lon="4.50528">
        <ele>340.4</ele>
        <time>2015-07-09T08:44:32Z</time>
      </trkpt>
      <trkpt lat="45.98821" lon="4.50518">
        <ele>340.9</ele>
        <time>2015-07-09T08:44:35Z</time>
      </trkpt>
      <trkpt lat="45.98817" lon="4.50506">
        <ele>341.5</ele>
        <time>2015-07-09T08:44:38Z</time>
      </trkpt>
      <trkpt lat="45.98816" lon="4.50492">
        <ele>342</ele>
        <time>2015-07-09T08:44:41Z</time>
      </trkpt>
      <trkpt lat="45.98816" lon="4.50478">
        <ele>342</ele>
        <time>2015-07-09T08:44:44Z</time>
      </trkpt>
      <trkpt lat="45.98818" lon="4.50466">
        <ele>342</ele>
        <time>2015-07-09T08:44:47Z</time>
      </trkpt>
      <trkpt lat="45.98822" lon="4.50454">
        <ele>342</ele>
        <time>2015-07-09T08:44:50Z</time>
      </trkpt>
      <trkpt lat="45.98826" lon="4.50443">
        <ele>342</ele>
        <time>2015-07-09T08:44:53Z</time>
      </trkpt>
      <trkpt lat="45.9883" lon="4.50432">
        <ele>341.3</ele>
        <time>2015-07-09T08:44:57Z</time>
      </trkpt>
      <trkpt lat="45.98834" lon="4.50421">
        <ele>340.5</ele>
        <time>2015-07-09T08:45:01Z</time>
      </trkpt>
      <trkpt lat="45.98838" lon="4.50411">
        <ele>339.8</ele>
        <time>2015-07-09T08:45:04Z</time>
      </trkpt>
      <trkpt lat="45.98842" lon="4.504">
        <ele>339.1</ele>
        <time>2015-07-09T08:45:09Z</time>
      </trkpt>
      <trkpt lat="45.98847" lon="4.5039">
        <ele>338.4</ele>
        <time>2015-07-09T08:45:13Z</time>
      </trkpt>
      <trkpt lat="45.98853" lon="4.5038">
        <ele>338.5</ele>
        <time>2015-07-09T08:45:18Z</time>
      </trkpt>
      <trkpt lat="45.98859" lon="4.50368">
        <ele>338.7</ele>
        <time>2015-07-09T08:45:22Z</time>
      </trkpt>
      <trkpt lat="45.98864" lon="4.50359">
        <ele>338.9</ele>
        <time>2015-07-09T08:45:25Z</time>
      </trkpt>
      <trkpt lat="45.98871" lon="4.50352">
        <ele>339.1</ele>
        <time>2015-07-09T08:45:28Z</time>
      </trkpt>
      <trkpt lat="45.98879" lon="4.50345">
        <ele>339.3</ele>
        <time>2015-07-09T08:45:31Z</time>
      </trkpt>
      <trkpt lat="45.98886" lon="4.50339">
        <ele>339.5</ele>
        <time>2015-07-09T08:45:34Z</time>
      </trkpt>
      <trkpt lat="45.98893" lon="4.50334">
        <ele>340.4</ele>
        <time>2015-07-09T08:45:37Z</time>
      </trkpt>
      <trkpt lat="45.98901" lon="4.50331">
        <ele>341.3</ele>
        <time>2015-07-09T08:45:40Z</time>
      </trkpt>
      <trkpt lat="45.98911" lon="4.50327">
        <ele>342.2</ele>
        <time>2015-07-09T08:45:44Z</time>
      </trkpt>
      <trkpt lat="45.98919" lon="4.50324">
        <ele>343.1</ele>
        <time>2015-07-09T08:45:47Z</time>
      </trkpt>
      <trkpt lat="45.98928" lon="4.50321">
        <ele>342.5</ele>
        <time>2015-07-09T08:45:50Z</time>
      </trkpt>
      <trkpt lat="45.98936" lon="4.50318">
        <ele>341.1</ele>
        <time>2015-07-09T08:45:53Z</time>
      </trkpt>
      <trkpt lat="45.98947" lon="4.5032">
        <ele>339.6</ele>
        <time>2015-07-09T08:45:56Z</time>
      </trkpt>
      <trkpt lat="45.98955" lon="4.50334">
        <ele>340.2</ele>
        <time>2015-07-09T08:45:58Z</time>
      </trkpt>
      <trkpt lat="45.9896" lon="4.50346">
        <ele>340.7</ele>
        <time>2015-07-09T08:46:00Z</time>
      </trkpt>
      <trkpt lat="45.98965" lon="4.50358">
        <ele>341.3</ele>
        <time>2015-07-09T08:46:02Z</time>
      </trkpt>
      <trkpt lat="45.98972" lon="4.50369">
        <ele>341.8</ele>
        <time>2015-07-09T08:46:04Z</time>
      </trkpt>
      <trkpt lat="45.98978" lon="4.5038">
        <ele>342.4</ele>
        <time>2015-07-09T08:46:07Z</time>
      </trkpt>
      <trkpt lat="45.98984" lon="4.50388">
        <ele>342.9</ele>
        <time>2015-07-09T08:46:10Z</time>
      </trkpt>
      <trkpt lat="45.98992" lon="4.50398">
        <ele>343.5</ele>
        <time>2015-07-09T08:46:13Z</time>
      </trkpt>
      <trkpt lat="45.99001" lon="4.50408">
        <ele>342.8</ele>
        <time>2015-07-09T08:46:16Z</time>
      </trkpt>
      <trkpt lat="45.99011" lon="4.50417">
        <ele>343.6</ele>
        <time>2015-07-09T08:46:19Z</time>
      </trkpt>
      <trkpt lat="45.9902" lon="4.50422">
        <ele>344.5</ele>
        <time>2015-07-09T08:46:22Z</time>
      </trkpt>
      <trkpt lat="45.99035" lon="4.50422">
        <ele>345.3</ele>
        <time>2015-07-09T08:46:25Z</time>
      </trkpt>
      <trkpt lat="45.99045" lon="4.50425">
        <ele>344.1</ele>
        <time>2015-07-09T08:46:27Z</time>
      </trkpt>
      <trkpt lat="45.99056" lon="4.50428">
        <ele>342.9</ele>
        <time>2015-07-09T08:46:29Z</time>
      </trkpt>
      <trkpt lat="45.99066" lon="4.50431">
        <ele>341.7</ele>
        <time>2015-07-09T08:46:31Z</time>
      </trkpt>
      <trkpt lat="45.99075" lon="4.50434">
        <ele>340.5</ele>
        <time>2015-07-09T08:46:33Z</time>
      </trkpt>
      <trkpt lat="45.99086" lon="4.50437">
        <ele>339.2</ele>
        <time>2015-07-09T08:46:36Z</time>
      </trkpt>
      <trkpt lat="45.99094" lon="4.50436">
        <ele>337.9</ele>
        <time>2015-07-09T08:46:38Z</time>
      </trkpt>
      <trkpt lat="45.99103" lon="4.50434">
        <ele>336.6</ele>
        <time>2015-07-09T08:46:40Z</time>
      </trkpt>
      <trkpt lat="45.99115" lon="4.50429">
        <ele>336.5</ele>
        <time>2015-07-09T08:46:42Z</time>
      </trkpt>
      <trkpt lat="45.99129" lon="4.50425">
        <ele>336.5</ele>
        <time>2015-07-09T08:46:44Z</time>
      </trkpt>
      <trkpt lat="45.9914" lon="4.50421">
        <ele>336.4</ele>
        <time>2015-07-09T08:46:46Z</time>
      </trkpt>
      <trkpt lat="45.99152" lon="4.50416">
        <ele>336.3</ele>
        <time>2015-07-09T08:46:48Z</time>
      </trkpt>
      <trkpt lat="45.99167" lon="4.50417">
        <ele>336.5</ele>
        <time>2015-07-09T08:46:50Z</time>
      </trkpt>
      <trkpt lat="45.99179" lon="4.50419">
        <ele>336.8</ele>
        <time>2015-07-09T08:46:52Z</time>
      </trkpt>
      <trkpt lat="45.9919" lon="4.50421">
        <ele>337.1</ele>
        <time>2015-07-09T08:46:54Z</time>
      </trkpt>
      <trkpt lat="45.99199" lon="4.50419">
        <ele>337.5</ele>
        <time>2015-07-09T08:46:56Z</time>
      </trkpt>
      <trkpt lat="45.99208" lon="4.50418">
        <ele>337.8</ele>
        <time>2015-07-09T08:46:58Z</time>
      </trkpt>
      <trkpt lat="45.99218" lon="4.50419">
        <ele>338.2</ele>
        <time>2015-07-09T08:47:00Z</time>
      </trkpt>
      <trkpt lat="45.99227" lon="4.50416">
        <ele>338.5</ele>
        <time>2015-07-09T08:47:02Z</time>
      </trkpt>
      <trkpt lat="45.99238" lon="4.50414">
        <ele>339.5</ele>
        <time>2015-07-09T08:47:04Z</time>
      </trkpt>
      <trkpt lat="45.9925" lon="4.50412">
        <ele>340.4</ele>
        <time>2015-07-09T08:47:06Z</time>
      </trkpt>
      <trkpt lat="45.99261" lon="4.50406">
        <ele>341.3</ele>
        <time>2015-07-09T08:47:08Z</time>
      </trkpt>
      <trkpt lat="45.99272" lon="4.50399">
        <ele>342.2</ele>
        <time>2015-07-09T08:47:10Z</time>
      </trkpt>
      <trkpt lat="45.99286" lon="4.50396">
        <ele>341.1</ele>
        <time>2015-07-09T08:47:12Z</time>
      </trkpt>
      <trkpt lat="45.993" lon="4.50396">
        <ele>340</ele>
        <time>2015-07-09T08:47:14Z</time>
      </trkpt>
      <trkpt lat="45.99313" lon="4.50395">
        <ele>338.9</ele>
        <time>2015-07-09T08:47:16Z</time>
      </trkpt>
      <trkpt lat="45.99323" lon="4.50392">
        <ele>337.8</ele>
        <time>2015-07-09T08:47:18Z</time>
      </trkpt>
      <trkpt lat="45.99332" lon="4.50385">
        <ele>336.7</ele>
        <time>2015-07-09T08:47:21Z</time>
      </trkpt>
      <trkpt lat="45.9934" lon="4.50378">
        <ele>337.4</ele>
        <time>2015-07-09T08:47:24Z</time>
      </trkpt>
      <trkpt lat="45.99349" lon="4.50372">
        <ele>338</ele>
        <time>2015-07-09T08:47:28Z</time>
      </trkpt>
      <trkpt lat="45.99357" lon="4.50365">
        <ele>338.1</ele>
        <time>2015-07-09T08:47:32Z</time>
      </trkpt>
      <trkpt lat="45.99367" lon="4.50359">
        <ele>338.2</ele>
        <time>2015-07-09T08:47:36Z</time>
      </trkpt>
      <trkpt lat="45.99376" lon="4.50356">
        <ele>338.3</ele>
        <time>2015-07-09T08:47:40Z</time>
      </trkpt>
      <trkpt lat="45.99385" lon="4.50353">
        <ele>338.4</ele>
        <time>2015-07-09T08:47:44Z</time>
      </trkpt>
      <trkpt lat="45.99394" lon="4.50351">
        <ele>338.4</ele>
        <time>2015-07-09T08:47:48Z</time>
      </trkpt>
      <trkpt lat="45.99403" lon="4.50348">
        <ele>338.4</ele>
        <time>2015-07-09T08:47:52Z</time>
      </trkpt>
      <trkpt lat="45.9941" lon="4.50342">
        <ele>338.4</ele>
        <time>2015-07-09T08:47:56Z</time>
      </trkpt>
      <trkpt lat="45.99402" lon="4.50351">
        <ele>338.4</ele>
        <time>2015-07-09T08:48:03Z</time>
      </trkpt>
      <trkpt lat="45.9939" lon="4.50358">
        <ele>340</ele>
        <time>2015-07-09T08:48:06Z</time>
      </trkpt>
      <trkpt lat="45.99378" lon="4.50359">
        <ele>339.9</ele>
        <time>2015-07-09T08:48:08Z</time>
      </trkpt>
      <trkpt lat="45.99367" lon="4.50366">
        <ele>339.8</ele>
        <time>2015-07-09T08:48:10Z</time>
      </trkpt>
      <trkpt lat="45.99354" lon="4.50373">
        <ele>338.1</ele>
        <time>2015-07-09T08:48:12Z</time>
      </trkpt>
      <trkpt lat="45.99345" lon="4.50381">
        <ele>336.4</ele>
        <time>2015-07-09T08:48:14Z</time>
      </trkpt>
      <trkpt lat="45.99336" lon="4.5039">
        <ele>334.6</ele>
        <time>2015-07-09T08:48:16Z</time>
      </trkpt>
      <trkpt lat="45.99329" lon="4.50397">
        <ele>332.9</ele>
        <time>2015-07-09T08:48:18Z</time>
      </trkpt>
      <trkpt lat="45.9932" lon="4.50392">
        <ele>332.9</ele>
        <time>2015-07-09T08:48:22Z</time>
      </trkpt>
      <trkpt lat="45.9933" lon="4.50382">
        <ele>332.9</ele>
        <time>2015-07-09T08:48:26Z</time>
      </trkpt>
      <trkpt lat="45.99336" lon="4.50373">
        <ele>332.9</ele>
        <time>2015-07-09T08:48:28Z</time>
      </trkpt>
      <trkpt lat="45.99344" lon="4.50363">
        <ele>332.9</ele>
        <time>2015-07-09T08:48:30Z</time>
      </trkpt>
      <trkpt lat="45.99352" lon="4.50352">
        <ele>330.8</ele>
        <time>2015-07-09T08:48:32Z</time>
      </trkpt>
      <trkpt lat="45.9936" lon="4.5034">
        <ele>329.5</ele>
        <time>2015-07-09T08:48:34Z</time>
      </trkpt>
      <trkpt lat="45.99365" lon="4.50327">
        <ele>328.1</ele>
        <time>2015-07-09T08:48:36Z</time>
      </trkpt>
      <trkpt lat="45.99371" lon="4.50317">
        <ele>328.4</ele>
        <time>2015-07-09T08:48:38Z</time>
      </trkpt>
      <trkpt lat="45.99376" lon="4.50308">
        <ele>328.6</ele>
        <time>2015-07-09T08:48:40Z</time>
      </trkpt>
      <trkpt lat="45.99381" lon="4.50296">
        <ele>328.9</ele>
        <time>2015-07-09T08:48:42Z</time>
      </trkpt>
      <trkpt lat="45.99389" lon="4.50284">
        <ele>329.2</ele>
        <time>2015-07-09T08:48:44Z</time>
      </trkpt>
      <trkpt lat="45.99398" lon="4.50275">
        <ele>329.5</ele>
        <time>2015-07-09T08:48:46Z</time>
      </trkpt>
      <trkpt lat="45.99405" lon="4.50265">
        <ele>329.3</ele>
        <time>2015-07-09T08:48:48Z</time>
      </trkpt>
      <trkpt lat="45.99414" lon="4.50255">
        <ele>329.1</ele>
        <time>2015-07-09T08:48:50Z</time>
      </trkpt>
      <trkpt lat="45.99422" lon="4.50245">
        <ele>328.9</ele>
        <time>2015-07-09T08:48:52Z</time>
      </trkpt>
      <trkpt lat="45.99428" lon="4.50235">
        <ele>329.9</ele>
        <time>2015-07-09T08:48:54Z</time>
      </trkpt>
      <trkpt lat="45.99436" lon="4.50225">
        <ele>330.2</ele>
        <time>2015-07-09T08:48:56Z</time>
      </trkpt>
      <trkpt lat="45.99444" lon="4.50215">
        <ele>330.5</ele>
        <time>2015-07-09T08:48:58Z</time>
      </trkpt>
      <trkpt lat="45.99452" lon="4.50203">
        <ele>330.7</ele>
        <time>2015-07-09T08:49:00Z</time>
      </trkpt>
      <trkpt lat="45.9946" lon="4.50192">
        <ele>330</ele>
        <time>2015-07-09T08:49:02Z</time>
      </trkpt>
      <trkpt lat="45.99469" lon="4.50179">
        <ele>329.3</ele>
        <time>2015-07-09T08:49:04Z</time>
      </trkpt>
      <trkpt lat="45.99477" lon="4.50167">
        <ele>328.5</ele>
        <time>2015-07-09T08:49:06Z</time>
      </trkpt>
      <trkpt lat="45.99485" lon="4.50154">
        <ele>327.8</ele>
        <time>2015-07-09T08:49:08Z</time>
      </trkpt>
      <trkpt lat="45.99493" lon="4.50141">
        <ele>327.5</ele>
        <time>2015-07-09T08:49:10Z</time>
      </trkpt>
      <trkpt lat="45.995" lon="4.50128">
        <ele>327.3</ele>
        <time>2015-07-09T08:49:12Z</time>
      </trkpt>
      <trkpt lat="45.99507" lon="4.50116">
        <ele>327.9</ele>
        <time>2015-07-09T08:49:14Z</time>
      </trkpt>
      <trkpt lat="45.99513" lon="4.50107">
        <ele>327.8</ele>
        <time>2015-07-09T08:49:16Z</time>
      </trkpt>
      <trkpt lat="45.9952" lon="4.5009">
        <ele>326.8</ele>
        <time>2015-07-09T08:49:18Z</time>
      </trkpt>
      <trkpt lat="45.9953" lon="4.50079">
        <ele>325.8</ele>
        <time>2015-07-09T08:49:20Z</time>
      </trkpt>
      <trkpt lat="45.9954" lon="4.50072">
        <ele>324.8</ele>
        <time>2015-07-09T08:49:22Z</time>
      </trkpt>
      <trkpt lat="45.9955" lon="4.50059">
        <ele>324.8</ele>
        <time>2015-07-09T08:49:24Z</time>
      </trkpt>
      <trkpt lat="45.99558" lon="4.50047">
        <ele>324.8</ele>
        <time>2015-07-09T08:49:26Z</time>
      </trkpt>
      <trkpt lat="45.99566" lon="4.50035">
        <ele>324.8</ele>
        <time>2015-07-09T08:49:28Z</time>
      </trkpt>
      <trkpt lat="45.99574" lon="4.50024">
        <ele>324.8</ele>
        <time>2015-07-09T08:49:30Z</time>
      </trkpt>
      <trkpt lat="45.99582" lon="4.50016">
        <ele>324.8</ele>
        <time>2015-07-09T08:49:32Z</time>
      </trkpt>
      <trkpt lat="45.9959" lon="4.50008">
        <ele>325.9</ele>
        <time>2015-07-09T08:49:34Z</time>
      </trkpt>
      <trkpt lat="45.99599" lon="4.5">
        <ele>326.1</ele>
        <time>2015-07-09T08:49:36Z</time>
      </trkpt>
      <trkpt lat="45.99608" lon="4.49992">
        <ele>325</ele>
        <time>2015-07-09T08:49:38Z</time>
      </trkpt>
      <trkpt lat="45.99617" lon="4.49985">
        <ele>324.8</ele>
        <time>2015-07-09T08:49:40Z</time>
      </trkpt>
      <trkpt lat="45.99625" lon="4.49978">
        <ele>324.6</ele>
        <time>2015-07-09T08:49:42Z</time>
      </trkpt>
      <trkpt lat="45.99634" lon="4.49974">
        <ele>324.5</ele>
        <time>2015-07-09T08:49:44Z</time>
      </trkpt>
      <trkpt lat="45.99642" lon="4.49965">
        <ele>324.3</ele>
        <time>2015-07-09T08:49:46Z</time>
      </trkpt>
      <trkpt lat="45.99649" lon="4.49957">
        <ele>324.1</ele>
        <time>2015-07-09T08:49:48Z</time>
      </trkpt>
      <trkpt lat="45.99656" lon="4.49948">
        <ele>323.9</ele>
        <time>2015-07-09T08:49:50Z</time>
      </trkpt>
      <trkpt lat="45.9966" lon="4.49938">
        <ele>325.1</ele>
        <time>2015-07-09T08:49:52Z</time>
      </trkpt>
      <trkpt lat="45.99656" lon="4.49923">
        <ele>324.9</ele>
        <time>2015-07-09T08:49:55Z</time>
      </trkpt>
      <trkpt lat="45.99656" lon="4.4991">
        <ele>324.6</ele>
        <time>2015-07-09T08:49:57Z</time>
      </trkpt>
      <trkpt lat="45.99651" lon="4.49898">
        <ele>324.4</ele>
        <time>2015-07-09T08:50:00Z</time>
      </trkpt>
      <trkpt lat="45.99647" lon="4.49885">
        <ele>325.4</ele>
        <time>2015-07-09T08:50:04Z</time>
      </trkpt>
      <trkpt lat="45.9964" lon="4.49876">
        <ele>326.4</ele>
        <time>2015-07-09T08:50:08Z</time>
      </trkpt>
      <trkpt lat="45.99633" lon="4.4988">
        <ele>327.4</ele>
        <time>2015-07-09T08:50:12Z</time>
      </trkpt>
      <trkpt lat="45.99626" lon="4.49888">
        <ele>328.4</ele>
        <time>2015-07-09T08:50:16Z</time>
      </trkpt>
      <trkpt lat="45.99618" lon="4.49895">
        <ele>329.4</ele>
        <time>2015-07-09T08:50:19Z</time>
      </trkpt>
      <trkpt lat="45.99609" lon="4.49903">
        <ele>330.4</ele>
        <time>2015-07-09T08:50:22Z</time>
      </trkpt>
      <trkpt lat="45.99601" lon="4.49909">
        <ele>331.4</ele>
        <time>2015-07-09T08:50:25Z</time>
      </trkpt>
      <trkpt lat="45.99593" lon="4.49915">
        <ele>331</ele>
        <time>2015-07-09T08:50:28Z</time>
      </trkpt>
      <trkpt lat="45.99586" lon="4.4992">
        <ele>332.7</ele>
        <time>2015-07-09T08:50:31Z</time>
      </trkpt>
      <trkpt lat="45.99578" lon="4.49924">
        <ele>333.5</ele>
        <time>2015-07-09T08:50:34Z</time>
      </trkpt>
      <trkpt lat="45.99569" lon="4.49931">
        <ele>334.2</ele>
        <time>2015-07-09T08:50:38Z</time>
      </trkpt>
      <trkpt lat="45.9956" lon="4.49935">
        <ele>333.6</ele>
        <time>2015-07-09T08:50:42Z</time>
      </trkpt>
      <trkpt lat="45.99551" lon="4.49938">
        <ele>333.1</ele>
        <time>2015-07-09T08:50:47Z</time>
      </trkpt>
      <trkpt lat="45.99541" lon="4.49945">
        <ele>333.8</ele>
        <time>2015-07-09T08:50:51Z</time>
      </trkpt>
      <trkpt lat="45.99531" lon="4.49953">
        <ele>334.5</ele>
        <time>2015-07-09T08:50:54Z</time>
      </trkpt>
      <trkpt lat="45.99521" lon="4.4996">
        <ele>335.3</ele>
        <time>2015-07-09T08:50:57Z</time>
      </trkpt>
      <trkpt lat="45.99513" lon="4.49964">
        <ele>336</ele>
        <time>2015-07-09T08:51:00Z</time>
      </trkpt>
      <trkpt lat="45.99505" lon="4.49963">
        <ele>336.7</ele>
        <time>2015-07-09T08:51:04Z</time>
      </trkpt>
      <trkpt lat="45.99496" lon="4.49954">
        <ele>337.5</ele>
        <time>2015-07-09T08:51:08Z</time>
      </trkpt>
      <trkpt lat="45.9949" lon="4.49946">
        <ele>337.5</ele>
        <time>2015-07-09T08:51:11Z</time>
      </trkpt>
      <trkpt lat="45.99485" lon="4.49936">
        <ele>338</ele>
        <time>2015-07-09T08:51:14Z</time>
      </trkpt>
      <trkpt lat="45.99481" lon="4.49925">
        <ele>338.5</ele>
        <time>2015-07-09T08:51:17Z</time>
      </trkpt>
      <trkpt lat="45.9948" lon="4.49912">
        <ele>340.4</ele>
        <time>2015-07-09T08:51:20Z</time>
      </trkpt>
      <trkpt lat="45.99482" lon="4.499">
        <ele>342.2</ele>
        <time>2015-07-09T08:51:23Z</time>
      </trkpt>
      <trkpt lat="45.99485" lon="4.49889">
        <ele>342.7</ele>
        <time>2015-07-09T08:51:26Z</time>
      </trkpt>
      <trkpt lat="45.99488" lon="4.49877">
        <ele>343.3</ele>
        <time>2015-07-09T08:51:29Z</time>
      </trkpt>
      <trkpt lat="45.99491" lon="4.49865">
        <ele>343.8</ele>
        <time>2015-07-09T08:51:32Z</time>
      </trkpt>
      <trkpt lat="45.99493" lon="4.49854">
        <ele>344.6</ele>
        <time>2015-07-09T08:51:35Z</time>
      </trkpt>
      <trkpt lat="45.99495" lon="4.49839">
        <ele>345.5</ele>
        <time>2015-07-09T08:51:39Z</time>
      </trkpt>
      <trkpt lat="45.99499" lon="4.49826">
        <ele>346.3</ele>
        <time>2015-07-09T08:51:43Z</time>
      </trkpt>
      <trkpt lat="45.99503" lon="4.49812">
        <ele>347.1</ele>
        <time>2015-07-09T08:51:47Z</time>
      </trkpt>
      <trkpt lat="45.99507" lon="4.49799">
        <ele>347.4</ele>
        <time>2015-07-09T08:51:51Z</time>
      </trkpt>
      <trkpt lat="45.9951" lon="4.49788">
        <ele>347.6</ele>
        <time>2015-07-09T08:51:55Z</time>
      </trkpt>
      <trkpt lat="45.99515" lon="4.49776">
        <ele>348.7</ele>
        <time>2015-07-09T08:51:59Z</time>
      </trkpt>
      <trkpt lat="45.99519" lon="4.49764">
        <ele>349.8</ele>
        <time>2015-07-09T08:52:02Z</time>
      </trkpt>
      <trkpt lat="45.99523" lon="4.49752">
        <ele>350.1</ele>
        <time>2015-07-09T08:52:05Z</time>
      </trkpt>
      <trkpt lat="45.99525" lon="4.49738">
        <ele>350.4</ele>
        <time>2015-07-09T08:52:08Z</time>
      </trkpt>
      <trkpt lat="45.99525" lon="4.49724">
        <ele>350.6</ele>
        <time>2015-07-09T08:52:11Z</time>
      </trkpt>
      <trkpt lat="45.99523" lon="4.4971">
        <ele>350.6</ele>
        <time>2015-07-09T08:52:14Z</time>
      </trkpt>
      <trkpt lat="45.99515" lon="4.49705">
        <ele>350.6</ele>
        <time>2015-07-09T08:52:19Z</time>
      </trkpt>
      <trkpt lat="45.99511" lon="4.49719">
        <ele>350.6</ele>
        <time>2015-07-09T08:52:23Z</time>
      </trkpt>
      <trkpt lat="45.99508" lon="4.49733">
        <ele>350.6</ele>
        <time>2015-07-09T08:52:26Z</time>
      </trkpt>
      <trkpt lat="45.99504" lon="4.49746">
        <ele>350.4</ele>
        <time>2015-07-09T08:52:29Z</time>
      </trkpt>
      <trkpt lat="45.99499" lon="4.49757">
        <ele>350.1</ele>
        <time>2015-07-09T08:52:32Z</time>
      </trkpt>
      <trkpt lat="45.99493" lon="4.49769">
        <ele>350</ele>
        <time>2015-07-09T08:52:35Z</time>
      </trkpt>
      <trkpt lat="45.99487" lon="4.49781">
        <ele>349.9</ele>
        <time>2015-07-09T08:52:38Z</time>
      </trkpt>
      <trkpt lat="45.9948" lon="4.49793">
        <ele>350.6</ele>
        <time>2015-07-09T08:52:41Z</time>
      </trkpt>
      <trkpt lat="45.99474" lon="4.49805">
        <ele>351.4</ele>
        <time>2015-07-09T08:52:44Z</time>
      </trkpt>
      <trkpt lat="45.99468" lon="4.49819">
        <ele>350.9</ele>
        <time>2015-07-09T08:52:47Z</time>
      </trkpt>
      <trkpt lat="45.99463" lon="4.49832">
        <ele>350.5</ele>
        <time>2015-07-09T08:52:50Z</time>
      </trkpt>
      <trkpt lat="45.99457" lon="4.49845">
        <ele>350</ele>
        <time>2015-07-09T08:52:54Z</time>
      </trkpt>
      <trkpt lat="45.99452" lon="4.49859">
        <ele>349.5</ele>
        <time>2015-07-09T08:52:58Z</time>
      </trkpt>
      <trkpt lat="45.99446" lon="4.49872">
        <ele>349.1</ele>
        <time>2015-07-09T08:53:01Z</time>
      </trkpt>
      <trkpt lat="45.99439" lon="4.49887">
        <ele>348.9</ele>
        <time>2015-07-09T08:53:04Z</time>
      </trkpt>
      <trkpt lat="45.99434" lon="4.49898">
        <ele>348.7</ele>
        <time>2015-07-09T08:53:06Z</time>
      </trkpt>
      <trkpt lat="45.9943" lon="4.49911">
        <ele>347.4</ele>
        <time>2015-07-09T08:53:08Z</time>
      </trkpt>
      <trkpt lat="45.99425" lon="4.49923">
        <ele>346</ele>
        <time>2015-07-09T08:53:10Z</time>
      </trkpt>
      <trkpt lat="45.99422" lon="4.49935">
        <ele>344.6</ele>
        <time>2015-07-09T08:53:12Z</time>
      </trkpt>
      <trkpt lat="45.99418" lon="4.49946">
        <ele>343.3</ele>
        <time>2015-07-09T08:53:14Z</time>
      </trkpt>
      <trkpt lat="45.99417" lon="4.49957">
        <ele>343.1</ele>
        <time>2015-07-09T08:53:16Z</time>
      </trkpt>
      <trkpt lat="45.99419" lon="4.49974">
        <ele>342.9</ele>
        <time>2015-07-09T08:53:19Z</time>
      </trkpt>
      <trkpt lat="45.99422" lon="4.49985">
        <ele>342.1</ele>
        <time>2015-07-09T08:53:21Z</time>
      </trkpt>
      <trkpt lat="45.99423" lon="4.49997">
        <ele>341.3</ele>
        <time>2015-07-09T08:53:23Z</time>
      </trkpt>
      <trkpt lat="45.99423" lon="4.50009">
        <ele>340.5</ele>
        <time>2015-07-09T08:53:25Z</time>
      </trkpt>
      <trkpt lat="45.99422" lon="4.50021">
        <ele>339.6</ele>
        <time>2015-07-09T08:53:27Z</time>
      </trkpt>
      <trkpt lat="45.99417" lon="4.50032">
        <ele>338.8</ele>
        <time>2015-07-09T08:53:30Z</time>
      </trkpt>
      <trkpt lat="45.99413" lon="4.50044">
        <ele>338.2</ele>
        <time>2015-07-09T08:53:34Z</time>
      </trkpt>
      <trkpt lat="45.99409" lon="4.50059">
        <ele>337.5</ele>
        <time>2015-07-09T08:53:38Z</time>
      </trkpt>
      <trkpt lat="45.99404" lon="4.5007">
        <ele>337.5</ele>
        <time>2015-07-09T08:53:40Z</time>
      </trkpt>
      <trkpt lat="45.99399" lon="4.50081">
        <ele>337.5</ele>
        <time>2015-07-09T08:53:42Z</time>
      </trkpt>
      <trkpt lat="45.99395" lon="4.50092">
        <ele>337.5</ele>
        <time>2015-07-09T08:53:44Z</time>
      </trkpt>
      <trkpt lat="45.9939" lon="4.50104">
        <ele>337.5</ele>
        <time>2015-07-09T08:53:47Z</time>
      </trkpt>
      <trkpt lat="45.99381" lon="4.50113">
        <ele>338.2</ele>
        <time>2015-07-09T08:53:50Z</time>
      </trkpt>
      <trkpt lat="45.99372" lon="4.50119">
        <ele>338.8</ele>
        <time>2015-07-09T08:53:52Z</time>
      </trkpt>
      <trkpt lat="45.99362" lon="4.50124">
        <ele>339.5</ele>
        <time>2015-07-09T08:53:54Z</time>
      </trkpt>
      <trkpt lat="45.99352" lon="4.50127">
        <ele>340.1</ele>
        <time>2015-07-09T08:53:56Z</time>
      </trkpt>
      <trkpt lat="45.99343" lon="4.50129">
        <ele>340.7</ele>
        <time>2015-07-09T08:53:58Z</time>
      </trkpt>
      <trkpt lat="45.99332" lon="4.50128">
        <ele>341.4</ele>
        <time>2015-07-09T08:54:01Z</time>
      </trkpt>
      <trkpt lat="45.99322" lon="4.50126">
        <ele>342</ele>
        <time>2015-07-09T08:54:04Z</time>
      </trkpt>
      <trkpt lat="45.99314" lon="4.50123">
        <ele>342.3</ele>
        <time>2015-07-09T08:54:07Z</time>
      </trkpt>
      <trkpt lat="45.99305" lon="4.50114">
        <ele>342.5</ele>
        <time>2015-07-09T08:54:11Z</time>
      </trkpt>
      <trkpt lat="45.99301" lon="4.50101">
        <ele>342.8</ele>
        <time>2015-07-09T08:54:15Z</time>
      </trkpt>
      <trkpt lat="45.99299" lon="4.5009">
        <ele>343.1</ele>
        <time>2015-07-09T08:54:19Z</time>
      </trkpt>
      <trkpt lat="45.99295" lon="4.50079">
        <ele>343.4</ele>
        <time>2015-07-09T08:54:23Z</time>
      </trkpt>
      <trkpt lat="45.99288" lon="4.5007">
        <ele>343.6</ele>
        <time>2015-07-09T08:54:27Z</time>
      </trkpt>
      <trkpt lat="45.99281" lon="4.50061">
        <ele>343.9</ele>
        <time>2015-07-09T08:54:31Z</time>
      </trkpt>
      <trkpt lat="45.99274" lon="4.50053">
        <ele>344.2</ele>
        <time>2015-07-09T08:54:35Z</time>
      </trkpt>
      <trkpt lat="45.99265" lon="4.50047">
        <ele>344.9</ele>
        <time>2015-07-09T08:54:39Z</time>
      </trkpt>
      <trkpt lat="45.99257" lon="4.50044">
        <ele>345.6</ele>
        <time>2015-07-09T08:54:42Z</time>
      </trkpt>
      <trkpt lat="45.99248" lon="4.50043">
        <ele>347.1</ele>
        <time>2015-07-09T08:54:45Z</time>
      </trkpt>
      <trkpt lat="45.99239" lon="4.50043">
        <ele>348.3</ele>
        <time>2015-07-09T08:54:48Z</time>
      </trkpt>
      <trkpt lat="45.9923" lon="4.50043">
        <ele>349.5</ele>
        <time>2015-07-09T08:54:51Z</time>
      </trkpt>
      <trkpt lat="45.9922" lon="4.50042">
        <ele>350.6</ele>
        <time>2015-07-09T08:54:54Z</time>
      </trkpt>
      <trkpt lat="45.99212" lon="4.5004">
        <ele>351.8</ele>
        <time>2015-07-09T08:54:57Z</time>
      </trkpt>
      <trkpt lat="45.99203" lon="4.50037">
        <ele>353</ele>
        <time>2015-07-09T08:55:01Z</time>
      </trkpt>
      <trkpt lat="45.99199" lon="4.50026">
        <ele>354.2</ele>
        <time>2015-07-09T08:55:08Z</time>
      </trkpt>
      <trkpt lat="45.99191" lon="4.5002">
        <ele>355.4</ele>
        <time>2015-07-09T08:55:12Z</time>
      </trkpt>
      <trkpt lat="45.99184" lon="4.50015">
        <ele>356.5</ele>
        <time>2015-07-09T08:55:16Z</time>
      </trkpt>
      <trkpt lat="45.99176" lon="4.5001">
        <ele>357.3</ele>
        <time>2015-07-09T08:55:21Z</time>
      </trkpt>
      <trkpt lat="45.99168" lon="4.50004">
        <ele>358</ele>
        <time>2015-07-09T08:55:27Z</time>
      </trkpt>
      <trkpt lat="45.9916" lon="4.49997">
        <ele>357.6</ele>
        <time>2015-07-09T08:55:32Z</time>
      </trkpt>
      <trkpt lat="45.99153" lon="4.49989">
        <ele>358.8</ele>
        <time>2015-07-09T08:55:37Z</time>
      </trkpt>
      <trkpt lat="45.99145" lon="4.49982">
        <ele>360</ele>
        <time>2015-07-09T08:55:41Z</time>
      </trkpt>
      <trkpt lat="45.99138" lon="4.49976">
        <ele>361.2</ele>
        <time>2015-07-09T08:55:45Z</time>
      </trkpt>
      <trkpt lat="45.99131" lon="4.4997">
        <ele>362.4</ele>
        <time>2015-07-09T08:55:49Z</time>
      </trkpt>
      <trkpt lat="45.99123" lon="4.49963">
        <ele>363.5</ele>
        <time>2015-07-09T08:55:54Z</time>
      </trkpt>
      <trkpt lat="45.99116" lon="4.49957">
        <ele>364.7</ele>
        <time>2015-07-09T08:55:59Z</time>
      </trkpt>
      <trkpt lat="45.99109" lon="4.4995">
        <ele>365.9</ele>
        <time>2015-07-09T08:56:04Z</time>
      </trkpt>
      <trkpt lat="45.991" lon="4.49945">
        <ele>367.1</ele>
        <time>2015-07-09T08:56:09Z</time>
      </trkpt>
      <trkpt lat="45.99091" lon="4.4994">
        <ele>368.3</ele>
        <time>2015-07-09T08:56:14Z</time>
      </trkpt>
      <trkpt lat="45.99082" lon="4.49936">
        <ele>369.3</ele>
        <time>2015-07-09T08:56:19Z</time>
      </trkpt>
      <trkpt lat="45.99073" lon="4.49932">
        <ele>370.6</ele>
        <time>2015-07-09T08:56:25Z</time>
      </trkpt>
      <trkpt lat="45.99065" lon="4.49931">
        <ele>370.5</ele>
        <time>2015-07-09T08:56:31Z</time>
      </trkpt>
      <trkpt lat="45.99057" lon="4.49928">
        <ele>370.3</ele>
        <time>2015-07-09T08:56:37Z</time>
      </trkpt>
      <trkpt lat="45.99049" lon="4.49921">
        <ele>370.1</ele>
        <time>2015-07-09T08:56:42Z</time>
      </trkpt>
      <trkpt lat="45.99042" lon="4.49915">
        <ele>369.9</ele>
        <time>2015-07-09T08:56:47Z</time>
      </trkpt>
      <trkpt lat="45.99034" lon="4.49907">
        <ele>370.9</ele>
        <time>2015-07-09T08:56:53Z</time>
      </trkpt>
      <trkpt lat="45.99025" lon="4.49904">
        <ele>371.9</ele>
        <time>2015-07-09T08:56:58Z</time>
      </trkpt>
      <trkpt lat="45.99016" lon="4.49902">
        <ele>372.9</ele>
        <time>2015-07-09T08:57:03Z</time>
      </trkpt>
      <trkpt lat="45.99011" lon="4.49894">
        <ele>373.9</ele>
        <time>2015-07-09T08:57:08Z</time>
      </trkpt>
      <trkpt lat="45.99008" lon="4.49881">
        <ele>374.9</ele>
        <time>2015-07-09T08:57:12Z</time>
      </trkpt>
      <trkpt lat="45.99003" lon="4.49872">
        <ele>376.1</ele>
        <time>2015-07-09T08:57:16Z</time>
      </trkpt>
      <trkpt lat="45.98996" lon="4.49864">
        <ele>377.3</ele>
        <time>2015-07-09T08:57:20Z</time>
      </trkpt>
      <trkpt lat="45.9899" lon="4.49853">
        <ele>379.2</ele>
        <time>2015-07-09T08:57:25Z</time>
      </trkpt>
      <trkpt lat="45.98986" lon="4.49841">
        <ele>381.1</ele>
        <time>2015-07-09T08:57:30Z</time>
      </trkpt>
      <trkpt lat="45.98984" lon="4.49829">
        <ele>383</ele>
        <time>2015-07-09T08:57:35Z</time>
      </trkpt>
      <trkpt lat="45.98981" lon="4.49818">
        <ele>384.9</ele>
        <time>2015-07-09T08:57:40Z</time>
      </trkpt>
      <trkpt lat="45.98978" lon="4.49807">
        <ele>385.6</ele>
        <time>2015-07-09T08:57:45Z</time>
      </trkpt>
      <trkpt lat="45.98976" lon="4.49795">
        <ele>386.4</ele>
        <time>2015-07-09T08:57:50Z</time>
      </trkpt>
      <trkpt lat="45.98974" lon="4.49783">
        <ele>387.1</ele>
        <time>2015-07-09T08:57:55Z</time>
      </trkpt>
      <trkpt lat="45.98974" lon="4.4977">
        <ele>387.9</ele>
        <time>2015-07-09T08:58:00Z</time>
      </trkpt>
      <trkpt lat="45.98975" lon="4.49759">
        <ele>388.7</ele>
        <time>2015-07-09T08:58:05Z</time>
      </trkpt>
      <trkpt lat="45.98975" lon="4.49746">
        <ele>389.5</ele>
        <time>2015-07-09T08:58:11Z</time>
      </trkpt>
      <trkpt lat="45.98976" lon="4.49733">
        <ele>390.4</ele>
        <time>2015-07-09T08:58:18Z</time>
      </trkpt>
      <trkpt lat="45.98979" lon="4.4972">
        <ele>390.5</ele>
        <time>2015-07-09T08:58:24Z</time>
      </trkpt>
      <trkpt lat="45.98981" lon="4.49707">
        <ele>390.5</ele>
        <time>2015-07-09T08:58:29Z</time>
      </trkpt>
      <trkpt lat="45.98983" lon="4.49696">
        <ele>390.6</ele>
        <time>2015-07-09T08:58:33Z</time>
      </trkpt>
      <trkpt lat="45.98985" lon="4.49685">
        <ele>390.9</ele>
        <time>2015-07-09T08:58:37Z</time>
      </trkpt>
      <trkpt lat="45.98987" lon="4.49673">
        <ele>391.2</ele>
        <time>2015-07-09T08:58:41Z</time>
      </trkpt>
      <trkpt lat="45.98989" lon="4.49659">
        <ele>391.5</ele>
        <time>2015-07-09T08:58:46Z</time>
      </trkpt>
      <trkpt lat="45.98991" lon="4.49645">
        <ele>391.7</ele>
        <time>2015-07-09T08:58:51Z</time>
      </trkpt>
      <trkpt lat="45.98992" lon="4.49633">
        <ele>391.9</ele>
        <time>2015-07-09T08:58:55Z</time>
      </trkpt>
      <trkpt lat="45.98994" lon="4.4962">
        <ele>392.1</ele>
        <time>2015-07-09T08:59:00Z</time>
      </trkpt>
      <trkpt lat="45.98995" lon="4.49606">
        <ele>392.1</ele>
        <time>2015-07-09T08:59:05Z</time>
      </trkpt>
      <trkpt lat="45.98997" lon="4.49592">
        <ele>392.1</ele>
        <time>2015-07-09T08:59:10Z</time>
      </trkpt>
      <trkpt lat="45.98999" lon="4.49579">
        <ele>392.1</ele>
        <time>2015-07-09T08:59:15Z</time>
      </trkpt>
      <trkpt lat="45.99002" lon="4.49566">
        <ele>392.1</ele>
        <time>2015-07-09T08:59:20Z</time>
      </trkpt>
      <trkpt lat="45.99005" lon="4.49555">
        <ele>392.1</ele>
        <time>2015-07-09T08:59:25Z</time>
      </trkpt>
      <trkpt lat="45.99009" lon="4.49542">
        <ele>391.9</ele>
        <time>2015-07-09T08:59:30Z</time>
      </trkpt>
      <trkpt lat="45.99013" lon="4.49529">
        <ele>391.7</ele>
        <time>2015-07-09T08:59:35Z</time>
      </trkpt>
      <trkpt lat="45.99017" lon="4.49516">
        <ele>391.5</ele>
        <time>2015-07-09T08:59:40Z</time>
      </trkpt>
      <trkpt lat="45.99021" lon="4.49503">
        <ele>391.4</ele>
        <time>2015-07-09T08:59:45Z</time>
      </trkpt>
      <trkpt lat="45.99025" lon="4.49491">
        <ele>393.3</ele>
        <time>2015-07-09T08:59:50Z</time>
      </trkpt>
      <trkpt lat="45.9903" lon="4.49479">
        <ele>395.2</ele>
        <time>2015-07-09T08:59:55Z</time>
      </trkpt>
      <trkpt lat="45.99035" lon="4.49467">
        <ele>397.3</ele>
        <time>2015-07-09T09:00:00Z</time>
      </trkpt>
      <trkpt lat="45.9904" lon="4.49456">
        <ele>399.4</ele>
        <time>2015-07-09T09:00:05Z</time>
      </trkpt>
      <trkpt lat="45.99043" lon="4.49444">
        <ele>401.5</ele>
        <time>2015-07-09T09:00:10Z</time>
      </trkpt>
      <trkpt lat="45.99046" lon="4.4943">
        <ele>403.5</ele>
        <time>2015-07-09T09:00:15Z</time>
      </trkpt>
      <trkpt lat="45.99047" lon="4.49417">
        <ele>405.6</ele>
        <time>2015-07-09T09:00:20Z</time>
      </trkpt>
      <trkpt lat="45.99048" lon="4.49403">
        <ele>407.7</ele>
        <time>2015-07-09T09:00:25Z</time>
      </trkpt>
      <trkpt lat="45.99048" lon="4.4939">
        <ele>409.8</ele>
        <time>2015-07-09T09:00:30Z</time>
      </trkpt>
      <trkpt lat="45.9905" lon="4.49377">
        <ele>411.9</ele>
        <time>2015-07-09T09:00:35Z</time>
      </trkpt>
      <trkpt lat="45.99053" lon="4.49365">
        <ele>414</ele>
        <time>2015-07-09T09:00:40Z</time>
      </trkpt>
      <trkpt lat="45.99056" lon="4.49353">
        <ele>413.8</ele>
        <time>2015-07-09T09:00:45Z</time>
      </trkpt>
      <trkpt lat="45.99061" lon="4.49341">
        <ele>413.6</ele>
        <time>2015-07-09T09:00:50Z</time>
      </trkpt>
      <trkpt lat="45.99067" lon="4.49329">
        <ele>413.5</ele>
        <time>2015-07-09T09:00:55Z</time>
      </trkpt>
      <trkpt lat="45.99072" lon="4.4932">
        <ele>413.3</ele>
        <time>2015-07-09T09:00:59Z</time>
      </trkpt>
      <trkpt lat="45.99077" lon="4.49311">
        <ele>413.1</ele>
        <time>2015-07-09T09:01:03Z</time>
      </trkpt>
      <trkpt lat="45.99083" lon="4.49301">
        <ele>412.9</ele>
        <time>2015-07-09T09:01:07Z</time>
      </trkpt>
      <trkpt lat="45.99087" lon="4.49291">
        <ele>412.7</ele>
        <time>2015-07-09T09:01:11Z</time>
      </trkpt>
      <trkpt lat="45.99091" lon="4.49281">
        <ele>412.9</ele>
        <time>2015-07-09T09:01:15Z</time>
      </trkpt>
      <trkpt lat="45.99095" lon="4.4927">
        <ele>413.1</ele>
        <time>2015-07-09T09:01:19Z</time>
      </trkpt>
      <trkpt lat="45.99097" lon="4.49255">
        <ele>413.3</ele>
        <time>2015-07-09T09:01:23Z</time>
      </trkpt>
      <trkpt lat="45.99098" lon="4.49241">
        <ele>413.5</ele>
        <time>2015-07-09T09:01:26Z</time>
      </trkpt>
      <trkpt lat="45.99097" lon="4.49228">
        <ele>413.8</ele>
        <time>2015-07-09T09:01:29Z</time>
      </trkpt>
      <trkpt lat="45.99095" lon="4.49216">
        <ele>414.2</ele>
        <time>2015-07-09T09:01:32Z</time>
      </trkpt>
      <trkpt lat="45.99091" lon="4.49205">
        <ele>414.5</ele>
        <time>2015-07-09T09:01:36Z</time>
      </trkpt>
      <trkpt lat="45.99086" lon="4.49193">
        <ele>415.5</ele>
        <time>2015-07-09T09:01:40Z</time>
      </trkpt>
      <trkpt lat="45.99082" lon="4.4918">
        <ele>416.4</ele>
        <time>2015-07-09T09:01:44Z</time>
      </trkpt>
      <trkpt lat="45.9908" lon="4.49165">
        <ele>417.3</ele>
        <time>2015-07-09T09:01:48Z</time>
      </trkpt>
      <trkpt lat="45.99079" lon="4.4915">
        <ele>418.2</ele>
        <time>2015-07-09T09:01:52Z</time>
      </trkpt>
      <trkpt lat="45.99077" lon="4.49138">
        <ele>418.7</ele>
        <time>2015-07-09T09:01:55Z</time>
      </trkpt>
      <trkpt lat="45.99076" lon="4.49127">
        <ele>419.3</ele>
        <time>2015-07-09T09:01:58Z</time>
      </trkpt>
      <trkpt lat="45.99075" lon="4.49115">
        <ele>419.8</ele>
        <time>2015-07-09T09:02:01Z</time>
      </trkpt>
      <trkpt lat="45.99075" lon="4.49103">
        <ele>420.8</ele>
        <time>2015-07-09T09:02:04Z</time>
      </trkpt>
      <trkpt lat="45.99075" lon="4.4909">
        <ele>421.8</ele>
        <time>2015-07-09T09:02:07Z</time>
      </trkpt>
      <trkpt lat="45.99075" lon="4.49077">
        <ele>422.8</ele>
        <time>2015-07-09T09:02:10Z</time>
      </trkpt>
      <trkpt lat="45.99074" lon="4.49063">
        <ele>423.8</ele>
        <time>2015-07-09T09:02:13Z</time>
      </trkpt>
      <trkpt lat="45.99074" lon="4.49051">
        <ele>424.3</ele>
        <time>2015-07-09T09:02:16Z</time>
      </trkpt>
      <trkpt lat="45.99072" lon="4.49038">
        <ele>424.7</ele>
        <time>2015-07-09T09:02:19Z</time>
      </trkpt>
      <trkpt lat="45.99072" lon="4.49026">
        <ele>425.2</ele>
        <time>2015-07-09T09:02:22Z</time>
      </trkpt>
      <trkpt lat="45.99072" lon="4.49014">
        <ele>426.4</ele>
        <time>2015-07-09T09:02:25Z</time>
      </trkpt>
      <trkpt lat="45.99072" lon="4.49002">
        <ele>427.5</ele>
        <time>2015-07-09T09:02:28Z</time>
      </trkpt>
      <trkpt lat="45.99072" lon="4.4899">
        <ele>428.7</ele>
        <time>2015-07-09T09:02:31Z</time>
      </trkpt>
      <trkpt lat="45.99072" lon="4.48978">
        <ele>429.9</ele>
        <time>2015-07-09T09:02:34Z</time>
      </trkpt>
      <trkpt lat="45.99072" lon="4.48966">
        <ele>430.6</ele>
        <time>2015-07-09T09:02:37Z</time>
      </trkpt>
      <trkpt lat="45.99072" lon="4.48954">
        <ele>431.4</ele>
        <time>2015-07-09T09:02:40Z</time>
      </trkpt>
      <trkpt lat="45.99073" lon="4.4894">
        <ele>429.5</ele>
        <time>2015-07-09T09:02:44Z</time>
      </trkpt>
      <trkpt lat="45.99072" lon="4.48925">
        <ele>427.7</ele>
        <time>2015-07-09T09:02:48Z</time>
      </trkpt>
      <trkpt lat="45.9907" lon="4.48914">
        <ele>425.9</ele>
        <time>2015-07-09T09:02:52Z</time>
      </trkpt>
      <trkpt lat="45.99062" lon="4.48899">
        <ele>426.5</ele>
        <time>2015-07-09T09:02:55Z</time>
      </trkpt>
      <trkpt lat="45.99054" lon="4.48895">
        <ele>427</ele>
        <time>2015-07-09T09:02:56Z</time>
      </trkpt>
      <trkpt lat="45.99043" lon="4.48889">
        <ele>426.8</ele>
        <time>2015-07-09T09:02:58Z</time>
      </trkpt>
      <trkpt lat="45.99032" lon="4.48884">
        <ele>426.6</ele>
        <time>2015-07-09T09:03:00Z</time>
      </trkpt>
      <trkpt lat="45.99022" lon="4.48879">
        <ele>426.5</ele>
        <time>2015-07-09T09:03:02Z</time>
      </trkpt>
      <trkpt lat="45.99013" lon="4.48873">
        <ele>426.3</ele>
        <time>2015-07-09T09:03:04Z</time>
      </trkpt>
      <trkpt lat="45.99005" lon="4.48867">
        <ele>423.6</ele>
        <time>2015-07-09T09:03:06Z</time>
      </trkpt>
      <trkpt lat="45.98998" lon="4.48861">
        <ele>421</ele>
        <time>2015-07-09T09:03:08Z</time>
      </trkpt>
      <trkpt lat="45.98988" lon="4.48854">
        <ele>420.9</ele>
        <time>2015-07-09T09:03:11Z</time>
      </trkpt>
      <trkpt lat="45.98978" lon="4.48847">
        <ele>420.8</ele>
        <time>2015-07-09T09:03:14Z</time>
      </trkpt>
      <trkpt lat="45.98968" lon="4.4884">
        <ele>421.8</ele>
        <time>2015-07-09T09:03:17Z</time>
      </trkpt>
      <trkpt lat="45.9896" lon="4.48834">
        <ele>420.5</ele>
        <time>2015-07-09T09:03:19Z</time>
      </trkpt>
      <trkpt lat="45.98953" lon="4.48826">
        <ele>419.1</ele>
        <time>2015-07-09T09:03:21Z</time>
      </trkpt>
      <trkpt lat="45.98949" lon="4.48815">
        <ele>417.7</ele>
        <time>2015-07-09T09:03:22Z</time>
      </trkpt>
      <trkpt lat="45.98944" lon="4.48805">
        <ele>416.4</ele>
        <time>2015-07-09T09:03:24Z</time>
      </trkpt>
      <trkpt lat="45.9894" lon="4.4879">
        <ele>415</ele>
        <time>2015-07-09T09:03:26Z</time>
      </trkpt>
      <trkpt lat="45.98937" lon="4.48776">
        <ele>414.3</ele>
        <time>2015-07-09T09:03:28Z</time>
      </trkpt>
      <trkpt lat="45.98936" lon="4.48761">
        <ele>416</ele>
        <time>2015-07-09T09:03:30Z</time>
      </trkpt>
      <trkpt lat="45.98936" lon="4.48749">
        <ele>417.7</ele>
        <time>2015-07-09T09:03:32Z</time>
      </trkpt>
      <trkpt lat="45.98937" lon="4.48736">
        <ele>419.5</ele>
        <time>2015-07-09T09:03:34Z</time>
      </trkpt>
      <trkpt lat="45.98939" lon="4.48723">
        <ele>421.2</ele>
        <time>2015-07-09T09:03:36Z</time>
      </trkpt>
      <trkpt lat="45.9894" lon="4.4871">
        <ele>421.9</ele>
        <time>2015-07-09T09:03:38Z</time>
      </trkpt>
      <trkpt lat="45.98941" lon="4.48698">
        <ele>422.6</ele>
        <time>2015-07-09T09:03:40Z</time>
      </trkpt>
      <trkpt lat="45.98941" lon="4.48681">
        <ele>423.4</ele>
        <time>2015-07-09T09:03:43Z</time>
      </trkpt>
      <trkpt lat="45.98941" lon="4.48665">
        <ele>424.1</ele>
        <time>2015-07-09T09:03:46Z</time>
      </trkpt>
      <trkpt lat="45.98941" lon="4.48648">
        <ele>424.8</ele>
        <time>2015-07-09T09:03:49Z</time>
      </trkpt>
      <trkpt lat="45.98941" lon="4.48632">
        <ele>426.2</ele>
        <time>2015-07-09T09:03:52Z</time>
      </trkpt>
      <trkpt lat="45.9894" lon="4.48614">
        <ele>426.9</ele>
        <time>2015-07-09T09:03:55Z</time>
      </trkpt>
      <trkpt lat="45.9894" lon="4.48597">
        <ele>427.6</ele>
        <time>2015-07-09T09:03:58Z</time>
      </trkpt>
      <trkpt lat="45.9894" lon="4.4858">
        <ele>428.4</ele>
        <time>2015-07-09T09:04:01Z</time>
      </trkpt>
      <trkpt lat="45.9894" lon="4.48563">
        <ele>429.1</ele>
        <time>2015-07-09T09:04:04Z</time>
      </trkpt>
      <trkpt lat="45.98941" lon="4.48549">
        <ele>429.8</ele>
        <time>2015-07-09T09:04:06Z</time>
      </trkpt>
      <trkpt lat="45.9894" lon="4.48536">
        <ele>430.5</ele>
        <time>2015-07-09T09:04:08Z</time>
      </trkpt>
      <trkpt lat="45.9894" lon="4.48524">
        <ele>431.6</ele>
        <time>2015-07-09T09:04:10Z</time>
      </trkpt>
      <trkpt lat="45.98939" lon="4.48508">
        <ele>432.8</ele>
        <time>2015-07-09T09:04:13Z</time>
      </trkpt>
      <trkpt lat="45.98935" lon="4.48496">
        <ele>434</ele>
        <time>2015-07-09T09:04:15Z</time>
      </trkpt>
      <trkpt lat="45.98931" lon="4.48485">
        <ele>435.2</ele>
        <time>2015-07-09T09:04:17Z</time>
      </trkpt>
      <trkpt lat="45.98928" lon="4.48474">
        <ele>435.7</ele>
        <time>2015-07-09T09:04:19Z</time>
      </trkpt>
      <trkpt lat="45.98924" lon="4.48463">
        <ele>437.3</ele>
        <time>2015-07-09T09:04:21Z</time>
      </trkpt>
      <trkpt lat="45.98917" lon="4.48448">
        <ele>438.8</ele>
        <time>2015-07-09T09:04:23Z</time>
      </trkpt>
      <trkpt lat="45.98911" lon="4.48433">
        <ele>440.2</ele>
        <time>2015-07-09T09:04:25Z</time>
      </trkpt>
      <trkpt lat="45.98906" lon="4.48413">
        <ele>441.5</ele>
        <time>2015-07-09T09:04:27Z</time>
      </trkpt>
      <trkpt lat="45.98902" lon="4.48395">
        <ele>442.9</ele>
        <time>2015-07-09T09:04:29Z</time>
      </trkpt>
      <trkpt lat="45.98896" lon="4.48377">
        <ele>444.3</ele>
        <time>2015-07-09T09:04:31Z</time>
      </trkpt>
      <trkpt lat="45.98888" lon="4.48362">
        <ele>445.1</ele>
        <time>2015-07-09T09:04:33Z</time>
      </trkpt>
      <trkpt lat="45.9888" lon="4.48349">
        <ele>445.9</ele>
        <time>2015-07-09T09:04:35Z</time>
      </trkpt>
      <trkpt lat="45.98871" lon="4.48336">
        <ele>446.7</ele>
        <time>2015-07-09T09:04:37Z</time>
      </trkpt>
      <trkpt lat="45.98867" lon="4.48323">
        <ele>447.5</ele>
        <time>2015-07-09T09:04:39Z</time>
      </trkpt>
      <trkpt lat="45.98859" lon="4.48316">
        <ele>448.2</ele>
        <time>2015-07-09T09:04:42Z</time>
      </trkpt>
      <trkpt lat="45.98854" lon="4.48329">
        <ele>447.8</ele>
        <time>2015-07-09T09:04:45Z</time>
      </trkpt>
      <trkpt lat="45.98856" lon="4.48344">
        <ele>447.5</ele>
        <time>2015-07-09T09:04:47Z</time>
      </trkpt>
      <trkpt lat="45.98855" lon="4.48363">
        <ele>447.3</ele>
        <time>2015-07-09T09:04:49Z</time>
      </trkpt>
      <trkpt lat="45.98854" lon="4.48381">
        <ele>446.7</ele>
        <time>2015-07-09T09:04:51Z</time>
      </trkpt>
      <trkpt lat="45.98857" lon="4.484">
        <ele>446.2</ele>
        <time>2015-07-09T09:04:53Z</time>
      </trkpt>
      <trkpt lat="45.98859" lon="4.4842">
        <ele>445.6</ele>
        <time>2015-07-09T09:04:55Z</time>
      </trkpt>
      <trkpt lat="45.98857" lon="4.48439">
        <ele>445.1</ele>
        <time>2015-07-09T09:04:57Z</time>
      </trkpt>
      <trkpt lat="45.98855" lon="4.48457">
        <ele>444.5</ele>
        <time>2015-07-09T09:04:59Z</time>
      </trkpt>
      <trkpt lat="45.98854" lon="4.48474">
        <ele>443.2</ele>
        <time>2015-07-09T09:05:01Z</time>
      </trkpt>
      <trkpt lat="45.98853" lon="4.4849">
        <ele>441.8</ele>
        <time>2015-07-09T09:05:03Z</time>
      </trkpt>
      <trkpt lat="45.98851" lon="4.48505">
        <ele>440.6</ele>
        <time>2015-07-09T09:05:05Z</time>
      </trkpt>
      <trkpt lat="45.9885" lon="4.48521">
        <ele>439.5</ele>
        <time>2015-07-09T09:05:07Z</time>
      </trkpt>
      <trkpt lat="45.98848" lon="4.48536">
        <ele>438.3</ele>
        <time>2015-07-09T09:05:09Z</time>
      </trkpt>
      <trkpt lat="45.98847" lon="4.48553">
        <ele>437.1</ele>
        <time>2015-07-09T09:05:11Z</time>
      </trkpt>
      <trkpt lat="45.98845" lon="4.48567">
        <ele>435.5</ele>
        <time>2015-07-09T09:05:13Z</time>
      </trkpt>
      <trkpt lat="45.98842" lon="4.48582">
        <ele>433.8</ele>
        <time>2015-07-09T09:05:15Z</time>
      </trkpt>
      <trkpt lat="45.9884" lon="4.48597">
        <ele>432.2</ele>
        <time>2015-07-09T09:05:17Z</time>
      </trkpt>
      <trkpt lat="45.98837" lon="4.4861">
        <ele>430.5</ele>
        <time>2015-07-09T09:05:19Z</time>
      </trkpt>
      <trkpt lat="45.98834" lon="4.48623">
        <ele>428.9</ele>
        <time>2015-07-09T09:05:21Z</time>
      </trkpt>
      <trkpt lat="45.98831" lon="4.48635">
        <ele>428.1</ele>
        <time>2015-07-09T09:05:23Z</time>
      </trkpt>
      <trkpt lat="45.98829" lon="4.48646">
        <ele>427.3</ele>
        <time>2015-07-09T09:05:25Z</time>
      </trkpt>
      <trkpt lat="45.98826" lon="4.48659">
        <ele>425.3</ele>
        <time>2015-07-09T09:05:27Z</time>
      </trkpt>
      <trkpt lat="45.98821" lon="4.48672">
        <ele>423.3</ele>
        <time>2015-07-09T09:05:29Z</time>
      </trkpt>
      <trkpt lat="45.98818" lon="4.48685">
        <ele>424</ele>
        <time>2015-07-09T09:05:31Z</time>
      </trkpt>
      <trkpt lat="45.98814" lon="4.48698">
        <ele>424.7</ele>
        <time>2015-07-09T09:05:33Z</time>
      </trkpt>
      <trkpt lat="45.98808" lon="4.48711">
        <ele>426.3</ele>
        <time>2015-07-09T09:05:35Z</time>
      </trkpt>
      <trkpt lat="45.98803" lon="4.48722">
        <ele>427.8</ele>
        <time>2015-07-09T09:05:37Z</time>
      </trkpt>
      <trkpt lat="45.98796" lon="4.48734">
        <ele>429.4</ele>
        <time>2015-07-09T09:05:40Z</time>
      </trkpt>
      <trkpt lat="45.9879" lon="4.48746">
        <ele>430.3</ele>
        <time>2015-07-09T09:05:43Z</time>
      </trkpt>
      <trkpt lat="45.98785" lon="4.48756">
        <ele>431.2</ele>
        <time>2015-07-09T09:05:45Z</time>
      </trkpt>
      <trkpt lat="45.98781" lon="4.48766">
        <ele>432.1</ele>
        <time>2015-07-09T09:05:47Z</time>
      </trkpt>
      <trkpt lat="45.98772" lon="4.48776">
        <ele>433</ele>
        <time>2015-07-09T09:05:49Z</time>
      </trkpt>
      <trkpt lat="45.98763" lon="4.48787">
        <ele>435.1</ele>
        <time>2015-07-09T09:05:51Z</time>
      </trkpt>
      <trkpt lat="45.9876" lon="4.48802">
        <ele>437.5</ele>
        <time>2015-07-09T09:05:53Z</time>
      </trkpt>
      <trkpt lat="45.98761" lon="4.48817">
        <ele>437.1</ele>
        <time>2015-07-09T09:05:55Z</time>
      </trkpt>
      <trkpt lat="45.98767" lon="4.48832">
        <ele>436.7</ele>
        <time>2015-07-09T09:05:57Z</time>
      </trkpt>
      <trkpt lat="45.98765" lon="4.48847">
        <ele>436.4</ele>
        <time>2015-07-09T09:05:59Z</time>
      </trkpt>
      <trkpt lat="45.98769" lon="4.48862">
        <ele>436</ele>
        <time>2015-07-09T09:06:01Z</time>
      </trkpt>
      <trkpt lat="45.98773" lon="4.48879">
        <ele>435.5</ele>
        <time>2015-07-09T09:06:03Z</time>
      </trkpt>
      <trkpt lat="45.98778" lon="4.48897">
        <ele>435.7</ele>
        <time>2015-07-09T09:06:05Z</time>
      </trkpt>
      <trkpt lat="45.9878" lon="4.48916">
        <ele>435.9</ele>
        <time>2015-07-09T09:06:07Z</time>
      </trkpt>
      <trkpt lat="45.98781" lon="4.48935">
        <ele>436.1</ele>
        <time>2015-07-09T09:06:09Z</time>
      </trkpt>
      <trkpt lat="45.98782" lon="4.48955">
        <ele>435.9</ele>
        <time>2015-07-09T09:06:11Z</time>
      </trkpt>
      <trkpt lat="45.98786" lon="4.48975">
        <ele>435.7</ele>
        <time>2015-07-09T09:06:13Z</time>
      </trkpt>
      <trkpt lat="45.98788" lon="4.48995">
        <ele>435.3</ele>
        <time>2015-07-09T09:06:15Z</time>
      </trkpt>
      <trkpt lat="45.98788" lon="4.49015">
        <ele>434.8</ele>
        <time>2015-07-09T09:06:17Z</time>
      </trkpt>
      <trkpt lat="45.98788" lon="4.49036">
        <ele>434.4</ele>
        <time>2015-07-09T09:06:19Z</time>
      </trkpt>
      <trkpt lat="45.98788" lon="4.49056">
        <ele>433.4</ele>
        <time>2015-07-09T09:06:21Z</time>
      </trkpt>
      <trkpt lat="45.98788" lon="4.49076">
        <ele>432.4</ele>
        <time>2015-07-09T09:06:23Z</time>
      </trkpt>
      <trkpt lat="45.98788" lon="4.49097">
        <ele>431.5</ele>
        <time>2015-07-09T09:06:25Z</time>
      </trkpt>
      <trkpt lat="45.98787" lon="4.49118">
        <ele>430.5</ele>
        <time>2015-07-09T09:06:27Z</time>
      </trkpt>
      <trkpt lat="45.98786" lon="4.49137">
        <ele>429.4</ele>
        <time>2015-07-09T09:06:29Z</time>
      </trkpt>
      <trkpt lat="45.98786" lon="4.49157">
        <ele>428.2</ele>
        <time>2015-07-09T09:06:31Z</time>
      </trkpt>
      <trkpt lat="45.98784" lon="4.49177">
        <ele>427.4</ele>
        <time>2015-07-09T09:06:33Z</time>
      </trkpt>
      <trkpt lat="45.98782" lon="4.49197">
        <ele>426.5</ele>
        <time>2015-07-09T09:06:35Z</time>
      </trkpt>
      <trkpt lat="45.9878" lon="4.49217">
        <ele>425.2</ele>
        <time>2015-07-09T09:06:37Z</time>
      </trkpt>
      <trkpt lat="45.98778" lon="4.49239">
        <ele>423.8</ele>
        <time>2015-07-09T09:06:39Z</time>
      </trkpt>
      <trkpt lat="45.98775" lon="4.49261">
        <ele>422.5</ele>
        <time>2015-07-09T09:06:41Z</time>
      </trkpt>
      <trkpt lat="45.98771" lon="4.49281">
        <ele>421.6</ele>
        <time>2015-07-09T09:06:43Z</time>
      </trkpt>
      <trkpt lat="45.98765" lon="4.493">
        <ele>419.5</ele>
        <time>2015-07-09T09:06:45Z</time>
      </trkpt>
      <trkpt lat="45.9876" lon="4.4932">
        <ele>417.3</ele>
        <time>2015-07-09T09:06:47Z</time>
      </trkpt>
      <trkpt lat="45.98753" lon="4.4934">
        <ele>415.1</ele>
        <time>2015-07-09T09:06:49Z</time>
      </trkpt>
      <trkpt lat="45.98751" lon="4.49351">
        <ele>413.2</ele>
        <time>2015-07-09T09:06:50Z</time>
      </trkpt>
      <trkpt lat="45.98745" lon="4.49371">
        <ele>409.9</ele>
        <time>2015-07-09T09:06:52Z</time>
      </trkpt>
      <trkpt lat="45.98739" lon="4.49393">
        <ele>406.6</ele>
        <time>2015-07-09T09:06:54Z</time>
      </trkpt>
      <trkpt lat="45.98733" lon="4.49413">
        <ele>403.4</ele>
        <time>2015-07-09T09:06:56Z</time>
      </trkpt>
      <trkpt lat="45.98726" lon="4.49435">
        <ele>400.6</ele>
        <time>2015-07-09T09:06:58Z</time>
      </trkpt>
      <trkpt lat="45.98721" lon="4.49456">
        <ele>397.9</ele>
        <time>2015-07-09T09:07:00Z</time>
      </trkpt>
      <trkpt lat="45.98718" lon="4.49468">
        <ele>394.9</ele>
        <time>2015-07-09T09:07:01Z</time>
      </trkpt>
      <trkpt lat="45.98716" lon="4.49479">
        <ele>391.9</ele>
        <time>2015-07-09T09:07:02Z</time>
      </trkpt>
      <trkpt lat="45.98714" lon="4.49502">
        <ele>390.3</ele>
        <time>2015-07-09T09:07:04Z</time>
      </trkpt>
      <trkpt lat="45.98713" lon="4.49515">
        <ele>388.6</ele>
        <time>2015-07-09T09:07:05Z</time>
      </trkpt>
      <trkpt lat="45.98712" lon="4.49538">
        <ele>386.6</ele>
        <time>2015-07-09T09:07:07Z</time>
      </trkpt>
      <trkpt lat="45.98712" lon="4.49561">
        <ele>384.6</ele>
        <time>2015-07-09T09:07:09Z</time>
      </trkpt>
      <trkpt lat="45.98714" lon="4.49583">
        <ele>384</ele>
        <time>2015-07-09T09:07:11Z</time>
      </trkpt>
      <trkpt lat="45.98716" lon="4.49603">
        <ele>383.4</ele>
        <time>2015-07-09T09:07:13Z</time>
      </trkpt>
      <trkpt lat="45.98717" lon="4.49621">
        <ele>382.7</ele>
        <time>2015-07-09T09:07:15Z</time>
      </trkpt>
      <trkpt lat="45.98718" lon="4.4964">
        <ele>384.5</ele>
        <time>2015-07-09T09:07:17Z</time>
      </trkpt>
      <trkpt lat="45.98717" lon="4.49656">
        <ele>386.4</ele>
        <time>2015-07-09T09:07:19Z</time>
      </trkpt>
      <trkpt lat="45.98716" lon="4.49671">
        <ele>388.5</ele>
        <time>2015-07-09T09:07:21Z</time>
      </trkpt>
      <trkpt lat="45.98713" lon="4.49687">
        <ele>390.5</ele>
        <time>2015-07-09T09:07:23Z</time>
      </trkpt>
      <trkpt lat="45.98711" lon="4.49702">
        <ele>392.6</ele>
        <time>2015-07-09T09:07:25Z</time>
      </trkpt>
      <trkpt lat="45.98709" lon="4.49714">
        <ele>394.7</ele>
        <time>2015-07-09T09:07:27Z</time>
      </trkpt>
      <trkpt lat="45.98709" lon="4.49729">
        <ele>396.5</ele>
        <time>2015-07-09T09:07:29Z</time>
      </trkpt>
      <trkpt lat="45.98708" lon="4.49744">
        <ele>398.4</ele>
        <time>2015-07-09T09:07:32Z</time>
      </trkpt>
      <trkpt lat="45.98706" lon="4.49759">
        <ele>400.2</ele>
        <time>2015-07-09T09:07:35Z</time>
      </trkpt>
      <trkpt lat="45.98703" lon="4.49773">
        <ele>402</ele>
        <time>2015-07-09T09:07:38Z</time>
      </trkpt>
      <trkpt lat="45.98699" lon="4.49789">
        <ele>403.8</ele>
        <time>2015-07-09T09:07:41Z</time>
      </trkpt>
      <trkpt lat="45.98696" lon="4.498">
        <ele>403.2</ele>
        <time>2015-07-09T09:07:43Z</time>
      </trkpt>
      <trkpt lat="45.98691" lon="4.49814">
        <ele>402.5</ele>
        <time>2015-07-09T09:07:45Z</time>
      </trkpt>
      <trkpt lat="45.98686" lon="4.49826">
        <ele>401.9</ele>
        <time>2015-07-09T09:07:47Z</time>
      </trkpt>
      <trkpt lat="45.98678" lon="4.49836">
        <ele>399.9</ele>
        <time>2015-07-09T09:07:49Z</time>
      </trkpt>
      <trkpt lat="45.98669" lon="4.49844">
        <ele>397.9</ele>
        <time>2015-07-09T09:07:51Z</time>
      </trkpt>
      <trkpt lat="45.98658" lon="4.49851">
        <ele>395.5</ele>
        <time>2015-07-09T09:07:53Z</time>
      </trkpt>
      <trkpt lat="45.98648" lon="4.49857">
        <ele>393.8</ele>
        <time>2015-07-09T09:07:55Z</time>
      </trkpt>
      <trkpt lat="45.98642" lon="4.49865">
        <ele>392.1</ele>
        <time>2015-07-09T09:07:57Z</time>
      </trkpt>
      <trkpt lat="45.98636" lon="4.4988">
        <ele>390.4</ele>
        <time>2015-07-09T09:07:59Z</time>
      </trkpt>
      <trkpt lat="45.9863" lon="4.49899">
        <ele>388.6</ele>
        <time>2015-07-09T09:08:01Z</time>
      </trkpt>
      <trkpt lat="45.98625" lon="4.4991">
        <ele>386.6</ele>
        <time>2015-07-09T09:08:02Z</time>
      </trkpt>
      <trkpt lat="45.98619" lon="4.49921">
        <ele>384.6</ele>
        <time>2015-07-09T09:08:03Z</time>
      </trkpt>
      <trkpt lat="45.98613" lon="4.49932">
        <ele>382.6</ele>
        <time>2015-07-09T09:08:04Z</time>
      </trkpt>
      <trkpt lat="45.98607" lon="4.49946">
        <ele>380.6</ele>
        <time>2015-07-09T09:08:05Z</time>
      </trkpt>
      <trkpt lat="45.98603" lon="4.4996">
        <ele>380</ele>
        <time>2015-07-09T09:08:06Z</time>
      </trkpt>
      <trkpt lat="45.98599" lon="4.49975">
        <ele>379.3</ele>
        <time>2015-07-09T09:08:07Z</time>
      </trkpt>
      <trkpt lat="45.98596" lon="4.4999">
        <ele>378.9</ele>
        <time>2015-07-09T09:08:08Z</time>
      </trkpt>
      <trkpt lat="45.98593" lon="4.50005">
        <ele>378.5</ele>
        <time>2015-07-09T09:08:09Z</time>
      </trkpt>
      <trkpt lat="45.98589" lon="4.5002">
        <ele>378.2</ele>
        <time>2015-07-09T09:08:10Z</time>
      </trkpt>
      <trkpt lat="45.98586" lon="4.50035">
        <ele>377.8</ele>
        <time>2015-07-09T09:08:11Z</time>
      </trkpt>
      <trkpt lat="45.98583" lon="4.5005">
        <ele>377.5</ele>
        <time>2015-07-09T09:08:12Z</time>
      </trkpt>
      <trkpt lat="45.9858" lon="4.50064">
        <ele>377.4</ele>
        <time>2015-07-09T09:08:13Z</time>
      </trkpt>
      <trkpt lat="45.98576" lon="4.50076">
        <ele>377.2</ele>
        <time>2015-07-09T09:08:14Z</time>
      </trkpt>
      <trkpt lat="45.98573" lon="4.50089">
        <ele>377</ele>
        <time>2015-07-09T09:08:15Z</time>
      </trkpt>
      <trkpt lat="45.9857" lon="4.50103">
        <ele>376.8</ele>
        <time>2015-07-09T09:08:16Z</time>
      </trkpt>
      <trkpt lat="45.98567" lon="4.50116">
        <ele>375.7</ele>
        <time>2015-07-09T09:08:17Z</time>
      </trkpt>
      <trkpt lat="45.98563" lon="4.50128">
        <ele>374.7</ele>
        <time>2015-07-09T09:08:18Z</time>
      </trkpt>
      <trkpt lat="45.9856" lon="4.50139">
        <ele>373.3</ele>
        <time>2015-07-09T09:08:19Z</time>
      </trkpt>
      <trkpt lat="45.98556" lon="4.50157">
        <ele>371.8</ele>
        <time>2015-07-09T09:08:21Z</time>
      </trkpt>
      <trkpt lat="45.98551" lon="4.50168">
        <ele>370.4</ele>
        <time>2015-07-09T09:08:23Z</time>
      </trkpt>
      <trkpt lat="45.98542" lon="4.50168">
        <ele>368.9</ele>
        <time>2015-07-09T09:08:26Z</time>
      </trkpt>
      <trkpt lat="45.98537" lon="4.50153">
        <ele>367.5</ele>
        <time>2015-07-09T09:08:29Z</time>
      </trkpt>
      <trkpt lat="45.98536" lon="4.50137">
        <ele>366</ele>
        <time>2015-07-09T09:08:31Z</time>
      </trkpt>
      <trkpt lat="45.98535" lon="4.5012">
        <ele>364.6</ele>
        <time>2015-07-09T09:08:33Z</time>
      </trkpt>
      <trkpt lat="45.98536" lon="4.50102">
        <ele>363.3</ele>
        <time>2015-07-09T09:08:35Z</time>
      </trkpt>
      <trkpt lat="45.98537" lon="4.50079">
        <ele>361.9</ele>
        <time>2015-07-09T09:08:37Z</time>
      </trkpt>
      <trkpt lat="45.98537" lon="4.50055">
        <ele>361.5</ele>
        <time>2015-07-09T09:08:39Z</time>
      </trkpt>
      <trkpt lat="45.98537" lon="4.50043">
        <ele>361</ele>
        <time>2015-07-09T09:08:40Z</time>
      </trkpt>
      <trkpt lat="45.98537" lon="4.5002">
        <ele>361</ele>
        <time>2015-07-09T09:08:42Z</time>
      </trkpt>
      <trkpt lat="45.98536" lon="4.49997">
        <ele>361</ele>
        <time>2015-07-09T09:08:44Z</time>
      </trkpt>
      <trkpt lat="45.98536" lon="4.49984">
        <ele>361</ele>
        <time>2015-07-09T09:08:45Z</time>
      </trkpt>
      <trkpt lat="45.98536" lon="4.49971">
        <ele>361</ele>
        <time>2015-07-09T09:08:46Z</time>
      </trkpt>
      <trkpt lat="45.98534" lon="4.49959">
        <ele>361.5</ele>
        <time>2015-07-09T09:08:47Z</time>
      </trkpt>
      <trkpt lat="45.98534" lon="4.49946">
        <ele>361.9</ele>
        <time>2015-07-09T09:08:48Z</time>
      </trkpt>
      <trkpt lat="45.98534" lon="4.49926">
        <ele>362.4</ele>
        <time>2015-07-09T09:08:50Z</time>
      </trkpt>
      <trkpt lat="45.98535" lon="4.49906">
        <ele>362.8</ele>
        <time>2015-07-09T09:08:52Z</time>
      </trkpt>
      <trkpt lat="45.98534" lon="4.49888">
        <ele>363.3</ele>
        <time>2015-07-09T09:08:54Z</time>
      </trkpt>
      <trkpt lat="45.98533" lon="4.49875">
        <ele>363.7</ele>
        <time>2015-07-09T09:08:56Z</time>
      </trkpt>
      <trkpt lat="45.98532" lon="4.4986">
        <ele>364.9</ele>
        <time>2015-07-09T09:08:59Z</time>
      </trkpt>
      <trkpt lat="45.98529" lon="4.49848">
        <ele>366.1</ele>
        <time>2015-07-09T09:09:02Z</time>
      </trkpt>
      <trkpt lat="45.98527" lon="4.49834">
        <ele>367.3</ele>
        <time>2015-07-09T09:09:06Z</time>
      </trkpt>
      <trkpt lat="45.98525" lon="4.49821">
        <ele>368.5</ele>
        <time>2015-07-09T09:09:10Z</time>
      </trkpt>
      <trkpt lat="45.98522" lon="4.49807">
        <ele>369.6</ele>
        <time>2015-07-09T09:09:14Z</time>
      </trkpt>
      <trkpt lat="45.98519" lon="4.49795">
        <ele>370.4</ele>
        <time>2015-07-09T09:09:18Z</time>
      </trkpt>
      <trkpt lat="45.98517" lon="4.49783">
        <ele>371.1</ele>
        <time>2015-07-09T09:09:22Z</time>
      </trkpt>
      <trkpt lat="45.98515" lon="4.49772">
        <ele>372.9</ele>
        <time>2015-07-09T09:09:26Z</time>
      </trkpt>
      <trkpt lat="45.98513" lon="4.49759">
        <ele>374.7</ele>
        <time>2015-07-09T09:09:30Z</time>
      </trkpt>
      <trkpt lat="45.98512" lon="4.49747">
        <ele>376.5</ele>
        <time>2015-07-09T09:09:34Z</time>
      </trkpt>
      <trkpt lat="45.9851" lon="4.49735">
        <ele>378.4</ele>
        <time>2015-07-09T09:09:38Z</time>
      </trkpt>
      <trkpt lat="45.98509" lon="4.49722">
        <ele>379.5</ele>
        <time>2015-07-09T09:09:42Z</time>
      </trkpt>
      <trkpt lat="45.98509" lon="4.4971">
        <ele>380.5</ele>
        <time>2015-07-09T09:09:46Z</time>
      </trkpt>
      <trkpt lat="45.98507" lon="4.49699">
        <ele>381.6</ele>
        <time>2015-07-09T09:09:50Z</time>
      </trkpt>
      <trkpt lat="45.98506" lon="4.49687">
        <ele>383.9</ele>
        <time>2015-07-09T09:09:54Z</time>
      </trkpt>
      <trkpt lat="45.98504" lon="4.49675">
        <ele>386.2</ele>
        <time>2015-07-09T09:09:58Z</time>
      </trkpt>
      <trkpt lat="45.98502" lon="4.49662">
        <ele>388.5</ele>
        <time>2015-07-09T09:10:02Z</time>
      </trkpt>
      <trkpt lat="45.985" lon="4.4965">
        <ele>390.7</ele>
        <time>2015-07-09T09:10:06Z</time>
      </trkpt>
      <trkpt lat="45.98498" lon="4.49638">
        <ele>391.9</ele>
        <time>2015-07-09T09:10:10Z</time>
      </trkpt>
      <trkpt lat="45.98495" lon="4.49627">
        <ele>393.1</ele>
        <time>2015-07-09T09:10:14Z</time>
      </trkpt>
      <trkpt lat="45.98494" lon="4.49615">
        <ele>394.3</ele>
        <time>2015-07-09T09:10:18Z</time>
      </trkpt>
      <trkpt lat="45.98493" lon="4.49604">
        <ele>395.9</ele>
        <time>2015-07-09T09:10:22Z</time>
      </trkpt>
      <trkpt lat="45.98493" lon="4.49592">
        <ele>397.5</ele>
        <time>2015-07-09T09:10:26Z</time>
      </trkpt>
      <trkpt lat="45.98491" lon="4.49579">
        <ele>399.2</ele>
        <time>2015-07-09T09:10:30Z</time>
      </trkpt>
      <trkpt lat="45.98488" lon="4.49567">
        <ele>400.8</ele>
        <time>2015-07-09T09:10:34Z</time>
      </trkpt>
      <trkpt lat="45.98485" lon="4.49555">
        <ele>401.3</ele>
        <time>2015-07-09T09:10:38Z</time>
      </trkpt>
      <trkpt lat="45.98485" lon="4.49543">
        <ele>401.7</ele>
        <time>2015-07-09T09:10:42Z</time>
      </trkpt>
      <trkpt lat="45.98484" lon="4.4953">
        <ele>402.7</ele>
        <time>2015-07-09T09:10:46Z</time>
      </trkpt>
      <trkpt lat="45.98484" lon="4.49517">
        <ele>403.7</ele>
        <time>2015-07-09T09:10:50Z</time>
      </trkpt>
      <trkpt lat="45.98483" lon="4.49504">
        <ele>404.7</ele>
        <time>2015-07-09T09:10:54Z</time>
      </trkpt>
      <trkpt lat="45.98482" lon="4.49491">
        <ele>405.7</ele>
        <time>2015-07-09T09:10:58Z</time>
      </trkpt>
      <trkpt lat="45.98481" lon="4.49479">
        <ele>406.7</ele>
        <time>2015-07-09T09:11:02Z</time>
      </trkpt>
      <trkpt lat="45.98479" lon="4.49466">
        <ele>407.3</ele>
        <time>2015-07-09T09:11:06Z</time>
      </trkpt>
      <trkpt lat="45.98477" lon="4.49454">
        <ele>407.8</ele>
        <time>2015-07-09T09:11:10Z</time>
      </trkpt>
      <trkpt lat="45.98476" lon="4.49441">
        <ele>409.5</ele>
        <time>2015-07-09T09:11:14Z</time>
      </trkpt>
      <trkpt lat="45.98475" lon="4.49428">
        <ele>408.8</ele>
        <time>2015-07-09T09:11:18Z</time>
      </trkpt>
      <trkpt lat="45.98473" lon="4.49416">
        <ele>408.1</ele>
        <time>2015-07-09T09:11:22Z</time>
      </trkpt>
      <trkpt lat="45.98471" lon="4.49403">
        <ele>407.4</ele>
        <time>2015-07-09T09:11:26Z</time>
      </trkpt>
      <trkpt lat="45.98469" lon="4.4939">
        <ele>406.1</ele>
        <time>2015-07-09T09:11:30Z</time>
      </trkpt>
      <trkpt lat="45.98466" lon="4.49378">
        <ele>404.8</ele>
        <time>2015-07-09T09:11:34Z</time>
      </trkpt>
      <trkpt lat="45.98463" lon="4.49365">
        <ele>404.2</ele>
        <time>2015-07-09T09:11:38Z</time>
      </trkpt>
      <trkpt lat="45.9846" lon="4.49353">
        <ele>403.5</ele>
        <time>2015-07-09T09:11:42Z</time>
      </trkpt>
      <trkpt lat="45.98459" lon="4.4934">
        <ele>402.9</ele>
        <time>2015-07-09T09:11:46Z</time>
      </trkpt>
      <trkpt lat="45.98457" lon="4.49328">
        <ele>402.3</ele>
        <time>2015-07-09T09:11:50Z</time>
      </trkpt>
      <trkpt lat="45.98456" lon="4.49315">
        <ele>401.6</ele>
        <time>2015-07-09T09:11:54Z</time>
      </trkpt>
      <trkpt lat="45.98455" lon="4.49302">
        <ele>399.8</ele>
        <time>2015-07-09T09:11:58Z</time>
      </trkpt>
      <trkpt lat="45.98454" lon="4.49289">
        <ele>400.5</ele>
        <time>2015-07-09T09:12:02Z</time>
      </trkpt>
      <trkpt lat="45.98453" lon="4.49277">
        <ele>401.8</ele>
        <time>2015-07-09T09:12:06Z</time>
      </trkpt>
      <trkpt lat="45.98451" lon="4.49265">
        <ele>403.2</ele>
        <time>2015-07-09T09:12:10Z</time>
      </trkpt>
      <trkpt lat="45.98449" lon="4.49252">
        <ele>404.5</ele>
        <time>2015-07-09T09:12:14Z</time>
      </trkpt>
      <trkpt lat="45.98446" lon="4.49241">
        <ele>405.9</ele>
        <time>2015-07-09T09:12:18Z</time>
      </trkpt>
      <trkpt lat="45.98443" lon="4.49229">
        <ele>406.6</ele>
        <time>2015-07-09T09:12:22Z</time>
      </trkpt>
      <trkpt lat="45.98441" lon="4.49218">
        <ele>407.4</ele>
        <time>2015-07-09T09:12:26Z</time>
      </trkpt>
      <trkpt lat="45.98438" lon="4.49206">
        <ele>408.1</ele>
        <time>2015-07-09T09:12:31Z</time>
      </trkpt>
      <trkpt lat="45.98433" lon="4.49193">
        <ele>410.1</ele>
        <time>2015-07-09T09:12:36Z</time>
      </trkpt>
      <trkpt lat="45.98429" lon="4.49181">
        <ele>412.1</ele>
        <time>2015-07-09T09:12:41Z</time>
      </trkpt>
      <trkpt lat="45.98425" lon="4.49168">
        <ele>414.1</ele>
        <time>2015-07-09T09:12:46Z</time>
      </trkpt>
      <trkpt lat="45.98423" lon="4.49155">
        <ele>416.1</ele>
        <time>2015-07-09T09:12:51Z</time>
      </trkpt>
      <trkpt lat="45.98421" lon="4.49143">
        <ele>417.4</ele>
        <time>2015-07-09T09:12:55Z</time>
      </trkpt>
      <trkpt lat="45.98418" lon="4.49131">
        <ele>418.6</ele>
        <time>2015-07-09T09:12:59Z</time>
      </trkpt>
      <trkpt lat="45.98415" lon="4.4912">
        <ele>419.9</ele>
        <time>2015-07-09T09:13:03Z</time>
      </trkpt>
      <trkpt lat="45.98412" lon="4.49108">
        <ele>421.2</ele>
        <time>2015-07-09T09:13:07Z</time>
      </trkpt>
      <trkpt lat="45.98409" lon="4.49097">
        <ele>423.9</ele>
        <time>2015-07-09T09:13:11Z</time>
      </trkpt>
      <trkpt lat="45.98406" lon="4.49086">
        <ele>426.6</ele>
        <time>2015-07-09T09:13:15Z</time>
      </trkpt>
      <trkpt lat="45.98403" lon="4.49075">
        <ele>429.4</ele>
        <time>2015-07-09T09:13:19Z</time>
      </trkpt>
      <trkpt lat="45.98401" lon="4.49062">
        <ele>430.8</ele>
        <time>2015-07-09T09:13:23Z</time>
      </trkpt>
      <trkpt lat="45.98398" lon="4.4905">
        <ele>432.3</ele>
        <time>2015-07-09T09:13:27Z</time>
      </trkpt>
      <trkpt lat="45.98395" lon="4.49038">
        <ele>433.7</ele>
        <time>2015-07-09T09:13:31Z</time>
      </trkpt>
      <trkpt lat="45.98393" lon="4.49026">
        <ele>435.2</ele>
        <time>2015-07-09T09:13:35Z</time>
      </trkpt>
      <trkpt lat="45.98392" lon="4.49013">
        <ele>434.9</ele>
        <time>2015-07-09T09:13:39Z</time>
      </trkpt>
      <trkpt lat="45.9839" lon="4.49002">
        <ele>434.6</ele>
        <time>2015-07-09T09:13:43Z</time>
      </trkpt>
      <trkpt lat="45.98388" lon="4.4899">
        <ele>434.4</ele>
        <time>2015-07-09T09:13:47Z</time>
      </trkpt>
      <trkpt lat="45.98385" lon="4.48979">
        <ele>434.1</ele>
        <time>2015-07-09T09:13:51Z</time>
      </trkpt>
      <trkpt lat="45.98382" lon="4.48968">
        <ele>432.4</ele>
        <time>2015-07-09T09:13:55Z</time>
      </trkpt>
      <trkpt lat="45.98379" lon="4.48957">
        <ele>430.6</ele>
        <time>2015-07-09T09:13:59Z</time>
      </trkpt>
      <trkpt lat="45.98376" lon="4.48946">
        <ele>428.9</ele>
        <time>2015-07-09T09:14:03Z</time>
      </trkpt>
      <trkpt lat="45.98373" lon="4.48934">
        <ele>428.1</ele>
        <time>2015-07-09T09:14:07Z</time>
      </trkpt>
      <trkpt lat="45.9837" lon="4.48921">
        <ele>427.3</ele>
        <time>2015-07-09T09:14:11Z</time>
      </trkpt>
      <trkpt lat="45.98367" lon="4.4891">
        <ele>426.5</ele>
        <time>2015-07-09T09:14:15Z</time>
      </trkpt>
      <trkpt lat="45.98364" lon="4.48896">
        <ele>425.6</ele>
        <time>2015-07-09T09:14:20Z</time>
      </trkpt>
      <trkpt lat="45.9836" lon="4.48883">
        <ele>426.5</ele>
        <time>2015-07-09T09:14:25Z</time>
      </trkpt>
      <trkpt lat="45.98357" lon="4.48871">
        <ele>427.5</ele>
        <time>2015-07-09T09:14:30Z</time>
      </trkpt>
      <trkpt lat="45.98353" lon="4.48861">
        <ele>428.4</ele>
        <time>2015-07-09T09:14:35Z</time>
      </trkpt>
      <trkpt lat="45.98352" lon="4.48848">
        <ele>430.2</ele>
        <time>2015-07-09T09:14:41Z</time>
      </trkpt>
      <trkpt lat="45.98349" lon="4.48834">
        <ele>432</ele>
        <time>2015-07-09T09:14:47Z</time>
      </trkpt>
      <trkpt lat="45.98344" lon="4.48824">
        <ele>433.8</ele>
        <time>2015-07-09T09:14:51Z</time>
      </trkpt>
      <trkpt lat="45.9834" lon="4.48813">
        <ele>435.6</ele>
        <time>2015-07-09T09:14:55Z</time>
      </trkpt>
      <trkpt lat="45.98338" lon="4.48799">
        <ele>436.5</ele>
        <time>2015-07-09T09:15:00Z</time>
      </trkpt>
      <trkpt lat="45.98337" lon="4.48787">
        <ele>437.5</ele>
        <time>2015-07-09T09:15:05Z</time>
      </trkpt>
      <trkpt lat="45.98336" lon="4.48774">
        <ele>438.3</ele>
        <time>2015-07-09T09:15:10Z</time>
      </trkpt>
      <trkpt lat="45.98338" lon="4.4876">
        <ele>439.1</ele>
        <time>2015-07-09T09:15:15Z</time>
      </trkpt>
      <trkpt lat="45.98339" lon="4.48747">
        <ele>439.9</ele>
        <time>2015-07-09T09:15:20Z</time>
      </trkpt>
      <trkpt lat="45.98338" lon="4.48734">
        <ele>440.7</ele>
        <time>2015-07-09T09:15:25Z</time>
      </trkpt>
      <trkpt lat="45.98339" lon="4.48721">
        <ele>441.5</ele>
        <time>2015-07-09T09:15:31Z</time>
      </trkpt>
      <trkpt lat="45.9834" lon="4.48707">
        <ele>441.5</ele>
        <time>2015-07-09T09:15:37Z</time>
      </trkpt>
      <trkpt lat="45.98343" lon="4.48696">
        <ele>441.4</ele>
        <time>2015-07-09T09:15:42Z</time>
      </trkpt>
      <trkpt lat="45.98347" lon="4.48684">
        <ele>441.3</ele>
        <time>2015-07-09T09:15:47Z</time>
      </trkpt>
      <trkpt lat="45.98354" lon="4.48673">
        <ele>443.7</ele>
        <time>2015-07-09T09:15:52Z</time>
      </trkpt>
      <trkpt lat="45.98361" lon="4.48664">
        <ele>443.8</ele>
        <time>2015-07-09T09:15:56Z</time>
      </trkpt>
      <trkpt lat="45.98368" lon="4.48655">
        <ele>443.9</ele>
        <time>2015-07-09T09:16:01Z</time>
      </trkpt>
      <trkpt lat="45.98374" lon="4.48647">
        <ele>444.1</ele>
        <time>2015-07-09T09:16:06Z</time>
      </trkpt>
      <trkpt lat="45.98379" lon="4.48636">
        <ele>444.3</ele>
        <time>2015-07-09T09:16:11Z</time>
      </trkpt>
      <trkpt lat="45.98381" lon="4.48624">
        <ele>444.5</ele>
        <time>2015-07-09T09:16:16Z</time>
      </trkpt>
      <trkpt lat="45.9838" lon="4.48611">
        <ele>444.6</ele>
        <time>2015-07-09T09:16:21Z</time>
      </trkpt>
      <trkpt lat="45.9838" lon="4.48597">
        <ele>444.8</ele>
        <time>2015-07-09T09:16:27Z</time>
      </trkpt>
      <trkpt lat="45.98378" lon="4.48585">
        <ele>445</ele>
        <time>2015-07-09T09:16:32Z</time>
      </trkpt>
      <trkpt lat="45.98377" lon="4.48572">
        <ele>445.2</ele>
        <time>2015-07-09T09:16:37Z</time>
      </trkpt>
      <trkpt lat="45.98374" lon="4.4856">
        <ele>445.4</ele>
        <time>2015-07-09T09:16:42Z</time>
      </trkpt>
      <trkpt lat="45.98373" lon="4.48547">
        <ele>443</ele>
        <time>2015-07-09T09:16:48Z</time>
      </trkpt>
      <trkpt lat="45.98373" lon="4.48534">
        <ele>446.4</ele>
        <time>2015-07-09T09:16:54Z</time>
      </trkpt>
      <trkpt lat="45.98375" lon="4.48521">
        <ele>449.7</ele>
        <time>2015-07-09T09:16:59Z</time>
      </trkpt>
      <trkpt lat="45.98377" lon="4.48507">
        <ele>453.1</ele>
        <time>2015-07-09T09:17:04Z</time>
      </trkpt>
      <trkpt lat="45.98378" lon="4.48493">
        <ele>456.5</ele>
        <time>2015-07-09T09:17:09Z</time>
      </trkpt>
      <trkpt lat="45.9838" lon="4.4848">
        <ele>459.8</ele>
        <time>2015-07-09T09:17:14Z</time>
      </trkpt>
      <trkpt lat="45.98382" lon="4.48467">
        <ele>463.2</ele>
        <time>2015-07-09T09:17:19Z</time>
      </trkpt>
      <trkpt lat="45.98384" lon="4.48454">
        <ele>466.5</ele>
        <time>2015-07-09T09:17:24Z</time>
      </trkpt>
      <trkpt lat="45.98385" lon="4.48441">
        <ele>470.2</ele>
        <time>2015-07-09T09:17:29Z</time>
      </trkpt>
      <trkpt lat="45.98387" lon="4.48427">
        <ele>473.8</ele>
        <time>2015-07-09T09:17:34Z</time>
      </trkpt>
      <trkpt lat="45.98388" lon="4.48415">
        <ele>477.5</ele>
        <time>2015-07-09T09:17:38Z</time>
      </trkpt>
      <trkpt lat="45.9839" lon="4.48404">
        <ele>481.1</ele>
        <time>2015-07-09T09:17:42Z</time>
      </trkpt>
      <trkpt lat="45.98393" lon="4.48392">
        <ele>481.4</ele>
        <time>2015-07-09T09:17:46Z</time>
      </trkpt>
      <trkpt lat="45.98394" lon="4.48379">
        <ele>481.6</ele>
        <time>2015-07-09T09:17:51Z</time>
      </trkpt>
      <trkpt lat="45.98394" lon="4.48367">
        <ele>481.9</ele>
        <time>2015-07-09T09:17:56Z</time>
      </trkpt>
      <trkpt lat="45.98392" lon="4.48354">
        <ele>482.4</ele>
        <time>2015-07-09T09:18:02Z</time>
      </trkpt>
      <trkpt lat="45.98391" lon="4.4834">
        <ele>482.8</ele>
        <time>2015-07-09T09:18:07Z</time>
      </trkpt>
      <trkpt lat="45.9839" lon="4.48328">
        <ele>483.3</ele>
        <time>2015-07-09T09:18:11Z</time>
      </trkpt>
      <trkpt lat="45.98389" lon="4.48316">
        <ele>483.7</ele>
        <time>2015-07-09T09:18:15Z</time>
      </trkpt>
      <trkpt lat="45.98389" lon="4.48304">
        <ele>483.9</ele>
        <time>2015-07-09T09:18:19Z</time>
      </trkpt>
      <trkpt lat="45.9839" lon="4.4829">
        <ele>484.1</ele>
        <time>2015-07-09T09:18:24Z</time>
      </trkpt>
      <trkpt lat="45.9839" lon="4.48276">
        <ele>485.3</ele>
        <time>2015-07-09T09:18:29Z</time>
      </trkpt>
      <trkpt lat="45.98392" lon="4.48262">
        <ele>484.5</ele>
        <time>2015-07-09T09:18:34Z</time>
      </trkpt>
      <trkpt lat="45.98393" lon="4.48249">
        <ele>483.8</ele>
        <time>2015-07-09T09:18:39Z</time>
      </trkpt>
      <trkpt lat="45.98391" lon="4.48237">
        <ele>483.1</ele>
        <time>2015-07-09T09:18:44Z</time>
      </trkpt>
      <trkpt lat="45.98389" lon="4.48224">
        <ele>482.4</ele>
        <time>2015-07-09T09:18:49Z</time>
      </trkpt>
      <trkpt lat="45.98384" lon="4.48212">
        <ele>481.5</ele>
        <time>2015-07-09T09:18:55Z</time>
      </trkpt>
      <trkpt lat="45.98381" lon="4.48201">
        <ele>480.5</ele>
        <time>2015-07-09T09:19:00Z</time>
      </trkpt>
      <trkpt lat="45.98376" lon="4.4819">
        <ele>479.6</ele>
        <time>2015-07-09T09:19:05Z</time>
      </trkpt>
      <trkpt lat="45.98372" lon="4.48179">
        <ele>481.1</ele>
        <time>2015-07-09T09:19:10Z</time>
      </trkpt>
      <trkpt lat="45.98367" lon="4.48169">
        <ele>482.5</ele>
        <time>2015-07-09T09:19:15Z</time>
      </trkpt>
      <trkpt lat="45.98362" lon="4.48159">
        <ele>484</ele>
        <time>2015-07-09T09:19:20Z</time>
      </trkpt>
      <trkpt lat="45.98355" lon="4.48152">
        <ele>484.5</ele>
        <time>2015-07-09T09:19:25Z</time>
      </trkpt>
      <trkpt lat="45.98349" lon="4.48143">
        <ele>486.8</ele>
        <time>2015-07-09T09:19:30Z</time>
      </trkpt>
      <trkpt lat="45.98341" lon="4.48137">
        <ele>489.2</ele>
        <time>2015-07-09T09:19:37Z</time>
      </trkpt>
      <trkpt lat="45.98333" lon="4.48132">
        <ele>491.5</ele>
        <time>2015-07-09T09:19:42Z</time>
      </trkpt>
      <trkpt lat="45.98325" lon="4.48125">
        <ele>492.9</ele>
        <time>2015-07-09T09:19:47Z</time>
      </trkpt>
      <trkpt lat="45.98317" lon="4.4812">
        <ele>494.3</ele>
        <time>2015-07-09T09:19:52Z</time>
      </trkpt>
      <trkpt lat="45.98309" lon="4.48115">
        <ele>495.6</ele>
        <time>2015-07-09T09:19:57Z</time>
      </trkpt>
      <trkpt lat="45.98301" lon="4.48108">
        <ele>497</ele>
        <time>2015-07-09T09:20:01Z</time>
      </trkpt>
      <trkpt lat="45.98294" lon="4.48101">
        <ele>496</ele>
        <time>2015-07-09T09:20:05Z</time>
      </trkpt>
      <trkpt lat="45.98286" lon="4.48095">
        <ele>495</ele>
        <time>2015-07-09T09:20:10Z</time>
      </trkpt>
      <trkpt lat="45.98278" lon="4.48088">
        <ele>494</ele>
        <time>2015-07-09T09:20:14Z</time>
      </trkpt>
      <trkpt lat="45.98271" lon="4.48081">
        <ele>493</ele>
        <time>2015-07-09T09:20:18Z</time>
      </trkpt>
      <trkpt lat="45.98262" lon="4.48074">
        <ele>494.2</ele>
        <time>2015-07-09T09:20:23Z</time>
      </trkpt>
      <trkpt lat="45.98255" lon="4.48067">
        <ele>495.4</ele>
        <time>2015-07-09T09:20:27Z</time>
      </trkpt>
      <trkpt lat="45.98247" lon="4.48058">
        <ele>496.5</ele>
        <time>2015-07-09T09:20:32Z</time>
      </trkpt>
      <trkpt lat="45.9824" lon="4.48051">
        <ele>496.9</ele>
        <time>2015-07-09T09:20:37Z</time>
      </trkpt>
      <trkpt lat="45.98233" lon="4.48044">
        <ele>497.3</ele>
        <time>2015-07-09T09:20:42Z</time>
      </trkpt>
      <trkpt lat="45.98226" lon="4.48036">
        <ele>497.6</ele>
        <time>2015-07-09T09:20:47Z</time>
      </trkpt>
      <trkpt lat="45.98219" lon="4.48028">
        <ele>498</ele>
        <time>2015-07-09T09:20:52Z</time>
      </trkpt>
      <trkpt lat="45.98212" lon="4.4802">
        <ele>498.4</ele>
        <time>2015-07-09T09:20:57Z</time>
      </trkpt>
      <trkpt lat="45.98205" lon="4.48012">
        <ele>498.7</ele>
        <time>2015-07-09T09:21:02Z</time>
      </trkpt>
      <trkpt lat="45.98198" lon="4.48004">
        <ele>500.9</ele>
        <time>2015-07-09T09:21:07Z</time>
      </trkpt>
      <trkpt lat="45.98191" lon="4.47995">
        <ele>503.1</ele>
        <time>2015-07-09T09:21:12Z</time>
      </trkpt>
      <trkpt lat="45.98185" lon="4.47986">
        <ele>503.1</ele>
        <time>2015-07-09T09:21:17Z</time>
      </trkpt>
      <trkpt lat="45.98178" lon="4.47977">
        <ele>503.1</ele>
        <time>2015-07-09T09:21:22Z</time>
      </trkpt>
      <trkpt lat="45.98172" lon="4.47968">
        <ele>503.1</ele>
        <time>2015-07-09T09:21:27Z</time>
      </trkpt>
      <trkpt lat="45.98164" lon="4.4796">
        <ele>503.5</ele>
        <time>2015-07-09T09:21:32Z</time>
      </trkpt>
      <trkpt lat="45.98156" lon="4.47952">
        <ele>503.8</ele>
        <time>2015-07-09T09:21:37Z</time>
      </trkpt>
      <trkpt lat="45.98148" lon="4.47946">
        <ele>504.2</ele>
        <time>2015-07-09T09:21:42Z</time>
      </trkpt>
      <trkpt lat="45.9814" lon="4.47939">
        <ele>504.5</ele>
        <time>2015-07-09T09:21:47Z</time>
      </trkpt>
      <trkpt lat="45.98132" lon="4.47933">
        <ele>504.9</ele>
        <time>2015-07-09T09:21:52Z</time>
      </trkpt>
      <trkpt lat="45.98124" lon="4.47926">
        <ele>505.3</ele>
        <time>2015-07-09T09:21:57Z</time>
      </trkpt>
      <trkpt lat="45.98116" lon="4.47918">
        <ele>505.6</ele>
        <time>2015-07-09T09:22:02Z</time>
      </trkpt>
      <trkpt lat="45.9811" lon="4.4791">
        <ele>506</ele>
        <time>2015-07-09T09:22:07Z</time>
      </trkpt>
      <trkpt lat="45.98103" lon="4.47902">
        <ele>506.4</ele>
        <time>2015-07-09T09:22:12Z</time>
      </trkpt>
      <trkpt lat="45.98098" lon="4.47893">
        <ele>506.7</ele>
        <time>2015-07-09T09:22:17Z</time>
      </trkpt>
      <trkpt lat="45.98093" lon="4.47883">
        <ele>507.1</ele>
        <time>2015-07-09T09:22:22Z</time>
      </trkpt>
      <trkpt lat="45.98087" lon="4.47873">
        <ele>508.9</ele>
        <time>2015-07-09T09:22:27Z</time>
      </trkpt>
      <trkpt lat="45.98082" lon="4.47863">
        <ele>510.7</ele>
        <time>2015-07-09T09:22:32Z</time>
      </trkpt>
      <trkpt lat="45.98077" lon="4.47852">
        <ele>512.5</ele>
        <time>2015-07-09T09:22:38Z</time>
      </trkpt>
      <trkpt lat="45.98072" lon="4.4784">
        <ele>513.9</ele>
        <time>2015-07-09T09:22:44Z</time>
      </trkpt>
      <trkpt lat="45.98066" lon="4.47829">
        <ele>515.3</ele>
        <time>2015-07-09T09:22:50Z</time>
      </trkpt>
      <trkpt lat="45.98061" lon="4.47819">
        <ele>516.6</ele>
        <time>2015-07-09T09:22:55Z</time>
      </trkpt>
      <trkpt lat="45.98055" lon="4.47809">
        <ele>516.2</ele>
        <time>2015-07-09T09:23:00Z</time>
      </trkpt>
      <trkpt lat="45.9805" lon="4.47799">
        <ele>517.5</ele>
        <time>2015-07-09T09:23:05Z</time>
      </trkpt>
      <trkpt lat="45.98045" lon="4.47788">
        <ele>518.9</ele>
        <time>2015-07-09T09:23:10Z</time>
      </trkpt>
      <trkpt lat="45.98038" lon="4.47779">
        <ele>520.3</ele>
        <time>2015-07-09T09:23:15Z</time>
      </trkpt>
      <trkpt lat="45.98033" lon="4.4777">
        <ele>520.3</ele>
        <time>2015-07-09T09:23:20Z</time>
      </trkpt>
      <trkpt lat="45.98042" lon="4.47767">
        <ele>520.3</ele>
        <time>2015-07-09T09:23:29Z</time>
      </trkpt>
      <trkpt lat="45.98049" lon="4.47777">
        <ele>520.3</ele>
        <time>2015-07-09T09:23:33Z</time>
      </trkpt>
      <trkpt lat="45.98058" lon="4.47784">
        <ele>520.3</ele>
        <time>2015-07-09T09:23:38Z</time>
      </trkpt>
      <trkpt lat="45.98066" lon="4.47791">
        <ele>520.7</ele>
        <time>2015-07-09T09:23:43Z</time>
      </trkpt>
      <trkpt lat="45.98074" lon="4.47799">
        <ele>521.2</ele>
        <time>2015-07-09T09:23:48Z</time>
      </trkpt>
      <trkpt lat="45.98083" lon="4.47806">
        <ele>521.6</ele>
        <time>2015-07-09T09:23:53Z</time>
      </trkpt>
      <trkpt lat="45.98091" lon="4.47813">
        <ele>523.8</ele>
        <time>2015-07-09T09:23:58Z</time>
      </trkpt>
      <trkpt lat="45.98098" lon="4.47819">
        <ele>524.2</ele>
        <time>2015-07-09T09:24:03Z</time>
      </trkpt>
      <trkpt lat="45.98106" lon="4.47825">
        <ele>524.5</ele>
        <time>2015-07-09T09:24:08Z</time>
      </trkpt>
      <trkpt lat="45.98114" lon="4.4783">
        <ele>524.9</ele>
        <time>2015-07-09T09:24:13Z</time>
      </trkpt>
      <trkpt lat="45.98122" lon="4.47833">
        <ele>526.6</ele>
        <time>2015-07-09T09:24:18Z</time>
      </trkpt>
      <trkpt lat="45.98131" lon="4.47836">
        <ele>528.4</ele>
        <time>2015-07-09T09:24:23Z</time>
      </trkpt>
      <trkpt lat="45.98139" lon="4.47836">
        <ele>530.1</ele>
        <time>2015-07-09T09:24:28Z</time>
      </trkpt>
      <trkpt lat="45.98147" lon="4.47837">
        <ele>531.8</ele>
        <time>2015-07-09T09:24:33Z</time>
      </trkpt>
      <trkpt lat="45.98156" lon="4.47837">
        <ele>533.5</ele>
        <time>2015-07-09T09:24:38Z</time>
      </trkpt>
      <trkpt lat="45.98166" lon="4.47836">
        <ele>536.1</ele>
        <time>2015-07-09T09:24:43Z</time>
      </trkpt>
      <trkpt lat="45.98175" lon="4.47836">
        <ele>538.6</ele>
        <time>2015-07-09T09:24:48Z</time>
      </trkpt>
      <trkpt lat="45.98184" lon="4.47837">
        <ele>539.5</ele>
        <time>2015-07-09T09:24:53Z</time>
      </trkpt>
      <trkpt lat="45.98193" lon="4.47839">
        <ele>539</ele>
        <time>2015-07-09T09:24:58Z</time>
      </trkpt>
      <trkpt lat="45.98203" lon="4.47842">
        <ele>538.5</ele>
        <time>2015-07-09T09:25:02Z</time>
      </trkpt>
      <trkpt lat="45.98211" lon="4.47845">
        <ele>538.1</ele>
        <time>2015-07-09T09:25:05Z</time>
      </trkpt>
      <trkpt lat="45.98221" lon="4.47847">
        <ele>537.6</ele>
        <time>2015-07-09T09:25:09Z</time>
      </trkpt>
      <trkpt lat="45.98228" lon="4.47861">
        <ele>537.2</ele>
        <time>2015-07-09T09:25:13Z</time>
      </trkpt>
      <trkpt lat="45.98234" lon="4.47879">
        <ele>536.7</ele>
        <time>2015-07-09T09:25:15Z</time>
      </trkpt>
      <trkpt lat="45.98243" lon="4.47891">
        <ele>536.3</ele>
        <time>2015-07-09T09:25:17Z</time>
      </trkpt>
      <trkpt lat="45.98249" lon="4.47903">
        <ele>535.8</ele>
        <time>2015-07-09T09:25:19Z</time>
      </trkpt>
      <trkpt lat="45.98256" lon="4.47911">
        <ele>536.4</ele>
        <time>2015-07-09T09:25:21Z</time>
      </trkpt>
      <trkpt lat="45.98264" lon="4.47921">
        <ele>534.7</ele>
        <time>2015-07-09T09:25:24Z</time>
      </trkpt>
      <trkpt lat="45.98271" lon="4.47934">
        <ele>533.1</ele>
        <time>2015-07-09T09:25:28Z</time>
      </trkpt>
      <trkpt lat="45.98278" lon="4.47941">
        <ele>532.7</ele>
        <time>2015-07-09T09:25:31Z</time>
      </trkpt>
      <trkpt lat="45.98286" lon="4.4795">
        <ele>532.4</ele>
        <time>2015-07-09T09:25:35Z</time>
      </trkpt>
      <trkpt lat="45.98293" lon="4.47958">
        <ele>532</ele>
        <time>2015-07-09T09:25:39Z</time>
      </trkpt>
      <trkpt lat="45.98301" lon="4.47963">
        <ele>531.6</ele>
        <time>2015-07-09T09:25:42Z</time>
      </trkpt>
      <trkpt lat="45.98309" lon="4.47968">
        <ele>531.3</ele>
        <time>2015-07-09T09:25:44Z</time>
      </trkpt>
      <trkpt lat="45.98317" lon="4.47972">
        <ele>530.9</ele>
        <time>2015-07-09T09:25:46Z</time>
      </trkpt>
      <trkpt lat="45.98326" lon="4.47976">
        <ele>530.5</ele>
        <time>2015-07-09T09:25:48Z</time>
      </trkpt>
      <trkpt lat="45.98334" lon="4.47978">
        <ele>531.2</ele>
        <time>2015-07-09T09:25:49Z</time>
      </trkpt>
      <trkpt lat="45.98344" lon="4.47982">
        <ele>530</ele>
        <time>2015-07-09T09:25:51Z</time>
      </trkpt>
      <trkpt lat="45.98356" lon="4.47988">
        <ele>531</ele>
        <time>2015-07-09T09:25:53Z</time>
      </trkpt>
      <trkpt lat="45.98368" lon="4.47999">
        <ele>530.4</ele>
        <time>2015-07-09T09:25:55Z</time>
      </trkpt>
      <trkpt lat="45.98379" lon="4.48011">
        <ele>529.7</ele>
        <time>2015-07-09T09:25:57Z</time>
      </trkpt>
      <trkpt lat="45.98391" lon="4.48022">
        <ele>529.1</ele>
        <time>2015-07-09T09:25:59Z</time>
      </trkpt>
      <trkpt lat="45.98403" lon="4.48031">
        <ele>528.5</ele>
        <time>2015-07-09T09:26:01Z</time>
      </trkpt>
      <trkpt lat="45.98414" lon="4.48038">
        <ele>527.8</ele>
        <time>2015-07-09T09:26:03Z</time>
      </trkpt>
      <trkpt lat="45.98422" lon="4.48043">
        <ele>528.5</ele>
        <time>2015-07-09T09:26:05Z</time>
      </trkpt>
      <trkpt lat="45.98433" lon="4.4805">
        <ele>529.1</ele>
        <time>2015-07-09T09:26:08Z</time>
      </trkpt>
      <trkpt lat="45.98443" lon="4.48057">
        <ele>529.7</ele>
        <time>2015-07-09T09:26:11Z</time>
      </trkpt>
      <trkpt lat="45.9845" lon="4.48065">
        <ele>529.4</ele>
        <time>2015-07-09T09:26:13Z</time>
      </trkpt>
      <trkpt lat="45.98459" lon="4.48074">
        <ele>529</ele>
        <time>2015-07-09T09:26:16Z</time>
      </trkpt>
      <trkpt lat="45.98467" lon="4.48084">
        <ele>528.6</ele>
        <time>2015-07-09T09:26:19Z</time>
      </trkpt>
      <trkpt lat="45.98475" lon="4.48093">
        <ele>529.9</ele>
        <time>2015-07-09T09:26:22Z</time>
      </trkpt>
      <trkpt lat="45.98484" lon="4.48101">
        <ele>530.4</ele>
        <time>2015-07-09T09:26:25Z</time>
      </trkpt>
      <trkpt lat="45.98492" lon="4.48111">
        <ele>530.8</ele>
        <time>2015-07-09T09:26:28Z</time>
      </trkpt>
      <trkpt lat="45.98501" lon="4.4812">
        <ele>532.1</ele>
        <time>2015-07-09T09:26:31Z</time>
      </trkpt>
      <trkpt lat="45.98508" lon="4.48128">
        <ele>533.4</ele>
        <time>2015-07-09T09:26:34Z</time>
      </trkpt>
      <trkpt lat="45.98514" lon="4.48138">
        <ele>531.9</ele>
        <time>2015-07-09T09:26:37Z</time>
      </trkpt>
      <trkpt lat="45.9852" lon="4.48148">
        <ele>530.5</ele>
        <time>2015-07-09T09:26:40Z</time>
      </trkpt>
      <trkpt lat="45.98529" lon="4.48143">
        <ele>529</ele>
        <time>2015-07-09T09:27:18Z</time>
      </trkpt>
      <trkpt lat="45.98538" lon="4.48131">
        <ele>527.5</ele>
        <time>2015-07-09T09:27:21Z</time>
      </trkpt>
      <trkpt lat="45.98544" lon="4.48118">
        <ele>526.1</ele>
        <time>2015-07-09T09:27:23Z</time>
      </trkpt>
      <trkpt lat="45.98549" lon="4.48106">
        <ele>524.6</ele>
        <time>2015-07-09T09:27:25Z</time>
      </trkpt>
      <trkpt lat="45.98552" lon="4.48095">
        <ele>523.2</ele>
        <time>2015-07-09T09:27:27Z</time>
      </trkpt>
      <trkpt lat="45.98557" lon="4.48076">
        <ele>522.5</ele>
        <time>2015-07-09T09:27:29Z</time>
      </trkpt>
      <trkpt lat="45.98562" lon="4.48058">
        <ele>522.6</ele>
        <time>2015-07-09T09:27:31Z</time>
      </trkpt>
      <trkpt lat="45.98569" lon="4.48038">
        <ele>521.9</ele>
        <time>2015-07-09T09:27:33Z</time>
      </trkpt>
      <trkpt lat="45.98571" lon="4.48013">
        <ele>521.2</ele>
        <time>2015-07-09T09:27:35Z</time>
      </trkpt>
      <trkpt lat="45.98576" lon="4.47992">
        <ele>521.9</ele>
        <time>2015-07-09T09:27:37Z</time>
      </trkpt>
      <trkpt lat="45.98581" lon="4.47971">
        <ele>522.6</ele>
        <time>2015-07-09T09:27:39Z</time>
      </trkpt>
      <trkpt lat="45.98582" lon="4.47959">
        <ele>522.9</ele>
        <time>2015-07-09T09:27:40Z</time>
      </trkpt>
      <trkpt lat="45.98588" lon="4.47938">
        <ele>523.2</ele>
        <time>2015-07-09T09:27:42Z</time>
      </trkpt>
      <trkpt lat="45.9859" lon="4.47926">
        <ele>523.5</ele>
        <time>2015-07-09T09:27:43Z</time>
      </trkpt>
      <trkpt lat="45.98597" lon="4.47903">
        <ele>523.7</ele>
        <time>2015-07-09T09:27:45Z</time>
      </trkpt>
      <trkpt lat="45.98599" lon="4.47891">
        <ele>524</ele>
        <time>2015-07-09T09:27:46Z</time>
      </trkpt>
      <trkpt lat="45.98601" lon="4.47871">
        <ele>522.6</ele>
        <time>2015-07-09T09:27:48Z</time>
      </trkpt>
      <trkpt lat="45.98601" lon="4.4785">
        <ele>520.5</ele>
        <time>2015-07-09T09:27:50Z</time>
      </trkpt>
      <trkpt lat="45.98596" lon="4.47834">
        <ele>518.5</ele>
        <time>2015-07-09T09:27:52Z</time>
      </trkpt>
      <trkpt lat="45.98588" lon="4.47817">
        <ele>516.4</ele>
        <time>2015-07-09T09:27:54Z</time>
      </trkpt>
      <trkpt lat="45.98579" lon="4.47801">
        <ele>514.3</ele>
        <time>2015-07-09T09:27:56Z</time>
      </trkpt>
      <trkpt lat="45.98575" lon="4.47779">
        <ele>515.2</ele>
        <time>2015-07-09T09:27:58Z</time>
      </trkpt>
      <trkpt lat="45.98572" lon="4.47766">
        <ele>514.4</ele>
        <time>2015-07-09T09:28:00Z</time>
      </trkpt>
      <trkpt lat="45.98565" lon="4.47753">
        <ele>513.5</ele>
        <time>2015-07-09T09:28:02Z</time>
      </trkpt>
      <trkpt lat="45.98557" lon="4.4774">
        <ele>512.7</ele>
        <time>2015-07-09T09:28:04Z</time>
      </trkpt>
      <trkpt lat="45.98549" lon="4.47729">
        <ele>511.9</ele>
        <time>2015-07-09T09:28:06Z</time>
      </trkpt>
      <trkpt lat="45.98536" lon="4.47716">
        <ele>511.1</ele>
        <time>2015-07-09T09:28:08Z</time>
      </trkpt>
      <trkpt lat="45.98526" lon="4.47709">
        <ele>511.9</ele>
        <time>2015-07-09T09:28:09Z</time>
      </trkpt>
      <trkpt lat="45.98519" lon="4.47701">
        <ele>512.7</ele>
        <time>2015-07-09T09:28:10Z</time>
      </trkpt>
      <trkpt lat="45.98505" lon="4.47687">
        <ele>513.1</ele>
        <time>2015-07-09T09:28:12Z</time>
      </trkpt>
      <trkpt lat="45.98495" lon="4.47671">
        <ele>513.5</ele>
        <time>2015-07-09T09:28:14Z</time>
      </trkpt>
      <trkpt lat="45.98489" lon="4.47661">
        <ele>513.8</ele>
        <time>2015-07-09T09:28:15Z</time>
      </trkpt>
      <trkpt lat="45.98484" lon="4.47651">
        <ele>511.9</ele>
        <time>2015-07-09T09:28:16Z</time>
      </trkpt>
      <trkpt lat="45.98479" lon="4.4764">
        <ele>512.2</ele>
        <time>2015-07-09T09:28:17Z</time>
      </trkpt>
      <trkpt lat="45.98474" lon="4.4763">
        <ele>512.5</ele>
        <time>2015-07-09T09:28:18Z</time>
      </trkpt>
      <trkpt lat="45.98469" lon="4.4762">
        <ele>512.5</ele>
        <time>2015-07-09T09:28:19Z</time>
      </trkpt>
      <trkpt lat="45.98463" lon="4.47607">
        <ele>512.5</ele>
        <time>2015-07-09T09:28:20Z</time>
      </trkpt>
      <trkpt lat="45.98451" lon="4.47582">
        <ele>512.5</ele>
        <time>2015-07-09T09:28:22Z</time>
      </trkpt>
      <trkpt lat="45.98446" lon="4.47563">
        <ele>512.5</ele>
        <time>2015-07-09T09:28:24Z</time>
      </trkpt>
      <trkpt lat="45.98441" lon="4.47552">
        <ele>512.5</ele>
        <time>2015-07-09T09:28:25Z</time>
      </trkpt>
      <trkpt lat="45.98435" lon="4.47534">
        <ele>513.2</ele>
        <time>2015-07-09T09:28:27Z</time>
      </trkpt>
      <trkpt lat="45.98429" lon="4.47517">
        <ele>513.9</ele>
        <time>2015-07-09T09:28:29Z</time>
      </trkpt>
      <trkpt lat="45.98423" lon="4.47499">
        <ele>514.6</ele>
        <time>2015-07-09T09:28:31Z</time>
      </trkpt>
      <trkpt lat="45.98419" lon="4.47484">
        <ele>514.6</ele>
        <time>2015-07-09T09:28:33Z</time>
      </trkpt>
      <trkpt lat="45.98417" lon="4.47471">
        <ele>514.6</ele>
        <time>2015-07-09T09:28:36Z</time>
      </trkpt>
      <trkpt lat="45.98419" lon="4.4746">
        <ele>514.6</ele>
        <time>2015-07-09T09:28:43Z</time>
      </trkpt>
      <trkpt lat="45.98422" lon="4.47448">
        <ele>514.9</ele>
        <time>2015-07-09T09:28:47Z</time>
      </trkpt>
      <trkpt lat="45.98422" lon="4.47435">
        <ele>515.2</ele>
        <time>2015-07-09T09:28:50Z</time>
      </trkpt>
      <trkpt lat="45.98418" lon="4.47424">
        <ele>515.5</ele>
        <time>2015-07-09T09:28:54Z</time>
      </trkpt>
      <trkpt lat="45.98416" lon="4.47412">
        <ele>515.7</ele>
        <time>2015-07-09T09:28:59Z</time>
      </trkpt>
      <trkpt lat="45.98416" lon="4.474">
        <ele>516</ele>
        <time>2015-07-09T09:29:24Z</time>
      </trkpt>
      <trkpt lat="45.98424" lon="4.47405">
        <ele>516</ele>
        <time>2015-07-09T09:29:59Z</time>
      </trkpt>
      <trkpt lat="45.98432" lon="4.47408">
        <ele>516</ele>
        <time>2015-07-09T09:30:03Z</time>
      </trkpt>
      <trkpt lat="45.98441" lon="4.47412">
        <ele>517.2</ele>
        <time>2015-07-09T09:30:07Z</time>
      </trkpt>
      <trkpt lat="45.98445" lon="4.47424">
        <ele>518.4</ele>
        <time>2015-07-09T09:30:14Z</time>
      </trkpt>
      <trkpt lat="45.98448" lon="4.47436">
        <ele>519.5</ele>
        <time>2015-07-09T09:30:21Z</time>
      </trkpt>
      <trkpt lat="45.98453" lon="4.47448">
        <ele>520.7</ele>
        <time>2015-07-09T09:30:27Z</time>
      </trkpt>
      <trkpt lat="45.98459" lon="4.47457">
        <ele>521.9</ele>
        <time>2015-07-09T09:30:32Z</time>
      </trkpt>
      <trkpt lat="45.98465" lon="4.47467">
        <ele>523.1</ele>
        <time>2015-07-09T09:30:37Z</time>
      </trkpt>
      <trkpt lat="45.98469" lon="4.47479">
        <ele>524.3</ele>
        <time>2015-07-09T09:30:43Z</time>
      </trkpt>
      <trkpt lat="45.98477" lon="4.47486">
        <ele>525.5</ele>
        <time>2015-07-09T09:30:48Z</time>
      </trkpt>
      <trkpt lat="45.98484" lon="4.47493">
        <ele>526.6</ele>
        <time>2015-07-09T09:30:52Z</time>
      </trkpt>
      <trkpt lat="45.98492" lon="4.47496">
        <ele>527.8</ele>
        <time>2015-07-09T09:30:56Z</time>
      </trkpt>
      <trkpt lat="45.98502" lon="4.47502">
        <ele>529.7</ele>
        <time>2015-07-09T09:31:00Z</time>
      </trkpt>
      <trkpt lat="45.98511" lon="4.47509">
        <ele>530.5</ele>
        <time>2015-07-09T09:31:04Z</time>
      </trkpt>
      <trkpt lat="45.98519" lon="4.47516">
        <ele>531.2</ele>
        <time>2015-07-09T09:31:07Z</time>
      </trkpt>
      <trkpt lat="45.98528" lon="4.47522">
        <ele>531.9</ele>
        <time>2015-07-09T09:31:11Z</time>
      </trkpt>
      <trkpt lat="45.98537" lon="4.47528">
        <ele>532.6</ele>
        <time>2015-07-09T09:31:15Z</time>
      </trkpt>
      <trkpt lat="45.98547" lon="4.47533">
        <ele>533.4</ele>
        <time>2015-07-09T09:31:19Z</time>
      </trkpt>
      <trkpt lat="45.98556" lon="4.47533">
        <ele>534.1</ele>
        <time>2015-07-09T09:31:25Z</time>
      </trkpt>
      <trkpt lat="45.98565" lon="4.47535">
        <ele>534.8</ele>
        <time>2015-07-09T09:31:30Z</time>
      </trkpt>
      <trkpt lat="45.98573" lon="4.47538">
        <ele>535.5</ele>
        <time>2015-07-09T09:31:34Z</time>
      </trkpt>
      <trkpt lat="45.98581" lon="4.47541">
        <ele>536.3</ele>
        <time>2015-07-09T09:31:37Z</time>
      </trkpt>
      <trkpt lat="45.9859" lon="4.47541">
        <ele>537.3</ele>
        <time>2015-07-09T09:31:40Z</time>
      </trkpt>
      <trkpt lat="45.98599" lon="4.47542">
        <ele>537.5</ele>
        <time>2015-07-09T09:31:43Z</time>
      </trkpt>
      <trkpt lat="45.98608" lon="4.47543">
        <ele>537.8</ele>
        <time>2015-07-09T09:31:46Z</time>
      </trkpt>
      <trkpt lat="45.98617" lon="4.47543">
        <ele>538.1</ele>
        <time>2015-07-09T09:31:49Z</time>
      </trkpt>
      <trkpt lat="45.98625" lon="4.47541">
        <ele>538.4</ele>
        <time>2015-07-09T09:31:52Z</time>
      </trkpt>
      <trkpt lat="45.98635" lon="4.47539">
        <ele>538.6</ele>
        <time>2015-07-09T09:31:56Z</time>
      </trkpt>
      <trkpt lat="45.98643" lon="4.47538">
        <ele>538.9</ele>
        <time>2015-07-09T09:32:00Z</time>
      </trkpt>
      <trkpt lat="45.98652" lon="4.47538">
        <ele>539.2</ele>
        <time>2015-07-09T09:32:05Z</time>
      </trkpt>
      <trkpt lat="45.98661" lon="4.47536">
        <ele>539.4</ele>
        <time>2015-07-09T09:32:08Z</time>
      </trkpt>
      <trkpt lat="45.98671" lon="4.47535">
        <ele>539.5</ele>
        <time>2015-07-09T09:32:11Z</time>
      </trkpt>
      <trkpt lat="45.98679" lon="4.47533">
        <ele>539.7</ele>
        <time>2015-07-09T09:32:13Z</time>
      </trkpt>
      <trkpt lat="45.98695" lon="4.47528">
        <ele>539.6</ele>
        <time>2015-07-09T09:32:15Z</time>
      </trkpt>
      <trkpt lat="45.98704" lon="4.47525">
        <ele>539.5</ele>
        <time>2015-07-09T09:32:17Z</time>
      </trkpt>
      <trkpt lat="45.98714" lon="4.47521">
        <ele>539.5</ele>
        <time>2015-07-09T09:32:21Z</time>
      </trkpt>
      <trkpt lat="45.98723" lon="4.4752">
        <ele>539.4</ele>
        <time>2015-07-09T09:32:25Z</time>
      </trkpt>
      <trkpt lat="45.98731" lon="4.47519">
        <ele>539.3</ele>
        <time>2015-07-09T09:32:29Z</time>
      </trkpt>
      <trkpt lat="45.98739" lon="4.4752">
        <ele>539.2</ele>
        <time>2015-07-09T09:32:33Z</time>
      </trkpt>
      <trkpt lat="45.98748" lon="4.47522">
        <ele>541</ele>
        <time>2015-07-09T09:32:40Z</time>
      </trkpt>
      <trkpt lat="45.98757" lon="4.4752">
        <ele>542.8</ele>
        <time>2015-07-09T09:32:46Z</time>
      </trkpt>
      <trkpt lat="45.98766" lon="4.47519">
        <ele>544.7</ele>
        <time>2015-07-09T09:32:53Z</time>
      </trkpt>
      <trkpt lat="45.98775" lon="4.47518">
        <ele>546.6</ele>
        <time>2015-07-09T09:32:59Z</time>
      </trkpt>
      <trkpt lat="45.98784" lon="4.47517">
        <ele>548.5</ele>
        <time>2015-07-09T09:33:06Z</time>
      </trkpt>
      <trkpt lat="45.98793" lon="4.47518">
        <ele>550.5</ele>
        <time>2015-07-09T09:33:13Z</time>
      </trkpt>
      <trkpt lat="45.98801" lon="4.47522">
        <ele>550.5</ele>
        <time>2015-07-09T09:33:20Z</time>
      </trkpt>
      <trkpt lat="45.98809" lon="4.47526">
        <ele>550.6</ele>
        <time>2015-07-09T09:33:28Z</time>
      </trkpt>
      <trkpt lat="45.98817" lon="4.4753">
        <ele>550.7</ele>
        <time>2015-07-09T09:33:35Z</time>
      </trkpt>
      <trkpt lat="45.98825" lon="4.47536">
        <ele>550.8</ele>
        <time>2015-07-09T09:33:43Z</time>
      </trkpt>
      <trkpt lat="45.98829" lon="4.47546">
        <ele>550.9</ele>
        <time>2015-07-09T09:33:53Z</time>
      </trkpt>
      <trkpt lat="45.98831" lon="4.47558">
        <ele>549.1</ele>
        <time>2015-07-09T09:34:01Z</time>
      </trkpt>
      <trkpt lat="45.98833" lon="4.47572">
        <ele>546.7</ele>
        <time>2015-07-09T09:34:09Z</time>
      </trkpt>
      <trkpt lat="45.98836" lon="4.47585">
        <ele>544.4</ele>
        <time>2015-07-09T09:34:14Z</time>
      </trkpt>
      <trkpt lat="45.98836" lon="4.47596">
        <ele>542</ele>
        <time>2015-07-09T09:34:19Z</time>
      </trkpt>
      <trkpt lat="45.98832" lon="4.47608">
        <ele>539.6</ele>
        <time>2015-07-09T09:34:25Z</time>
      </trkpt>
      <trkpt lat="45.98834" lon="4.4762">
        <ele>537.3</ele>
        <time>2015-07-09T09:34:30Z</time>
      </trkpt>
      <trkpt lat="45.98838" lon="4.47632">
        <ele>536.7</ele>
        <time>2015-07-09T09:34:35Z</time>
      </trkpt>
      <trkpt lat="45.98837" lon="4.47644">
        <ele>536.2</ele>
        <time>2015-07-09T09:34:40Z</time>
      </trkpt>
      <trkpt lat="45.98837" lon="4.47657">
        <ele>535.9</ele>
        <time>2015-07-09T09:34:45Z</time>
      </trkpt>
      <trkpt lat="45.98839" lon="4.4767">
        <ele>535.6</ele>
        <time>2015-07-09T09:34:50Z</time>
      </trkpt>
      <trkpt lat="45.98843" lon="4.47683">
        <ele>535.4</ele>
        <time>2015-07-09T09:34:55Z</time>
      </trkpt>
      <trkpt lat="45.98846" lon="4.47693">
        <ele>535.1</ele>
        <time>2015-07-09T09:34:59Z</time>
      </trkpt>
      <trkpt lat="45.9885" lon="4.47706">
        <ele>535.4</ele>
        <time>2015-07-09T09:35:04Z</time>
      </trkpt>
      <trkpt lat="45.98853" lon="4.47718">
        <ele>535.6</ele>
        <time>2015-07-09T09:35:09Z</time>
      </trkpt>
      <trkpt lat="45.98856" lon="4.4773">
        <ele>535.9</ele>
        <time>2015-07-09T09:35:14Z</time>
      </trkpt>
      <trkpt lat="45.98858" lon="4.47742">
        <ele>536.4</ele>
        <time>2015-07-09T09:35:19Z</time>
      </trkpt>
      <trkpt lat="45.98859" lon="4.47756">
        <ele>536.8</ele>
        <time>2015-07-09T09:35:24Z</time>
      </trkpt>
      <trkpt lat="45.9886" lon="4.47769">
        <ele>537.3</ele>
        <time>2015-07-09T09:35:28Z</time>
      </trkpt>
      <trkpt lat="45.98861" lon="4.47782">
        <ele>537.7</ele>
        <time>2015-07-09T09:35:32Z</time>
      </trkpt>
      <trkpt lat="45.98861" lon="4.47794">
        <ele>537.9</ele>
        <time>2015-07-09T09:35:36Z</time>
      </trkpt>
      <trkpt lat="45.98862" lon="4.47807">
        <ele>539.8</ele>
        <time>2015-07-09T09:35:40Z</time>
      </trkpt>
      <trkpt lat="45.98863" lon="4.47819">
        <ele>541.7</ele>
        <time>2015-07-09T09:35:44Z</time>
      </trkpt>
      <trkpt lat="45.98863" lon="4.47831">
        <ele>543.6</ele>
        <time>2015-07-09T09:35:48Z</time>
      </trkpt>
      <trkpt lat="45.98867" lon="4.47844">
        <ele>545.5</ele>
        <time>2015-07-09T09:35:52Z</time>
      </trkpt>
      <trkpt lat="45.98873" lon="4.47855">
        <ele>546.1</ele>
        <time>2015-07-09T09:35:56Z</time>
      </trkpt>
      <trkpt lat="45.98881" lon="4.4786">
        <ele>546.6</ele>
        <time>2015-07-09T09:36:02Z</time>
      </trkpt>
      <trkpt lat="45.98891" lon="4.47864">
        <ele>547</ele>
        <time>2015-07-09T09:36:06Z</time>
      </trkpt>
      <trkpt lat="45.98899" lon="4.47868">
        <ele>547.4</ele>
        <time>2015-07-09T09:36:09Z</time>
      </trkpt>
      <trkpt lat="45.9891" lon="4.47874">
        <ele>548.4</ele>
        <time>2015-07-09T09:36:12Z</time>
      </trkpt>
      <trkpt lat="45.98918" lon="4.47879">
        <ele>549.4</ele>
        <time>2015-07-09T09:36:14Z</time>
      </trkpt>
      <trkpt lat="45.98925" lon="4.47883">
        <ele>550.4</ele>
        <time>2015-07-09T09:36:15Z</time>
      </trkpt>
      <trkpt lat="45.98937" lon="4.47892">
        <ele>549.6</ele>
        <time>2015-07-09T09:36:17Z</time>
      </trkpt>
      <trkpt lat="45.98949" lon="4.47902">
        <ele>548.9</ele>
        <time>2015-07-09T09:36:19Z</time>
      </trkpt>
      <trkpt lat="45.98964" lon="4.47909">
        <ele>548.2</ele>
        <time>2015-07-09T09:36:21Z</time>
      </trkpt>
      <trkpt lat="45.98978" lon="4.47916">
        <ele>546.3</ele>
        <time>2015-07-09T09:36:23Z</time>
      </trkpt>
      <trkpt lat="45.98993" lon="4.47922">
        <ele>545.7</ele>
        <time>2015-07-09T09:36:25Z</time>
      </trkpt>
      <trkpt lat="45.99002" lon="4.47926">
        <ele>545.2</ele>
        <time>2015-07-09T09:36:26Z</time>
      </trkpt>
      <trkpt lat="45.99014" lon="4.47938">
        <ele>544.5</ele>
        <time>2015-07-09T09:36:28Z</time>
      </trkpt>
      <trkpt lat="45.99021" lon="4.47951">
        <ele>543.9</ele>
        <time>2015-07-09T09:36:30Z</time>
      </trkpt>
      <trkpt lat="45.99029" lon="4.47969">
        <ele>542.6</ele>
        <time>2015-07-09T09:36:32Z</time>
      </trkpt>
      <trkpt lat="45.99034" lon="4.47978">
        <ele>541.4</ele>
        <time>2015-07-09T09:36:33Z</time>
      </trkpt>
      <trkpt lat="45.99043" lon="4.47995">
        <ele>540.1</ele>
        <time>2015-07-09T09:36:35Z</time>
      </trkpt>
      <trkpt lat="45.99049" lon="4.4801">
        <ele>538.8</ele>
        <time>2015-07-09T09:36:37Z</time>
      </trkpt>
      <trkpt lat="45.99058" lon="4.48019">
        <ele>537.5</ele>
        <time>2015-07-09T09:36:40Z</time>
      </trkpt>
      <trkpt lat="45.99066" lon="4.48015">
        <ele>536</ele>
        <time>2015-07-09T09:36:43Z</time>
      </trkpt>
      <trkpt lat="45.99071" lon="4.48006">
        <ele>535.6</ele>
        <time>2015-07-09T09:36:46Z</time>
      </trkpt>
      <trkpt lat="45.99074" lon="4.47995">
        <ele>535.3</ele>
        <time>2015-07-09T09:36:48Z</time>
      </trkpt>
      <trkpt lat="45.99078" lon="4.4798">
        <ele>534.9</ele>
        <time>2015-07-09T09:36:50Z</time>
      </trkpt>
      <trkpt lat="45.99081" lon="4.47965">
        <ele>535.2</ele>
        <time>2015-07-09T09:36:52Z</time>
      </trkpt>
      <trkpt lat="45.99085" lon="4.47945">
        <ele>535.5</ele>
        <time>2015-07-09T09:36:54Z</time>
      </trkpt>
      <trkpt lat="45.99088" lon="4.47927">
        <ele>535.7</ele>
        <time>2015-07-09T09:36:56Z</time>
      </trkpt>
      <trkpt lat="45.99092" lon="4.47907">
        <ele>536</ele>
        <time>2015-07-09T09:36:58Z</time>
      </trkpt>
      <trkpt lat="45.99094" lon="4.4789">
        <ele>533.2</ele>
        <time>2015-07-09T09:37:00Z</time>
      </trkpt>
      <trkpt lat="45.99095" lon="4.47874">
        <ele>530.4</ele>
        <time>2015-07-09T09:37:02Z</time>
      </trkpt>
      <trkpt lat="45.99097" lon="4.47856">
        <ele>527.5</ele>
        <time>2015-07-09T09:37:04Z</time>
      </trkpt>
      <trkpt lat="45.99106" lon="4.47844">
        <ele>525</ele>
        <time>2015-07-09T09:37:06Z</time>
      </trkpt>
      <trkpt lat="45.99117" lon="4.47837">
        <ele>522.5</ele>
        <time>2015-07-09T09:37:08Z</time>
      </trkpt>
      <trkpt lat="45.99131" lon="4.47831">
        <ele>519.9</ele>
        <time>2015-07-09T09:37:10Z</time>
      </trkpt>
      <trkpt lat="45.99137" lon="4.47822">
        <ele>517.4</ele>
        <time>2015-07-09T09:37:12Z</time>
      </trkpt>
      <trkpt lat="45.99146" lon="4.47816">
        <ele>514.3</ele>
        <time>2015-07-09T09:37:14Z</time>
      </trkpt>
      <trkpt lat="45.99158" lon="4.47816">
        <ele>512.7</ele>
        <time>2015-07-09T09:37:16Z</time>
      </trkpt>
      <trkpt lat="45.9917" lon="4.47816">
        <ele>507.9</ele>
        <time>2015-07-09T09:37:18Z</time>
      </trkpt>
      <trkpt lat="45.99179" lon="4.47812">
        <ele>503.1</ele>
        <time>2015-07-09T09:37:21Z</time>
      </trkpt>
      <trkpt lat="45.99187" lon="4.47809">
        <ele>501.4</ele>
        <time>2015-07-09T09:37:23Z</time>
      </trkpt>
      <trkpt lat="45.99198" lon="4.47802">
        <ele>498.7</ele>
        <time>2015-07-09T09:37:26Z</time>
      </trkpt>
      <trkpt lat="45.99204" lon="4.47792">
        <ele>496.1</ele>
        <time>2015-07-09T09:37:29Z</time>
      </trkpt>
      <trkpt lat="45.99212" lon="4.47778">
        <ele>493.5</ele>
        <time>2015-07-09T09:37:32Z</time>
      </trkpt>
      <trkpt lat="45.9922" lon="4.47773">
        <ele>493.5</ele>
        <time>2015-07-09T09:37:35Z</time>
      </trkpt>
      <trkpt lat="45.9922" lon="4.47785">
        <ele>493.5</ele>
        <time>2015-07-09T09:37:38Z</time>
      </trkpt>
      <trkpt lat="45.99222" lon="4.47797">
        <ele>493.5</ele>
        <time>2015-07-09T09:37:41Z</time>
      </trkpt>
      <trkpt lat="45.99217" lon="4.47806">
        <ele>493.5</ele>
        <time>2015-07-09T09:37:51Z</time>
      </trkpt>
      <trkpt lat="45.99213" lon="4.47819">
        <ele>488.4</ele>
        <time>2015-07-09T09:37:55Z</time>
      </trkpt>
      <trkpt lat="45.99207" lon="4.47833">
        <ele>486.5</ele>
        <time>2015-07-09T09:37:58Z</time>
      </trkpt>
      <trkpt lat="45.992" lon="4.47848">
        <ele>484.7</ele>
        <time>2015-07-09T09:38:00Z</time>
      </trkpt>
      <trkpt lat="45.99201" lon="4.4786">
        <ele>482.9</ele>
        <time>2015-07-09T09:38:02Z</time>
      </trkpt>
      <trkpt lat="45.99205" lon="4.47875">
        <ele>482</ele>
        <time>2015-07-09T09:38:05Z</time>
      </trkpt>
      <trkpt lat="45.99211" lon="4.47889">
        <ele>481.1</ele>
        <time>2015-07-09T09:38:08Z</time>
      </trkpt>
      <trkpt lat="45.99216" lon="4.47905">
        <ele>480.2</ele>
        <time>2015-07-09T09:38:11Z</time>
      </trkpt>
      <trkpt lat="45.99218" lon="4.47917">
        <ele>476.6</ele>
        <time>2015-07-09T09:38:13Z</time>
      </trkpt>
      <trkpt lat="45.99221" lon="4.47932">
        <ele>474</ele>
        <time>2015-07-09T09:38:15Z</time>
      </trkpt>
      <trkpt lat="45.99223" lon="4.47944">
        <ele>471.4</ele>
        <time>2015-07-09T09:38:18Z</time>
      </trkpt>
      <trkpt lat="45.99223" lon="4.47927">
        <ele>468.7</ele>
        <time>2015-07-09T09:38:27Z</time>
      </trkpt>
      <trkpt lat="45.99221" lon="4.4791">
        <ele>469.6</ele>
        <time>2015-07-09T09:38:29Z</time>
      </trkpt>
      <trkpt lat="45.9922" lon="4.47894">
        <ele>470.5</ele>
        <time>2015-07-09T09:38:31Z</time>
      </trkpt>
      <trkpt lat="45.99224" lon="4.47876">
        <ele>471.5</ele>
        <time>2015-07-09T09:38:33Z</time>
      </trkpt>
      <trkpt lat="45.99231" lon="4.47863">
        <ele>472.4</ele>
        <time>2015-07-09T09:38:35Z</time>
      </trkpt>
      <trkpt lat="45.9924" lon="4.47852">
        <ele>474.2</ele>
        <time>2015-07-09T09:38:37Z</time>
      </trkpt>
      <trkpt lat="45.9925" lon="4.47843">
        <ele>476</ele>
        <time>2015-07-09T09:38:39Z</time>
      </trkpt>
      <trkpt lat="45.99256" lon="4.47833">
        <ele>477.8</ele>
        <time>2015-07-09T09:38:41Z</time>
      </trkpt>
      <trkpt lat="45.99261" lon="4.47819">
        <ele>479.6</ele>
        <time>2015-07-09T09:38:44Z</time>
      </trkpt>
      <trkpt lat="45.99262" lon="4.47806">
        <ele>480.5</ele>
        <time>2015-07-09T09:38:47Z</time>
      </trkpt>
      <trkpt lat="45.99262" lon="4.47794">
        <ele>481.5</ele>
        <time>2015-07-09T09:38:50Z</time>
      </trkpt>
      <trkpt lat="45.99258" lon="4.47782">
        <ele>482.4</ele>
        <time>2015-07-09T09:38:53Z</time>
      </trkpt>
      <trkpt lat="45.9926" lon="4.4777">
        <ele>482.9</ele>
        <time>2015-07-09T09:38:57Z</time>
      </trkpt>
      <trkpt lat="45.99266" lon="4.47761">
        <ele>482.1</ele>
        <time>2015-07-09T09:39:00Z</time>
      </trkpt>
      <trkpt lat="45.99273" lon="4.47747">
        <ele>481.3</ele>
        <time>2015-07-09T09:39:03Z</time>
      </trkpt>
      <trkpt lat="45.9928" lon="4.47733">
        <ele>480.5</ele>
        <time>2015-07-09T09:39:06Z</time>
      </trkpt>
      <trkpt lat="45.99285" lon="4.47719">
        <ele>478.7</ele>
        <time>2015-07-09T09:39:09Z</time>
      </trkpt>
      <trkpt lat="45.9929" lon="4.47709">
        <ele>477</ele>
        <time>2015-07-09T09:39:12Z</time>
      </trkpt>
      <trkpt lat="45.99294" lon="4.47695">
        <ele>475.9</ele>
        <time>2015-07-09T09:39:16Z</time>
      </trkpt>
      <trkpt lat="45.99297" lon="4.47684">
        <ele>474.8</ele>
        <time>2015-07-09T09:39:19Z</time>
      </trkpt>
      <trkpt lat="45.99297" lon="4.4767">
        <ele>474.5</ele>
        <time>2015-07-09T09:39:23Z</time>
      </trkpt>
      <trkpt lat="45.99298" lon="4.47652">
        <ele>474.1</ele>
        <time>2015-07-09T09:39:26Z</time>
      </trkpt>
      <trkpt lat="45.99294" lon="4.47638">
        <ele>473.7</ele>
        <time>2015-07-09T09:39:28Z</time>
      </trkpt>
      <trkpt lat="45.99291" lon="4.47624">
        <ele>473.7</ele>
        <time>2015-07-09T09:39:29Z</time>
      </trkpt>
      <trkpt lat="45.99289" lon="4.47611">
        <ele>475.1</ele>
        <time>2015-07-09T09:39:32Z</time>
      </trkpt>
      <trkpt lat="45.99295" lon="4.47604">
        <ele>475.1</ele>
        <time>2015-07-09T09:39:40Z</time>
      </trkpt>
      <trkpt lat="45.99303" lon="4.47604">
        <ele>475.1</ele>
        <time>2015-07-09T09:39:59Z</time>
      </trkpt>
      <trkpt lat="45.99311" lon="4.47611">
        <ele>475.1</ele>
        <time>2015-07-09T09:40:08Z</time>
      </trkpt>
      <trkpt lat="45.99318" lon="4.47615">
        <ele>475.1</ele>
        <time>2015-07-09T09:40:14Z</time>
      </trkpt>
      <trkpt lat="45.99322" lon="4.47628">
        <ele>474.5</ele>
        <time>2015-07-09T09:40:23Z</time>
      </trkpt>
      <trkpt lat="45.99327" lon="4.47639">
        <ele>473.8</ele>
        <time>2015-07-09T09:40:30Z</time>
      </trkpt>
      <trkpt lat="45.99331" lon="4.47652">
        <ele>472.5</ele>
        <time>2015-07-09T09:40:37Z</time>
      </trkpt>
      <trkpt lat="45.99338" lon="4.47662">
        <ele>470.5</ele>
        <time>2015-07-09T09:40:41Z</time>
      </trkpt>
      <trkpt lat="45.99341" lon="4.47674">
        <ele>468.5</ele>
        <time>2015-07-09T09:40:45Z</time>
      </trkpt>
      <trkpt lat="45.99347" lon="4.47686">
        <ele>466.5</ele>
        <time>2015-07-09T09:40:48Z</time>
      </trkpt>
      <trkpt lat="45.99352" lon="4.47695">
        <ele>464.5</ele>
        <time>2015-07-09T09:40:51Z</time>
      </trkpt>
      <trkpt lat="45.99359" lon="4.47706">
        <ele>466.3</ele>
        <time>2015-07-09T09:40:55Z</time>
      </trkpt>
      <trkpt lat="45.99364" lon="4.47716">
        <ele>468.1</ele>
        <time>2015-07-09T09:40:58Z</time>
      </trkpt>
      <trkpt lat="45.99369" lon="4.47725">
        <ele>469.9</ele>
        <time>2015-07-09T09:41:02Z</time>
      </trkpt>
      <trkpt lat="45.99374" lon="4.47736">
        <ele>471.7</ele>
        <time>2015-07-09T09:41:07Z</time>
      </trkpt>
      <trkpt lat="45.99377" lon="4.47749">
        <ele>472.3</ele>
        <time>2015-07-09T09:41:12Z</time>
      </trkpt>
      <trkpt lat="45.99381" lon="4.4776">
        <ele>472.8</ele>
        <time>2015-07-09T09:41:17Z</time>
      </trkpt>
      <trkpt lat="45.99386" lon="4.47771">
        <ele>473.4</ele>
        <time>2015-07-09T09:41:21Z</time>
      </trkpt>
      <trkpt lat="45.99387" lon="4.47784">
        <ele>474.5</ele>
        <time>2015-07-09T09:41:27Z</time>
      </trkpt>
      <trkpt lat="45.99392" lon="4.47796">
        <ele>475.7</ele>
        <time>2015-07-09T09:41:32Z</time>
      </trkpt>
      <trkpt lat="45.99397" lon="4.47805">
        <ele>476.9</ele>
        <time>2015-07-09T09:41:38Z</time>
      </trkpt>
      <trkpt lat="45.99395" lon="4.47818">
        <ele>476.8</ele>
        <time>2015-07-09T09:41:44Z</time>
      </trkpt>
      <trkpt lat="45.99391" lon="4.47832">
        <ele>474.3</ele>
        <time>2015-07-09T09:41:49Z</time>
      </trkpt>
      <trkpt lat="45.99392" lon="4.47844">
        <ele>471.7</ele>
        <time>2015-07-09T09:41:51Z</time>
      </trkpt>
      <trkpt lat="45.99395" lon="4.47858">
        <ele>469.2</ele>
        <time>2015-07-09T09:41:53Z</time>
      </trkpt>
      <trkpt lat="45.99401" lon="4.47872">
        <ele>466.6</ele>
        <time>2015-07-09T09:41:55Z</time>
      </trkpt>
      <trkpt lat="45.99408" lon="4.47887">
        <ele>465.4</ele>
        <time>2015-07-09T09:41:57Z</time>
      </trkpt>
      <trkpt lat="45.99415" lon="4.47903">
        <ele>463.1</ele>
        <time>2015-07-09T09:41:59Z</time>
      </trkpt>
      <trkpt lat="45.99422" lon="4.47915">
        <ele>460.8</ele>
        <time>2015-07-09T09:42:01Z</time>
      </trkpt>
      <trkpt lat="45.99428" lon="4.47929">
        <ele>458.5</ele>
        <time>2015-07-09T09:42:04Z</time>
      </trkpt>
      <trkpt lat="45.99433" lon="4.47939">
        <ele>459.8</ele>
        <time>2015-07-09T09:42:06Z</time>
      </trkpt>
      <trkpt lat="45.99437" lon="4.47949">
        <ele>461.1</ele>
        <time>2015-07-09T09:42:08Z</time>
      </trkpt>
      <trkpt lat="45.99445" lon="4.47961">
        <ele>463.6</ele>
        <time>2015-07-09T09:42:11Z</time>
      </trkpt>
      <trkpt lat="45.99453" lon="4.47971">
        <ele>466.2</ele>
        <time>2015-07-09T09:42:14Z</time>
      </trkpt>
      <trkpt lat="45.99461" lon="4.47984">
        <ele>468.7</ele>
        <time>2015-07-09T09:42:17Z</time>
      </trkpt>
      <trkpt lat="45.99467" lon="4.47997">
        <ele>469.3</ele>
        <time>2015-07-09T09:42:19Z</time>
      </trkpt>
      <trkpt lat="45.99474" lon="4.48009">
        <ele>469.8</ele>
        <time>2015-07-09T09:42:21Z</time>
      </trkpt>
      <trkpt lat="45.99482" lon="4.4802">
        <ele>470.4</ele>
        <time>2015-07-09T09:42:23Z</time>
      </trkpt>
      <trkpt lat="45.99488" lon="4.48029">
        <ele>471.9</ele>
        <time>2015-07-09T09:42:25Z</time>
      </trkpt>
      <trkpt lat="45.99494" lon="4.48037">
        <ele>473.5</ele>
        <time>2015-07-09T09:42:27Z</time>
      </trkpt>
      <trkpt lat="45.99502" lon="4.48047">
        <ele>475</ele>
        <time>2015-07-09T09:42:30Z</time>
      </trkpt>
      <trkpt lat="45.99509" lon="4.48057">
        <ele>473</ele>
        <time>2015-07-09T09:42:33Z</time>
      </trkpt>
      <trkpt lat="45.99516" lon="4.48067">
        <ele>474.5</ele>
        <time>2015-07-09T09:42:36Z</time>
      </trkpt>
      <trkpt lat="45.99523" lon="4.48075">
        <ele>475.9</ele>
        <time>2015-07-09T09:42:39Z</time>
      </trkpt>
      <trkpt lat="45.9953" lon="4.48085">
        <ele>477.4</ele>
        <time>2015-07-09T09:42:44Z</time>
      </trkpt>
      <trkpt lat="45.99537" lon="4.48094">
        <ele>477.3</ele>
        <time>2015-07-09T09:42:49Z</time>
      </trkpt>
      <trkpt lat="45.99543" lon="4.48104">
        <ele>479.2</ele>
        <time>2015-07-09T09:42:54Z</time>
      </trkpt>
      <trkpt lat="45.9955" lon="4.48112">
        <ele>481.1</ele>
        <time>2015-07-09T09:42:58Z</time>
      </trkpt>
      <trkpt lat="45.99556" lon="4.48121">
        <ele>483</ele>
        <time>2015-07-09T09:43:04Z</time>
      </trkpt>
      <trkpt lat="45.99562" lon="4.48129">
        <ele>484.9</ele>
        <time>2015-07-09T09:43:10Z</time>
      </trkpt>
      <trkpt lat="45.99566" lon="4.4814">
        <ele>486.8</ele>
        <time>2015-07-09T09:43:15Z</time>
      </trkpt>
      <trkpt lat="45.9957" lon="4.48151">
        <ele>488.7</ele>
        <time>2015-07-09T09:43:20Z</time>
      </trkpt>
      <trkpt lat="45.99574" lon="4.48162">
        <ele>490.6</ele>
        <time>2015-07-09T09:43:27Z</time>
      </trkpt>
      <trkpt lat="45.99578" lon="4.48174">
        <ele>488.9</ele>
        <time>2015-07-09T09:43:32Z</time>
      </trkpt>
      <trkpt lat="45.99582" lon="4.48186">
        <ele>487.2</ele>
        <time>2015-07-09T09:43:37Z</time>
      </trkpt>
      <trkpt lat="45.99586" lon="4.48195">
        <ele>485.5</ele>
        <time>2015-07-09T09:43:41Z</time>
      </trkpt>
      <trkpt lat="45.9959" lon="4.48206">
        <ele>485.3</ele>
        <time>2015-07-09T09:43:45Z</time>
      </trkpt>
      <trkpt lat="45.99595" lon="4.48217">
        <ele>485.1</ele>
        <time>2015-07-09T09:43:49Z</time>
      </trkpt>
      <trkpt lat="45.99598" lon="4.48229">
        <ele>485.4</ele>
        <time>2015-07-09T09:43:54Z</time>
      </trkpt>
      <trkpt lat="45.99603" lon="4.48242">
        <ele>485.6</ele>
        <time>2015-07-09T09:43:59Z</time>
      </trkpt>
      <trkpt lat="45.99609" lon="4.48253">
        <ele>485.9</ele>
        <time>2015-07-09T09:44:03Z</time>
      </trkpt>
      <trkpt lat="45.99615" lon="4.48262">
        <ele>486.2</ele>
        <time>2015-07-09T09:44:08Z</time>
      </trkpt>
      <trkpt lat="45.99622" lon="4.48268">
        <ele>486.5</ele>
        <time>2015-07-09T09:44:13Z</time>
      </trkpt>
      <trkpt lat="45.99632" lon="4.48273">
        <ele>486.7</ele>
        <time>2015-07-09T09:44:16Z</time>
      </trkpt>
      <trkpt lat="45.99641" lon="4.48277">
        <ele>487.2</ele>
        <time>2015-07-09T09:44:19Z</time>
      </trkpt>
      <trkpt lat="45.99652" lon="4.48275">
        <ele>487.6</ele>
        <time>2015-07-09T09:44:22Z</time>
      </trkpt>
      <trkpt lat="45.99661" lon="4.48271">
        <ele>488.1</ele>
        <time>2015-07-09T09:44:24Z</time>
      </trkpt>
      <trkpt lat="45.9967" lon="4.48268">
        <ele>486.1</ele>
        <time>2015-07-09T09:44:26Z</time>
      </trkpt>
      <trkpt lat="45.99681" lon="4.48265">
        <ele>484.1</ele>
        <time>2015-07-09T09:44:28Z</time>
      </trkpt>
      <trkpt lat="45.99691" lon="4.48264">
        <ele>481.6</ele>
        <time>2015-07-09T09:44:30Z</time>
      </trkpt>
      <trkpt lat="45.99701" lon="4.48267">
        <ele>479.2</ele>
        <time>2015-07-09T09:44:31Z</time>
      </trkpt>
      <trkpt lat="45.99709" lon="4.48263">
        <ele>476.7</ele>
        <time>2015-07-09T09:44:33Z</time>
      </trkpt>
      <trkpt lat="45.99721" lon="4.48256">
        <ele>474.3</ele>
        <time>2015-07-09T09:44:36Z</time>
      </trkpt>
      <trkpt lat="45.99732" lon="4.48252">
        <ele>471.8</ele>
        <time>2015-07-09T09:44:38Z</time>
      </trkpt>
      <trkpt lat="45.99745" lon="4.48249">
        <ele>469.4</ele>
        <time>2015-07-09T09:44:41Z</time>
      </trkpt>
      <trkpt lat="45.99755" lon="4.4825">
        <ele>465.6</ele>
        <time>2015-07-09T09:44:43Z</time>
      </trkpt>
      <trkpt lat="45.99761" lon="4.48242">
        <ele>461.9</ele>
        <time>2015-07-09T09:44:45Z</time>
      </trkpt>
      <trkpt lat="45.99768" lon="4.48236">
        <ele>458.2</ele>
        <time>2015-07-09T09:44:47Z</time>
      </trkpt>
      <trkpt lat="45.99779" lon="4.48239">
        <ele>456.9</ele>
        <time>2015-07-09T09:44:52Z</time>
      </trkpt>
      <trkpt lat="45.99787" lon="4.48244">
        <ele>455.6</ele>
        <time>2015-07-09T09:44:53Z</time>
      </trkpt>
      <trkpt lat="45.99796" lon="4.48242">
        <ele>455.7</ele>
        <time>2015-07-09T09:44:58Z</time>
      </trkpt>
      <trkpt lat="45.99808" lon="4.48234">
        <ele>455.8</ele>
        <time>2015-07-09T09:45:01Z</time>
      </trkpt>
      <trkpt lat="45.99818" lon="4.48232">
        <ele>455.9</ele>
        <time>2015-07-09T09:45:03Z</time>
      </trkpt>
      <trkpt lat="45.99826" lon="4.48229">
        <ele>456</ele>
        <time>2015-07-09T09:45:05Z</time>
      </trkpt>
      <trkpt lat="45.99836" lon="4.48223">
        <ele>453.9</ele>
        <time>2015-07-09T09:45:08Z</time>
      </trkpt>
      <trkpt lat="45.99845" lon="4.48217">
        <ele>451.8</ele>
        <time>2015-07-09T09:45:11Z</time>
      </trkpt>
      <trkpt lat="45.99852" lon="4.48211">
        <ele>451</ele>
        <time>2015-07-09T09:45:14Z</time>
      </trkpt>
      <trkpt lat="45.99863" lon="4.48205">
        <ele>450.2</ele>
        <time>2015-07-09T09:45:17Z</time>
      </trkpt>
      <trkpt lat="45.99874" lon="4.48197">
        <ele>449.4</ele>
        <time>2015-07-09T09:45:20Z</time>
      </trkpt>
      <trkpt lat="45.99881" lon="4.48191">
        <ele>447.9</ele>
        <time>2015-07-09T09:45:22Z</time>
      </trkpt>
      <trkpt lat="45.99887" lon="4.48182">
        <ele>446.5</ele>
        <time>2015-07-09T09:45:25Z</time>
      </trkpt>
      <trkpt lat="45.99894" lon="4.48169">
        <ele>443.6</ele>
        <time>2015-07-09T09:45:28Z</time>
      </trkpt>
      <trkpt lat="45.99898" lon="4.48157">
        <ele>440.8</ele>
        <time>2015-07-09T09:45:30Z</time>
      </trkpt>
      <trkpt lat="45.999" lon="4.4814">
        <ele>438</ele>
        <time>2015-07-09T09:45:32Z</time>
      </trkpt>
      <trkpt lat="45.9991" lon="4.48109">
        <ele>435.2</ele>
        <time>2015-07-09T09:45:34Z</time>
      </trkpt>
      <trkpt lat="45.99915" lon="4.48097">
        <ele>434.5</ele>
        <time>2015-07-09T09:45:36Z</time>
      </trkpt>
      <trkpt lat="45.99921" lon="4.48086">
        <ele>434</ele>
        <time>2015-07-09T09:45:39Z</time>
      </trkpt>
      <trkpt lat="45.9993" lon="4.48077">
        <ele>433.5</ele>
        <time>2015-07-09T09:45:42Z</time>
      </trkpt>
      <trkpt lat="45.99938" lon="4.48071">
        <ele>432.9</ele>
        <time>2015-07-09T09:45:44Z</time>
      </trkpt>
      <trkpt lat="45.99945" lon="4.48063">
        <ele>432.4</ele>
        <time>2015-07-09T09:45:48Z</time>
      </trkpt>
      <trkpt lat="45.99949" lon="4.48052">
        <ele>430</ele>
        <time>2015-07-09T09:45:51Z</time>
      </trkpt>
      <trkpt lat="45.99953" lon="4.48037">
        <ele>427.6</ele>
        <time>2015-07-09T09:45:54Z</time>
      </trkpt>
      <trkpt lat="45.99957" lon="4.48022">
        <ele>425.6</ele>
        <time>2015-07-09T09:45:57Z</time>
      </trkpt>
      <trkpt lat="45.9996" lon="4.48008">
        <ele>423.6</ele>
        <time>2015-07-09T09:46:00Z</time>
      </trkpt>
      <trkpt lat="45.99962" lon="4.47994">
        <ele>421.6</ele>
        <time>2015-07-09T09:46:04Z</time>
      </trkpt>
      <trkpt lat="45.99965" lon="4.47982">
        <ele>419.6</ele>
        <time>2015-07-09T09:46:07Z</time>
      </trkpt>
      <trkpt lat="45.99969" lon="4.47969">
        <ele>417.6</ele>
        <time>2015-07-09T09:46:10Z</time>
      </trkpt>
      <trkpt lat="45.99971" lon="4.47957">
        <ele>415.5</ele>
        <time>2015-07-09T09:46:13Z</time>
      </trkpt>
      <trkpt lat="45.99973" lon="4.47945">
        <ele>414.6</ele>
        <time>2015-07-09T09:46:16Z</time>
      </trkpt>
      <trkpt lat="45.99971" lon="4.47931">
        <ele>413.7</ele>
        <time>2015-07-09T09:46:19Z</time>
      </trkpt>
      <trkpt lat="45.9997" lon="4.47917">
        <ele>412.8</ele>
        <time>2015-07-09T09:46:22Z</time>
      </trkpt>
      <trkpt lat="45.99969" lon="4.47902">
        <ele>414.4</ele>
        <time>2015-07-09T09:46:25Z</time>
      </trkpt>
      <trkpt lat="45.99968" lon="4.47884">
        <ele>415.9</ele>
        <time>2015-07-09T09:46:28Z</time>
      </trkpt>
      <trkpt lat="45.99967" lon="4.47871">
        <ele>417.1</ele>
        <time>2015-07-09T09:46:30Z</time>
      </trkpt>
      <trkpt lat="45.99967" lon="4.47855">
        <ele>418.3</ele>
        <time>2015-07-09T09:46:33Z</time>
      </trkpt>
      <trkpt lat="45.99972" lon="4.47844">
        <ele>419.5</ele>
        <time>2015-07-09T09:46:36Z</time>
      </trkpt>
      <trkpt lat="45.9998" lon="4.47841">
        <ele>420.6</ele>
        <time>2015-07-09T09:46:39Z</time>
      </trkpt>
      <trkpt lat="45.99989" lon="4.47839">
        <ele>423.3</ele>
        <time>2015-07-09T09:46:42Z</time>
      </trkpt>
      <trkpt lat="45.99994" lon="4.47826">
        <ele>425.9</ele>
        <time>2015-07-09T09:46:47Z</time>
      </trkpt>
      <trkpt lat="46" lon="4.47814">
        <ele>427.4</ele>
        <time>2015-07-09T09:46:51Z</time>
      </trkpt>
      <trkpt lat="46.00006" lon="4.47805">
        <ele>428.8</ele>
        <time>2015-07-09T09:46:56Z</time>
      </trkpt>
      <trkpt lat="46.00015" lon="4.47797">
        <ele>430.3</ele>
        <time>2015-07-09T09:47:00Z</time>
      </trkpt>
      <trkpt lat="46.00022" lon="4.47787">
        <ele>431.7</ele>
        <time>2015-07-09T09:47:04Z</time>
      </trkpt>
      <trkpt lat="46.00028" lon="4.47774">
        <ele>433.2</ele>
        <time>2015-07-09T09:47:09Z</time>
      </trkpt>
      <trkpt lat="46.0003" lon="4.4776">
        <ele>433.3</ele>
        <time>2015-07-09T09:47:13Z</time>
      </trkpt>
      <trkpt lat="46.00034" lon="4.47749">
        <ele>433.4</ele>
        <time>2015-07-09T09:47:17Z</time>
      </trkpt>
      <trkpt lat="46.00037" lon="4.47737">
        <ele>433.5</ele>
        <time>2015-07-09T09:47:21Z</time>
      </trkpt>
      <trkpt lat="46.0004" lon="4.47726">
        <ele>433.5</ele>
        <time>2015-07-09T09:47:24Z</time>
      </trkpt>
      <trkpt lat="46.00043" lon="4.47714">
        <ele>432.2</ele>
        <time>2015-07-09T09:47:27Z</time>
      </trkpt>
      <trkpt lat="46.00046" lon="4.47701">
        <ele>430.8</ele>
        <time>2015-07-09T09:47:30Z</time>
      </trkpt>
      <trkpt lat="46.00049" lon="4.47689">
        <ele>429.5</ele>
        <time>2015-07-09T09:47:33Z</time>
      </trkpt>
      <trkpt lat="46.00052" lon="4.47678">
        <ele>429.4</ele>
        <time>2015-07-09T09:47:36Z</time>
      </trkpt>
      <trkpt lat="46.00058" lon="4.47666">
        <ele>429.3</ele>
        <time>2015-07-09T09:47:40Z</time>
      </trkpt>
      <trkpt lat="46.00065" lon="4.47658">
        <ele>429.2</ele>
        <time>2015-07-09T09:47:43Z</time>
      </trkpt>
      <trkpt lat="46.00073" lon="4.47646">
        <ele>429.1</ele>
        <time>2015-07-09T09:47:46Z</time>
      </trkpt>
      <trkpt lat="46.00079" lon="4.47635">
        <ele>430.4</ele>
        <time>2015-07-09T09:47:49Z</time>
      </trkpt>
      <trkpt lat="46.00086" lon="4.47624">
        <ele>431.6</ele>
        <time>2015-07-09T09:47:52Z</time>
      </trkpt>
      <trkpt lat="46.00092" lon="4.47613">
        <ele>432.9</ele>
        <time>2015-07-09T09:47:55Z</time>
      </trkpt>
      <trkpt lat="46.00096" lon="4.47602">
        <ele>435.8</ele>
        <time>2015-07-09T09:47:58Z</time>
      </trkpt>
      <trkpt lat="46.00099" lon="4.47589">
        <ele>438.7</ele>
        <time>2015-07-09T09:48:01Z</time>
      </trkpt>
      <trkpt lat="46.00104" lon="4.47575">
        <ele>439</ele>
        <time>2015-07-09T09:48:05Z</time>
      </trkpt>
      <trkpt lat="46.0011" lon="4.47565">
        <ele>439.3</ele>
        <time>2015-07-09T09:48:08Z</time>
      </trkpt>
      <trkpt lat="46.00116" lon="4.4755">
        <ele>438.3</ele>
        <time>2015-07-09T09:48:11Z</time>
      </trkpt>
      <trkpt lat="46.00119" lon="4.47539">
        <ele>437.3</ele>
        <time>2015-07-09T09:48:13Z</time>
      </trkpt>
      <trkpt lat="46.00126" lon="4.47524">
        <ele>438</ele>
        <time>2015-07-09T09:48:16Z</time>
      </trkpt>
      <trkpt lat="46.00133" lon="4.47513">
        <ele>438.7</ele>
        <time>2015-07-09T09:48:19Z</time>
      </trkpt>
      <trkpt lat="46.00138" lon="4.475">
        <ele>439.5</ele>
        <time>2015-07-09T09:48:22Z</time>
      </trkpt>
      <trkpt lat="46.00143" lon="4.47486">
        <ele>440.2</ele>
        <time>2015-07-09T09:48:25Z</time>
      </trkpt>
      <trkpt lat="46.00149" lon="4.47472">
        <ele>440.9</ele>
        <time>2015-07-09T09:48:28Z</time>
      </trkpt>
      <trkpt lat="46.00156" lon="4.4746">
        <ele>440</ele>
        <time>2015-07-09T09:48:31Z</time>
      </trkpt>
      <trkpt lat="46.00164" lon="4.47447">
        <ele>439.1</ele>
        <time>2015-07-09T09:48:34Z</time>
      </trkpt>
      <trkpt lat="46.00172" lon="4.47437">
        <ele>442.2</ele>
        <time>2015-07-09T09:48:37Z</time>
      </trkpt>
      <trkpt lat="46.00178" lon="4.47429">
        <ele>441.9</ele>
        <time>2015-07-09T09:48:40Z</time>
      </trkpt>
      <trkpt lat="46.00186" lon="4.47417">
        <ele>441.6</ele>
        <time>2015-07-09T09:48:43Z</time>
      </trkpt>
      <trkpt lat="46.00193" lon="4.47406">
        <ele>441.4</ele>
        <time>2015-07-09T09:48:46Z</time>
      </trkpt>
      <trkpt lat="46.002" lon="4.47392">
        <ele>439.4</ele>
        <time>2015-07-09T09:48:49Z</time>
      </trkpt>
      <trkpt lat="46.00206" lon="4.47379">
        <ele>437.4</ele>
        <time>2015-07-09T09:48:52Z</time>
      </trkpt>
      <trkpt lat="46.00212" lon="4.47365">
        <ele>436.3</ele>
        <time>2015-07-09T09:48:55Z</time>
      </trkpt>
      <trkpt lat="46.00216" lon="4.47348">
        <ele>435.2</ele>
        <time>2015-07-09T09:48:58Z</time>
      </trkpt>
      <trkpt lat="46.0022" lon="4.47337">
        <ele>434.1</ele>
        <time>2015-07-09T09:49:00Z</time>
      </trkpt>
      <trkpt lat="46.00224" lon="4.47325">
        <ele>433</ele>
        <time>2015-07-09T09:49:02Z</time>
      </trkpt>
      <trkpt lat="46.00228" lon="4.4731">
        <ele>431.9</ele>
        <time>2015-07-09T09:49:04Z</time>
      </trkpt>
      <trkpt lat="46.00232" lon="4.47297">
        <ele>429.5</ele>
        <time>2015-07-09T09:49:06Z</time>
      </trkpt>
      <trkpt lat="46.00237" lon="4.47286">
        <ele>431.5</ele>
        <time>2015-07-09T09:49:08Z</time>
      </trkpt>
      <trkpt lat="46.00241" lon="4.47274">
        <ele>433.5</ele>
        <time>2015-07-09T09:49:10Z</time>
      </trkpt>
      <trkpt lat="46.00246" lon="4.47261">
        <ele>435.5</ele>
        <time>2015-07-09T09:49:12Z</time>
      </trkpt>
      <trkpt lat="46.0025" lon="4.47238">
        <ele>437.5</ele>
        <time>2015-07-09T09:49:14Z</time>
      </trkpt>
      <trkpt lat="46.00255" lon="4.47226">
        <ele>439.5</ele>
        <time>2015-07-09T09:49:16Z</time>
      </trkpt>
      <trkpt lat="46.00261" lon="4.47216">
        <ele>440.5</ele>
        <time>2015-07-09T09:49:18Z</time>
      </trkpt>
      <trkpt lat="46.00265" lon="4.47206">
        <ele>441.6</ele>
        <time>2015-07-09T09:49:20Z</time>
      </trkpt>
      <trkpt lat="46.0027" lon="4.47196">
        <ele>442.8</ele>
        <time>2015-07-09T09:49:22Z</time>
      </trkpt>
      <trkpt lat="46.00277" lon="4.47184">
        <ele>441.7</ele>
        <time>2015-07-09T09:49:24Z</time>
      </trkpt>
      <trkpt lat="46.0028" lon="4.47168">
        <ele>442.9</ele>
        <time>2015-07-09T09:49:26Z</time>
      </trkpt>
      <trkpt lat="46.00285" lon="4.47156">
        <ele>441.8</ele>
        <time>2015-07-09T09:49:28Z</time>
      </trkpt>
      <trkpt lat="46.00287" lon="4.47144">
        <ele>439.6</ele>
        <time>2015-07-09T09:49:30Z</time>
      </trkpt>
      <trkpt lat="46.0029" lon="4.47129">
        <ele>437.5</ele>
        <time>2015-07-09T09:49:32Z</time>
      </trkpt>
      <trkpt lat="46.00292" lon="4.47112">
        <ele>435.2</ele>
        <time>2015-07-09T09:49:34Z</time>
      </trkpt>
      <trkpt lat="46.00292" lon="4.471">
        <ele>432.9</ele>
        <time>2015-07-09T09:49:36Z</time>
      </trkpt>
      <trkpt lat="46.00293" lon="4.47082">
        <ele>432.9</ele>
        <time>2015-07-09T09:49:38Z</time>
      </trkpt>
      <trkpt lat="46.00294" lon="4.47065">
        <ele>432.9</ele>
        <time>2015-07-09T09:49:40Z</time>
      </trkpt>
      <trkpt lat="46.00294" lon="4.47048">
        <ele>432.9</ele>
        <time>2015-07-09T09:49:42Z</time>
      </trkpt>
      <trkpt lat="46.00294" lon="4.47033">
        <ele>432.8</ele>
        <time>2015-07-09T09:49:44Z</time>
      </trkpt>
      <trkpt lat="46.00293" lon="4.47017">
        <ele>435.2</ele>
        <time>2015-07-09T09:49:46Z</time>
      </trkpt>
      <trkpt lat="46.00291" lon="4.47002">
        <ele>435.3</ele>
        <time>2015-07-09T09:49:48Z</time>
      </trkpt>
      <trkpt lat="46.00289" lon="4.4699">
        <ele>435.3</ele>
        <time>2015-07-09T09:49:50Z</time>
      </trkpt>
      <trkpt lat="46.00288" lon="4.46976">
        <ele>435.3</ele>
        <time>2015-07-09T09:49:52Z</time>
      </trkpt>
      <trkpt lat="46.00287" lon="4.46962">
        <ele>435.3</ele>
        <time>2015-07-09T09:49:54Z</time>
      </trkpt>
      <trkpt lat="46.00288" lon="4.46948">
        <ele>435.4</ele>
        <time>2015-07-09T09:49:56Z</time>
      </trkpt>
      <trkpt lat="46.00291" lon="4.46936">
        <ele>436.5</ele>
        <time>2015-07-09T09:49:58Z</time>
      </trkpt>
      <trkpt lat="46.00296" lon="4.46922">
        <ele>435.3</ele>
        <time>2015-07-09T09:50:00Z</time>
      </trkpt>
      <trkpt lat="46.00302" lon="4.46909">
        <ele>434.1</ele>
        <time>2015-07-09T09:50:02Z</time>
      </trkpt>
      <trkpt lat="46.00307" lon="4.46896">
        <ele>432.9</ele>
        <time>2015-07-09T09:50:04Z</time>
      </trkpt>
      <trkpt lat="46.00313" lon="4.46887">
        <ele>431.7</ele>
        <time>2015-07-09T09:50:06Z</time>
      </trkpt>
      <trkpt lat="46.00318" lon="4.46875">
        <ele>430.4</ele>
        <time>2015-07-09T09:50:08Z</time>
      </trkpt>
      <trkpt lat="46.00323" lon="4.46865">
        <ele>429</ele>
        <time>2015-07-09T09:50:10Z</time>
      </trkpt>
      <trkpt lat="46.00328" lon="4.46854">
        <ele>430.9</ele>
        <time>2015-07-09T09:50:12Z</time>
      </trkpt>
      <trkpt lat="46.00334" lon="4.46841">
        <ele>432.8</ele>
        <time>2015-07-09T09:50:14Z</time>
      </trkpt>
      <trkpt lat="46.00341" lon="4.46832">
        <ele>434.7</ele>
        <time>2015-07-09T09:50:16Z</time>
      </trkpt>
      <trkpt lat="46.00345" lon="4.46814">
        <ele>436.6</ele>
        <time>2015-07-09T09:50:18Z</time>
      </trkpt>
      <trkpt lat="46.0035" lon="4.46803">
        <ele>437.5</ele>
        <time>2015-07-09T09:50:20Z</time>
      </trkpt>
      <trkpt lat="46.00355" lon="4.4679">
        <ele>438.5</ele>
        <time>2015-07-09T09:50:22Z</time>
      </trkpt>
      <trkpt lat="46.00359" lon="4.46777">
        <ele>438.1</ele>
        <time>2015-07-09T09:50:24Z</time>
      </trkpt>
      <trkpt lat="46.00362" lon="4.46761">
        <ele>437.7</ele>
        <time>2015-07-09T09:50:26Z</time>
      </trkpt>
      <trkpt lat="46.00367" lon="4.46748">
        <ele>437.4</ele>
        <time>2015-07-09T09:50:28Z</time>
      </trkpt>
      <trkpt lat="46.00372" lon="4.46734">
        <ele>437</ele>
        <time>2015-07-09T09:50:30Z</time>
      </trkpt>
      <trkpt lat="46.00377" lon="4.4672">
        <ele>436.6</ele>
        <time>2015-07-09T09:50:32Z</time>
      </trkpt>
      <trkpt lat="46.00382" lon="4.46708">
        <ele>435.4</ele>
        <time>2015-07-09T09:50:34Z</time>
      </trkpt>
      <trkpt lat="46.00387" lon="4.46695">
        <ele>435.1</ele>
        <time>2015-07-09T09:50:36Z</time>
      </trkpt>
      <trkpt lat="46.00393" lon="4.46681">
        <ele>434.8</ele>
        <time>2015-07-09T09:50:38Z</time>
      </trkpt>
      <trkpt lat="46.00399" lon="4.46666">
        <ele>434.5</ele>
        <time>2015-07-09T09:50:40Z</time>
      </trkpt>
      <trkpt lat="46.00407" lon="4.46652">
        <ele>434.3</ele>
        <time>2015-07-09T09:50:42Z</time>
      </trkpt>
      <trkpt lat="46.00415" lon="4.4664">
        <ele>434</ele>
        <time>2015-07-09T09:50:44Z</time>
      </trkpt>
      <trkpt lat="46.00426" lon="4.46627">
        <ele>435.4</ele>
        <time>2015-07-09T09:50:46Z</time>
      </trkpt>
      <trkpt lat="46.00436" lon="4.46615">
        <ele>435.3</ele>
        <time>2015-07-09T09:50:48Z</time>
      </trkpt>
      <trkpt lat="46.00446" lon="4.46598">
        <ele>435.2</ele>
        <time>2015-07-09T09:50:50Z</time>
      </trkpt>
      <trkpt lat="46.00454" lon="4.46584">
        <ele>435.1</ele>
        <time>2015-07-09T09:50:52Z</time>
      </trkpt>
      <trkpt lat="46.00457" lon="4.46573">
        <ele>435</ele>
        <time>2015-07-09T09:50:53Z</time>
      </trkpt>
      <trkpt lat="46.00463" lon="4.46549">
        <ele>435.2</ele>
        <time>2015-07-09T09:50:55Z</time>
      </trkpt>
      <trkpt lat="46.00467" lon="4.46528">
        <ele>434.4</ele>
        <time>2015-07-09T09:50:57Z</time>
      </trkpt>
      <trkpt lat="46.0047" lon="4.46509">
        <ele>433.5</ele>
        <time>2015-07-09T09:50:59Z</time>
      </trkpt>
      <trkpt lat="46.0047" lon="4.46491">
        <ele>432.7</ele>
        <time>2015-07-09T09:51:01Z</time>
      </trkpt>
      <trkpt lat="46.00469" lon="4.46479">
        <ele>431.9</ele>
        <time>2015-07-09T09:51:02Z</time>
      </trkpt>
      <trkpt lat="46.00469" lon="4.46467">
        <ele>431.1</ele>
        <time>2015-07-09T09:51:03Z</time>
      </trkpt>
      <trkpt lat="46.00469" lon="4.46449">
        <ele>430.5</ele>
        <time>2015-07-09T09:51:05Z</time>
      </trkpt>
      <trkpt lat="46.00467" lon="4.46432">
        <ele>431.3</ele>
        <time>2015-07-09T09:51:07Z</time>
      </trkpt>
      <trkpt lat="46.00467" lon="4.46414">
        <ele>432.1</ele>
        <time>2015-07-09T09:51:09Z</time>
      </trkpt>
      <trkpt lat="46.00466" lon="4.46394">
        <ele>432.4</ele>
        <time>2015-07-09T09:51:11Z</time>
      </trkpt>
      <trkpt lat="46.00464" lon="4.46376">
        <ele>432.8</ele>
        <time>2015-07-09T09:51:13Z</time>
      </trkpt>
      <trkpt lat="46.00461" lon="4.46356">
        <ele>433</ele>
        <time>2015-07-09T09:51:15Z</time>
      </trkpt>
      <trkpt lat="46.0046" lon="4.46336">
        <ele>433.2</ele>
        <time>2015-07-09T09:51:17Z</time>
      </trkpt>
      <trkpt lat="46.0046" lon="4.46316">
        <ele>433.4</ele>
        <time>2015-07-09T09:51:19Z</time>
      </trkpt>
      <trkpt lat="46.0046" lon="4.46298">
        <ele>433.5</ele>
        <time>2015-07-09T09:51:21Z</time>
      </trkpt>
      <trkpt lat="46.00463" lon="4.46281">
        <ele>433.7</ele>
        <time>2015-07-09T09:51:23Z</time>
      </trkpt>
      <trkpt lat="46.00466" lon="4.46265">
        <ele>433.9</ele>
        <time>2015-07-09T09:51:25Z</time>
      </trkpt>
      <trkpt lat="46.0047" lon="4.46249">
        <ele>433.5</ele>
        <time>2015-07-09T09:51:27Z</time>
      </trkpt>
      <trkpt lat="46.00474" lon="4.46238">
        <ele>433.2</ele>
        <time>2015-07-09T09:51:29Z</time>
      </trkpt>
      <trkpt lat="46.00485" lon="4.46238">
        <ele>432.6</ele>
        <time>2015-07-09T09:51:33Z</time>
      </trkpt>
      <trkpt lat="46.0049" lon="4.4625">
        <ele>432.6</ele>
        <time>2015-07-09T09:51:36Z</time>
      </trkpt>
      <trkpt lat="46.00494" lon="4.46262">
        <ele>432.5</ele>
        <time>2015-07-09T09:51:39Z</time>
      </trkpt>
      <trkpt lat="46.005" lon="4.46276">
        <ele>432.3</ele>
        <time>2015-07-09T09:51:41Z</time>
      </trkpt>
      <trkpt lat="46.00504" lon="4.46288">
        <ele>432.1</ele>
        <time>2015-07-09T09:51:43Z</time>
      </trkpt>
      <trkpt lat="46.00509" lon="4.46304">
        <ele>431.9</ele>
        <time>2015-07-09T09:51:45Z</time>
      </trkpt>
      <trkpt lat="46.00513" lon="4.46321">
        <ele>431.7</ele>
        <time>2015-07-09T09:51:47Z</time>
      </trkpt>
      <trkpt lat="46.00515" lon="4.46337">
        <ele>431.5</ele>
        <time>2015-07-09T09:51:49Z</time>
      </trkpt>
      <trkpt lat="46.00517" lon="4.46355">
        <ele>431.4</ele>
        <time>2015-07-09T09:51:51Z</time>
      </trkpt>
      <trkpt lat="46.00518" lon="4.46372">
        <ele>431.2</ele>
        <time>2015-07-09T09:51:53Z</time>
      </trkpt>
      <trkpt lat="46.00518" lon="4.46388">
        <ele>431</ele>
        <time>2015-07-09T09:51:55Z</time>
      </trkpt>
      <trkpt lat="46.00518" lon="4.46404">
        <ele>430.7</ele>
        <time>2015-07-09T09:51:57Z</time>
      </trkpt>
      <trkpt lat="46.00518" lon="4.46418">
        <ele>430.5</ele>
        <time>2015-07-09T09:51:59Z</time>
      </trkpt>
      <trkpt lat="46.0052" lon="4.4643">
        <ele>430.2</ele>
        <time>2015-07-09T09:52:01Z</time>
      </trkpt>
      <trkpt lat="46.00525" lon="4.46446">
        <ele>429.9</ele>
        <time>2015-07-09T09:52:03Z</time>
      </trkpt>
      <trkpt lat="46.0053" lon="4.46462">
        <ele>430.9</ele>
        <time>2015-07-09T09:52:05Z</time>
      </trkpt>
      <trkpt lat="46.00533" lon="4.46477">
        <ele>431.9</ele>
        <time>2015-07-09T09:52:07Z</time>
      </trkpt>
      <trkpt lat="46.00536" lon="4.46491">
        <ele>431.8</ele>
        <time>2015-07-09T09:52:09Z</time>
      </trkpt>
      <trkpt lat="46.00539" lon="4.46507">
        <ele>431.7</ele>
        <time>2015-07-09T09:52:12Z</time>
      </trkpt>
      <trkpt lat="46.00542" lon="4.46522">
        <ele>431.6</ele>
        <time>2015-07-09T09:52:14Z</time>
      </trkpt>
      <trkpt lat="46.00546" lon="4.46533">
        <ele>431.5</ele>
        <time>2015-07-09T09:52:16Z</time>
      </trkpt>
      <trkpt lat="46.00552" lon="4.46548">
        <ele>431.5</ele>
        <time>2015-07-09T09:52:19Z</time>
      </trkpt>
      <trkpt lat="46.0056" lon="4.4656">
        <ele>431.6</ele>
        <time>2015-07-09T09:52:22Z</time>
      </trkpt>
      <trkpt lat="46.00567" lon="4.4657">
        <ele>431.8</ele>
        <time>2015-07-09T09:52:25Z</time>
      </trkpt>
      <trkpt lat="46.00573" lon="4.4658">
        <ele>432.7</ele>
        <time>2015-07-09T09:52:29Z</time>
      </trkpt>
      <trkpt lat="46.00578" lon="4.46592">
        <ele>433.6</ele>
        <time>2015-07-09T09:52:34Z</time>
      </trkpt>
      <trkpt lat="46.0058" lon="4.46605">
        <ele>433.3</ele>
        <time>2015-07-09T09:52:39Z</time>
      </trkpt>
      <trkpt lat="46.00578" lon="4.46617">
        <ele>432.9</ele>
        <time>2015-07-09T09:52:44Z</time>
      </trkpt>
      <trkpt lat="46.00574" lon="4.46628">
        <ele>433.6</ele>
        <time>2015-07-09T09:52:49Z</time>
      </trkpt>
      <trkpt lat="46.0057" lon="4.46638">
        <ele>434.4</ele>
        <time>2015-07-09T09:52:54Z</time>
      </trkpt>
      <trkpt lat="46.00567" lon="4.4665">
        <ele>435.1</ele>
        <time>2015-07-09T09:52:59Z</time>
      </trkpt>
      <trkpt lat="46.00565" lon="4.46662">
        <ele>436.8</ele>
        <time>2015-07-09T09:53:04Z</time>
      </trkpt>
      <trkpt lat="46.00562" lon="4.46674">
        <ele>438.5</ele>
        <time>2015-07-09T09:53:09Z</time>
      </trkpt>
      <trkpt lat="46.00559" lon="4.46686">
        <ele>440.3</ele>
        <time>2015-07-09T09:53:14Z</time>
      </trkpt>
      <trkpt lat="46.00556" lon="4.46698">
        <ele>442</ele>
        <time>2015-07-09T09:53:19Z</time>
      </trkpt>
      <trkpt lat="46.00553" lon="4.4671">
        <ele>443</ele>
        <time>2015-07-09T09:53:24Z</time>
      </trkpt>
      <trkpt lat="46.00552" lon="4.46722">
        <ele>444</ele>
        <time>2015-07-09T09:53:29Z</time>
      </trkpt>
      <trkpt lat="46.00552" lon="4.46735">
        <ele>445</ele>
        <time>2015-07-09T09:53:34Z</time>
      </trkpt>
      <trkpt lat="46.00553" lon="4.46747">
        <ele>446.1</ele>
        <time>2015-07-09T09:53:39Z</time>
      </trkpt>
      <trkpt lat="46.00553" lon="4.4676">
        <ele>447.2</ele>
        <time>2015-07-09T09:53:44Z</time>
      </trkpt>
      <trkpt lat="46.00554" lon="4.46772">
        <ele>448.3</ele>
        <time>2015-07-09T09:53:49Z</time>
      </trkpt>
      <trkpt lat="46.00555" lon="4.46784">
        <ele>449.4</ele>
        <time>2015-07-09T09:53:54Z</time>
      </trkpt>
      <trkpt lat="46.00557" lon="4.46796">
        <ele>449.5</ele>
        <time>2015-07-09T09:53:59Z</time>
      </trkpt>
      <trkpt lat="46.00559" lon="4.46808">
        <ele>449.5</ele>
        <time>2015-07-09T09:54:04Z</time>
      </trkpt>
      <trkpt lat="46.00563" lon="4.46821">
        <ele>449.6</ele>
        <time>2015-07-09T09:54:09Z</time>
      </trkpt>
      <trkpt lat="46.00568" lon="4.46832">
        <ele>449.3</ele>
        <time>2015-07-09T09:54:14Z</time>
      </trkpt>
      <trkpt lat="46.00573" lon="4.46842">
        <ele>448.9</ele>
        <time>2015-07-09T09:54:19Z</time>
      </trkpt>
      <trkpt lat="46.00579" lon="4.46852">
        <ele>448.5</ele>
        <time>2015-07-09T09:54:25Z</time>
      </trkpt>
      <trkpt lat="46.00584" lon="4.46862">
        <ele>448.2</ele>
        <time>2015-07-09T09:54:31Z</time>
      </trkpt>
      <trkpt lat="46.00588" lon="4.46873">
        <ele>447.7</ele>
        <time>2015-07-09T09:54:35Z</time>
      </trkpt>
      <trkpt lat="46.00593" lon="4.46891">
        <ele>447.3</ele>
        <time>2015-07-09T09:54:38Z</time>
      </trkpt>
      <trkpt lat="46.00598" lon="4.46906">
        <ele>447.4</ele>
        <time>2015-07-09T09:54:39Z</time>
      </trkpt>
      <trkpt lat="46.00606" lon="4.46923">
        <ele>447.5</ele>
        <time>2015-07-09T09:54:41Z</time>
      </trkpt>
      <trkpt lat="46.00615" lon="4.46939">
        <ele>447.5</ele>
        <time>2015-07-09T09:54:43Z</time>
      </trkpt>
      <trkpt lat="46.0062" lon="4.46948">
        <ele>447.6</ele>
        <time>2015-07-09T09:54:44Z</time>
      </trkpt>
      <trkpt lat="46.00625" lon="4.46958">
        <ele>447.7</ele>
        <time>2015-07-09T09:54:45Z</time>
      </trkpt>
      <trkpt lat="46.0063" lon="4.46969">
        <ele>448.3</ele>
        <time>2015-07-09T09:54:46Z</time>
      </trkpt>
      <trkpt lat="46.00636" lon="4.46981">
        <ele>449</ele>
        <time>2015-07-09T09:54:47Z</time>
      </trkpt>
      <trkpt lat="46.00642" lon="4.46993">
        <ele>449.7</ele>
        <time>2015-07-09T09:54:48Z</time>
      </trkpt>
      <trkpt lat="46.00647" lon="4.47004">
        <ele>450.5</ele>
        <time>2015-07-09T09:54:49Z</time>
      </trkpt>
      <trkpt lat="46.00652" lon="4.47014">
        <ele>451.2</ele>
        <time>2015-07-09T09:54:50Z</time>
      </trkpt>
      <trkpt lat="46.00658" lon="4.47032">
        <ele>451.9</ele>
        <time>2015-07-09T09:54:52Z</time>
      </trkpt>
      <trkpt lat="46.00661" lon="4.47047">
        <ele>452.1</ele>
        <time>2015-07-09T09:54:54Z</time>
      </trkpt>
      <trkpt lat="46.00661" lon="4.47061">
        <ele>452.3</ele>
        <time>2015-07-09T09:54:57Z</time>
      </trkpt>
      <trkpt lat="46.00661" lon="4.47073">
        <ele>452.5</ele>
        <time>2015-07-09T09:55:17Z</time>
      </trkpt>
      <trkpt lat="46.00657" lon="4.47083">
        <ele>452.6</ele>
        <time>2015-07-09T09:55:23Z</time>
      </trkpt>
      <trkpt lat="46.00651" lon="4.47093">
        <ele>453.1</ele>
        <time>2015-07-09T09:55:29Z</time>
      </trkpt>
      <trkpt lat="46.00646" lon="4.47102">
        <ele>453.5</ele>
        <time>2015-07-09T09:55:35Z</time>
      </trkpt>
      <trkpt lat="46.0064" lon="4.47112">
        <ele>453.8</ele>
        <time>2015-07-09T09:55:41Z</time>
      </trkpt>
      <trkpt lat="46.00635" lon="4.47123">
        <ele>454.1</ele>
        <time>2015-07-09T09:55:47Z</time>
      </trkpt>
      <trkpt lat="46.00629" lon="4.47133">
        <ele>454.4</ele>
        <time>2015-07-09T09:55:53Z</time>
      </trkpt>
      <trkpt lat="46.00623" lon="4.47143">
        <ele>454.6</ele>
        <time>2015-07-09T09:55:59Z</time>
      </trkpt>
      <trkpt lat="46.00618" lon="4.47153">
        <ele>454.9</ele>
        <time>2015-07-09T09:56:04Z</time>
      </trkpt>
      <trkpt lat="46.00612" lon="4.47163">
        <ele>455.2</ele>
        <time>2015-07-09T09:56:09Z</time>
      </trkpt>
      <trkpt lat="46.00606" lon="4.47172">
        <ele>456.5</ele>
        <time>2015-07-09T09:56:14Z</time>
      </trkpt>
      <trkpt lat="46.006" lon="4.47182">
        <ele>457.9</ele>
        <time>2015-07-09T09:56:20Z</time>
      </trkpt>
      <trkpt lat="46.00594" lon="4.47192">
        <ele>459.3</ele>
        <time>2015-07-09T09:56:26Z</time>
      </trkpt>
      <trkpt lat="46.0059" lon="4.47201">
        <ele>460.4</ele>
        <time>2015-07-09T09:56:31Z</time>
      </trkpt>
      <trkpt lat="46.00583" lon="4.47212">
        <ele>461.5</ele>
        <time>2015-07-09T09:56:37Z</time>
      </trkpt>
      <trkpt lat="46.00578" lon="4.47223">
        <ele>462.5</ele>
        <time>2015-07-09T09:56:43Z</time>
      </trkpt>
      <trkpt lat="46.00574" lon="4.47235">
        <ele>463.6</ele>
        <time>2015-07-09T09:56:50Z</time>
      </trkpt>
      <trkpt lat="46.00571" lon="4.47247">
        <ele>465.5</ele>
        <time>2015-07-09T09:56:56Z</time>
      </trkpt>
      <trkpt lat="46.00567" lon="4.4726">
        <ele>467.5</ele>
        <time>2015-07-09T09:57:02Z</time>
      </trkpt>
      <trkpt lat="46.00563" lon="4.47273">
        <ele>469.4</ele>
        <time>2015-07-09T09:57:08Z</time>
      </trkpt>
      <trkpt lat="46.00561" lon="4.47285">
        <ele>471.3</ele>
        <time>2015-07-09T09:57:13Z</time>
      </trkpt>
      <trkpt lat="46.00559" lon="4.47299">
        <ele>472.1</ele>
        <time>2015-07-09T09:57:18Z</time>
      </trkpt>
      <trkpt lat="46.00555" lon="4.47311">
        <ele>470</ele>
        <time>2015-07-09T09:57:23Z</time>
      </trkpt>
      <trkpt lat="46.00552" lon="4.47323">
        <ele>467.9</ele>
        <time>2015-07-09T09:57:27Z</time>
      </trkpt>
      <trkpt lat="46.00549" lon="4.47338">
        <ele>465.8</ele>
        <time>2015-07-09T09:57:31Z</time>
      </trkpt>
      <trkpt lat="46.00548" lon="4.47353">
        <ele>463.7</ele>
        <time>2015-07-09T09:57:34Z</time>
      </trkpt>
      <trkpt lat="46.00546" lon="4.47365">
        <ele>461.6</ele>
        <time>2015-07-09T09:57:36Z</time>
      </trkpt>
      <trkpt lat="46.00543" lon="4.47385">
        <ele>459.5</ele>
        <time>2015-07-09T09:57:38Z</time>
      </trkpt>
      <trkpt lat="46.00541" lon="4.47403">
        <ele>456.6</ele>
        <time>2015-07-09T09:57:40Z</time>
      </trkpt>
      <trkpt lat="46.00538" lon="4.47423">
        <ele>453.7</ele>
        <time>2015-07-09T09:57:42Z</time>
      </trkpt>
      <trkpt lat="46.00537" lon="4.47445">
        <ele>450.8</ele>
        <time>2015-07-09T09:57:44Z</time>
      </trkpt>
      <trkpt lat="46.00537" lon="4.47457">
        <ele>450.6</ele>
        <time>2015-07-09T09:57:45Z</time>
      </trkpt>
      <trkpt lat="46.00538" lon="4.4747">
        <ele>450.5</ele>
        <time>2015-07-09T09:57:46Z</time>
      </trkpt>
      <trkpt lat="46.00539" lon="4.47482">
        <ele>453.2</ele>
        <time>2015-07-09T09:57:47Z</time>
      </trkpt>
      <trkpt lat="46.0054" lon="4.47494">
        <ele>455.3</ele>
        <time>2015-07-09T09:57:48Z</time>
      </trkpt>
      <trkpt lat="46.00543" lon="4.47507">
        <ele>457.4</ele>
        <time>2015-07-09T09:57:49Z</time>
      </trkpt>
      <trkpt lat="46.00546" lon="4.4752">
        <ele>459.5</ele>
        <time>2015-07-09T09:57:50Z</time>
      </trkpt>
      <trkpt lat="46.00548" lon="4.47534">
        <ele>461.5</ele>
        <time>2015-07-09T09:57:51Z</time>
      </trkpt>
      <trkpt lat="46.00551" lon="4.47548">
        <ele>463.6</ele>
        <time>2015-07-09T09:57:52Z</time>
      </trkpt>
      <trkpt lat="46.00554" lon="4.47562">
        <ele>465.7</ele>
        <time>2015-07-09T09:57:53Z</time>
      </trkpt>
      <trkpt lat="46.00557" lon="4.47576">
        <ele>468.1</ele>
        <time>2015-07-09T09:57:54Z</time>
      </trkpt>
      <trkpt lat="46.00558" lon="4.47591">
        <ele>470.5</ele>
        <time>2015-07-09T09:57:55Z</time>
      </trkpt>
      <trkpt lat="46.00559" lon="4.47605">
        <ele>470.1</ele>
        <time>2015-07-09T09:57:56Z</time>
      </trkpt>
      <trkpt lat="46.00558" lon="4.47618">
        <ele>469.7</ele>
        <time>2015-07-09T09:57:57Z</time>
      </trkpt>
      <trkpt lat="46.00556" lon="4.47631">
        <ele>470</ele>
        <time>2015-07-09T09:57:58Z</time>
      </trkpt>
      <trkpt lat="46.00553" lon="4.47654">
        <ele>468.8</ele>
        <time>2015-07-09T09:58:00Z</time>
      </trkpt>
      <trkpt lat="46.00552" lon="4.47667">
        <ele>467.6</ele>
        <time>2015-07-09T09:58:01Z</time>
      </trkpt>
      <trkpt lat="46.0055" lon="4.47686">
        <ele>466.5</ele>
        <time>2015-07-09T09:58:03Z</time>
      </trkpt>
      <trkpt lat="46.00548" lon="4.47703">
        <ele>465.3</ele>
        <time>2015-07-09T09:58:05Z</time>
      </trkpt>
      <trkpt lat="46.00546" lon="4.47718">
        <ele>464.1</ele>
        <time>2015-07-09T09:58:07Z</time>
      </trkpt>
      <trkpt lat="46.00545" lon="4.47733">
        <ele>462.9</ele>
        <time>2015-07-09T09:58:09Z</time>
      </trkpt>
      <trkpt lat="46.00543" lon="4.47748">
        <ele>462.5</ele>
        <time>2015-07-09T09:58:11Z</time>
      </trkpt>
      <trkpt lat="46.00541" lon="4.47759">
        <ele>462</ele>
        <time>2015-07-09T09:58:13Z</time>
      </trkpt>
      <trkpt lat="46.00537" lon="4.4777">
        <ele>461.5</ele>
        <time>2015-07-09T09:58:15Z</time>
      </trkpt>
      <trkpt lat="46.00531" lon="4.4778">
        <ele>461.1</ele>
        <time>2015-07-09T09:58:18Z</time>
      </trkpt>
      <trkpt lat="46.00523" lon="4.47789">
        <ele>460</ele>
        <time>2015-07-09T09:58:21Z</time>
      </trkpt>
      <trkpt lat="46.00515" lon="4.47798">
        <ele>461</ele>
        <time>2015-07-09T09:58:25Z</time>
      </trkpt>
      <trkpt lat="46.00507" lon="4.47808">
        <ele>462</ele>
        <time>2015-07-09T09:58:29Z</time>
      </trkpt>
      <trkpt lat="46.00501" lon="4.4782">
        <ele>464.1</ele>
        <time>2015-07-09T09:58:33Z</time>
      </trkpt>
      <trkpt lat="46.00498" lon="4.47833">
        <ele>466.2</ele>
        <time>2015-07-09T09:58:37Z</time>
      </trkpt>
      <trkpt lat="46.00495" lon="4.47846">
        <ele>468.3</ele>
        <time>2015-07-09T09:58:41Z</time>
      </trkpt>
      <trkpt lat="46.00494" lon="4.47859">
        <ele>470.4</ele>
        <time>2015-07-09T09:58:47Z</time>
      </trkpt>
      <trkpt lat="46.00492" lon="4.47872">
        <ele>471.5</ele>
        <time>2015-07-09T09:58:53Z</time>
      </trkpt>
      <trkpt lat="46.00491" lon="4.47885">
        <ele>472.5</ele>
        <time>2015-07-09T09:58:59Z</time>
      </trkpt>
      <trkpt lat="46.0049" lon="4.47898">
        <ele>473.6</ele>
        <time>2015-07-09T09:59:05Z</time>
      </trkpt>
      <trkpt lat="46.00488" lon="4.4791">
        <ele>475.6</ele>
        <time>2015-07-09T09:59:10Z</time>
      </trkpt>
      <trkpt lat="46.00487" lon="4.47922">
        <ele>477.6</ele>
        <time>2015-07-09T09:59:15Z</time>
      </trkpt>
      <trkpt lat="46.00485" lon="4.47934">
        <ele>479.6</ele>
        <time>2015-07-09T09:59:20Z</time>
      </trkpt>
      <trkpt lat="46.00482" lon="4.47945">
        <ele>481.6</ele>
        <time>2015-07-09T09:59:25Z</time>
      </trkpt>
      <trkpt lat="46.0048" lon="4.47957">
        <ele>481.6</ele>
        <time>2015-07-09T09:59:31Z</time>
      </trkpt>
      <trkpt lat="46.00477" lon="4.47969">
        <ele>481.6</ele>
        <time>2015-07-09T09:59:37Z</time>
      </trkpt>
      <trkpt lat="46.00474" lon="4.47982">
        <ele>482.6</ele>
        <time>2015-07-09T09:59:43Z</time>
      </trkpt>
      <trkpt lat="46.0047" lon="4.47995">
        <ele>483.6</ele>
        <time>2015-07-09T09:59:49Z</time>
      </trkpt>
      <trkpt lat="46.00466" lon="4.48006">
        <ele>484.6</ele>
        <time>2015-07-09T09:59:56Z</time>
      </trkpt>
      <trkpt lat="46.00462" lon="4.48019">
        <ele>485.6</ele>
        <time>2015-07-09T10:00:02Z</time>
      </trkpt>
      <trkpt lat="46.00459" lon="4.48032">
        <ele>487</ele>
        <time>2015-07-09T10:00:08Z</time>
      </trkpt>
      <trkpt lat="46.00458" lon="4.48045">
        <ele>487.5</ele>
        <time>2015-07-09T10:00:14Z</time>
      </trkpt>
      <trkpt lat="46.00458" lon="4.48058">
        <ele>487.9</ele>
        <time>2015-07-09T10:00:20Z</time>
      </trkpt>
      <trkpt lat="46.0046" lon="4.48072">
        <ele>488.4</ele>
        <time>2015-07-09T10:00:26Z</time>
      </trkpt>
      <trkpt lat="46.00462" lon="4.48086">
        <ele>488.5</ele>
        <time>2015-07-09T10:00:32Z</time>
      </trkpt>
      <trkpt lat="46.00464" lon="4.48097">
        <ele>489.6</ele>
        <time>2015-07-09T10:00:37Z</time>
      </trkpt>
      <trkpt lat="46.00468" lon="4.48109">
        <ele>490.7</ele>
        <time>2015-07-09T10:00:42Z</time>
      </trkpt>
      <trkpt lat="46.00472" lon="4.4812">
        <ele>490.8</ele>
        <time>2015-07-09T10:00:47Z</time>
      </trkpt>
      <trkpt lat="46.00476" lon="4.48131">
        <ele>490.9</ele>
        <time>2015-07-09T10:00:52Z</time>
      </trkpt>
      <trkpt lat="46.00479" lon="4.48142">
        <ele>491.2</ele>
        <time>2015-07-09T10:00:56Z</time>
      </trkpt>
      <trkpt lat="46.00478" lon="4.48155">
        <ele>491.5</ele>
        <time>2015-07-09T10:00:59Z</time>
      </trkpt>
      <trkpt lat="46.00474" lon="4.48167">
        <ele>491.7</ele>
        <time>2015-07-09T10:01:02Z</time>
      </trkpt>
      <trkpt lat="46.00471" lon="4.48179">
        <ele>492</ele>
        <time>2015-07-09T10:01:05Z</time>
      </trkpt>
      <trkpt lat="46.00467" lon="4.48193">
        <ele>492.3</ele>
        <time>2015-07-09T10:01:08Z</time>
      </trkpt>
      <trkpt lat="46.00462" lon="4.48208">
        <ele>492.5</ele>
        <time>2015-07-09T10:01:11Z</time>
      </trkpt>
      <trkpt lat="46.00456" lon="4.4822">
        <ele>493.1</ele>
        <time>2015-07-09T10:01:14Z</time>
      </trkpt>
      <trkpt lat="46.00453" lon="4.4823">
        <ele>493.6</ele>
        <time>2015-07-09T10:01:16Z</time>
      </trkpt>
      <trkpt lat="46.00449" lon="4.48244">
        <ele>494.6</ele>
        <time>2015-07-09T10:01:18Z</time>
      </trkpt>
      <trkpt lat="46.00448" lon="4.48257">
        <ele>495.6</ele>
        <time>2015-07-09T10:01:19Z</time>
      </trkpt>
      <trkpt lat="46.00446" lon="4.48269">
        <ele>496.6</ele>
        <time>2015-07-09T10:01:21Z</time>
      </trkpt>
      <trkpt lat="46.00443" lon="4.48285">
        <ele>497.5</ele>
        <time>2015-07-09T10:01:23Z</time>
      </trkpt>
      <trkpt lat="46.00441" lon="4.48302">
        <ele>498.3</ele>
        <time>2015-07-09T10:01:25Z</time>
      </trkpt>
      <trkpt lat="46.00438" lon="4.48319">
        <ele>498.5</ele>
        <time>2015-07-09T10:01:27Z</time>
      </trkpt>
      <trkpt lat="46.00435" lon="4.48333">
        <ele>498.8</ele>
        <time>2015-07-09T10:01:29Z</time>
      </trkpt>
      <trkpt lat="46.00432" lon="4.48349">
        <ele>499.1</ele>
        <time>2015-07-09T10:01:31Z</time>
      </trkpt>
      <trkpt lat="46.00429" lon="4.48366">
        <ele>499.4</ele>
        <time>2015-07-09T10:01:33Z</time>
      </trkpt>
      <trkpt lat="46.00426" lon="4.48377">
        <ele>499.6</ele>
        <time>2015-07-09T10:01:35Z</time>
      </trkpt>
      <trkpt lat="46.00422" lon="4.4839">
        <ele>499.9</ele>
        <time>2015-07-09T10:01:37Z</time>
      </trkpt>
      <trkpt lat="46.00419" lon="4.48404">
        <ele>499.3</ele>
        <time>2015-07-09T10:01:40Z</time>
      </trkpt>
      <trkpt lat="46.00418" lon="4.48417">
        <ele>498.6</ele>
        <time>2015-07-09T10:01:42Z</time>
      </trkpt>
      <trkpt lat="46.00416" lon="4.48429">
        <ele>498</ele>
        <time>2015-07-09T10:01:45Z</time>
      </trkpt>
      <trkpt lat="46.00413" lon="4.48441">
        <ele>497.4</ele>
        <time>2015-07-09T10:01:48Z</time>
      </trkpt>
      <trkpt lat="46.00412" lon="4.48456">
        <ele>495.8</ele>
        <time>2015-07-09T10:01:51Z</time>
      </trkpt>
      <trkpt lat="46.0041" lon="4.48483">
        <ele>494.5</ele>
        <time>2015-07-09T10:01:53Z</time>
      </trkpt>
      <trkpt lat="46.00406" lon="4.48502">
        <ele>493.1</ele>
        <time>2015-07-09T10:01:55Z</time>
      </trkpt>
      <trkpt lat="46.00404" lon="4.4852">
        <ele>491.7</ele>
        <time>2015-07-09T10:01:57Z</time>
      </trkpt>
      <trkpt lat="46.00402" lon="4.48535">
        <ele>490.4</ele>
        <time>2015-07-09T10:01:59Z</time>
      </trkpt>
      <trkpt lat="46.00403" lon="4.48553">
        <ele>488.2</ele>
        <time>2015-07-09T10:02:01Z</time>
      </trkpt>
      <trkpt lat="46.00409" lon="4.48572">
        <ele>486</ele>
        <time>2015-07-09T10:02:03Z</time>
      </trkpt>
      <trkpt lat="46.00416" lon="4.48587">
        <ele>484.3</ele>
        <time>2015-07-09T10:02:05Z</time>
      </trkpt>
      <trkpt lat="46.0042" lon="4.48602">
        <ele>482.5</ele>
        <time>2015-07-09T10:02:07Z</time>
      </trkpt>
      <trkpt lat="46.00424" lon="4.48617">
        <ele>480.8</ele>
        <time>2015-07-09T10:02:09Z</time>
      </trkpt>
      <trkpt lat="46.00427" lon="4.48633">
        <ele>479.1</ele>
        <time>2015-07-09T10:02:11Z</time>
      </trkpt>
      <trkpt lat="46.00427" lon="4.48649">
        <ele>477.5</ele>
        <time>2015-07-09T10:02:13Z</time>
      </trkpt>
      <trkpt lat="46.00428" lon="4.48663">
        <ele>475.8</ele>
        <time>2015-07-09T10:02:15Z</time>
      </trkpt>
      <trkpt lat="46.00431" lon="4.48679">
        <ele>474.2</ele>
        <time>2015-07-09T10:02:17Z</time>
      </trkpt>
      <trkpt lat="46.00433" lon="4.48694">
        <ele>472.5</ele>
        <time>2015-07-09T10:02:19Z</time>
      </trkpt>
      <trkpt lat="46.00435" lon="4.48712">
        <ele>470.9</ele>
        <time>2015-07-09T10:02:21Z</time>
      </trkpt>
      <trkpt lat="46.00434" lon="4.48729">
        <ele>469.5</ele>
        <time>2015-07-09T10:02:23Z</time>
      </trkpt>
      <trkpt lat="46.00436" lon="4.48746">
        <ele>468</ele>
        <time>2015-07-09T10:02:25Z</time>
      </trkpt>
      <trkpt lat="46.00437" lon="4.48764">
        <ele>466.5</ele>
        <time>2015-07-09T10:02:27Z</time>
      </trkpt>
      <trkpt lat="46.0044" lon="4.48777">
        <ele>465.1</ele>
        <time>2015-07-09T10:02:29Z</time>
      </trkpt>
      <trkpt lat="46.00442" lon="4.48791">
        <ele>463.6</ele>
        <time>2015-07-09T10:02:32Z</time>
      </trkpt>
      <trkpt lat="46.00441" lon="4.48807">
        <ele>462.2</ele>
        <time>2015-07-09T10:02:35Z</time>
      </trkpt>
      <trkpt lat="46.00439" lon="4.48821">
        <ele>461.3</ele>
        <time>2015-07-09T10:02:37Z</time>
      </trkpt>
      <trkpt lat="46.00435" lon="4.48834">
        <ele>460.4</ele>
        <time>2015-07-09T10:02:39Z</time>
      </trkpt>
      <trkpt lat="46.00431" lon="4.48848">
        <ele>459.5</ele>
        <time>2015-07-09T10:02:41Z</time>
      </trkpt>
      <trkpt lat="46.00428" lon="4.4886">
        <ele>458.5</ele>
        <time>2015-07-09T10:02:43Z</time>
      </trkpt>
      <trkpt lat="46.00424" lon="4.4887">
        <ele>457.6</ele>
        <time>2015-07-09T10:02:45Z</time>
      </trkpt>
      <trkpt lat="46.00419" lon="4.48881">
        <ele>457.4</ele>
        <time>2015-07-09T10:02:47Z</time>
      </trkpt>
      <trkpt lat="46.00411" lon="4.48889">
        <ele>455.5</ele>
        <time>2015-07-09T10:02:49Z</time>
      </trkpt>
      <trkpt lat="46.00403" lon="4.48898">
        <ele>453.5</ele>
        <time>2015-07-09T10:02:51Z</time>
      </trkpt>
      <trkpt lat="46.00398" lon="4.48909">
        <ele>452.3</ele>
        <time>2015-07-09T10:02:53Z</time>
      </trkpt>
      <trkpt lat="46.00387" lon="4.48918">
        <ele>451</ele>
        <time>2015-07-09T10:02:56Z</time>
      </trkpt>
      <trkpt lat="46.00381" lon="4.4893">
        <ele>449.7</ele>
        <time>2015-07-09T10:02:58Z</time>
      </trkpt>
      <trkpt lat="46.00375" lon="4.48947">
        <ele>448.7</ele>
        <time>2015-07-09T10:03:01Z</time>
      </trkpt>
      <trkpt lat="46.00368" lon="4.48958">
        <ele>447.7</ele>
        <time>2015-07-09T10:03:04Z</time>
      </trkpt>
      <trkpt lat="46.00357" lon="4.48965">
        <ele>446.7</ele>
        <time>2015-07-09T10:03:07Z</time>
      </trkpt>
      <trkpt lat="46.0035" lon="4.48971">
        <ele>445.7</ele>
        <time>2015-07-09T10:03:09Z</time>
      </trkpt>
      <trkpt lat="46.00342" lon="4.48977">
        <ele>444.7</ele>
        <time>2015-07-09T10:03:11Z</time>
      </trkpt>
      <trkpt lat="46.00334" lon="4.48986">
        <ele>444.1</ele>
        <time>2015-07-09T10:03:13Z</time>
      </trkpt>
      <trkpt lat="46.00325" lon="4.48997">
        <ele>445.1</ele>
        <time>2015-07-09T10:03:15Z</time>
      </trkpt>
      <trkpt lat="46.00319" lon="4.49011">
        <ele>446.1</ele>
        <time>2015-07-09T10:03:17Z</time>
      </trkpt>
      <trkpt lat="46.00315" lon="4.49026">
        <ele>446.5</ele>
        <time>2015-07-09T10:03:19Z</time>
      </trkpt>
      <trkpt lat="46.00311" lon="4.49042">
        <ele>446.8</ele>
        <time>2015-07-09T10:03:21Z</time>
      </trkpt>
      <trkpt lat="46.00309" lon="4.49058">
        <ele>447.5</ele>
        <time>2015-07-09T10:03:23Z</time>
      </trkpt>
      <trkpt lat="46.00307" lon="4.49074">
        <ele>446.5</ele>
        <time>2015-07-09T10:03:25Z</time>
      </trkpt>
      <trkpt lat="46.00304" lon="4.4909">
        <ele>445.4</ele>
        <time>2015-07-09T10:03:27Z</time>
      </trkpt>
      <trkpt lat="46.00302" lon="4.49106">
        <ele>444.3</ele>
        <time>2015-07-09T10:03:29Z</time>
      </trkpt>
      <trkpt lat="46.00298" lon="4.49124">
        <ele>443.2</ele>
        <time>2015-07-09T10:03:31Z</time>
      </trkpt>
      <trkpt lat="46.00293" lon="4.49142">
        <ele>442.7</ele>
        <time>2015-07-09T10:03:33Z</time>
      </trkpt>
      <trkpt lat="46.00287" lon="4.49157">
        <ele>441.9</ele>
        <time>2015-07-09T10:03:35Z</time>
      </trkpt>
      <trkpt lat="46.0028" lon="4.49173">
        <ele>441.1</ele>
        <time>2015-07-09T10:03:37Z</time>
      </trkpt>
      <trkpt lat="46.00272" lon="4.49189">
        <ele>440.3</ele>
        <time>2015-07-09T10:03:39Z</time>
      </trkpt>
      <trkpt lat="46.00264" lon="4.49204">
        <ele>439.5</ele>
        <time>2015-07-09T10:03:41Z</time>
      </trkpt>
      <trkpt lat="46.00258" lon="4.49222">
        <ele>438.6</ele>
        <time>2015-07-09T10:03:43Z</time>
      </trkpt>
      <trkpt lat="46.00253" lon="4.4924">
        <ele>437.4</ele>
        <time>2015-07-09T10:03:45Z</time>
      </trkpt>
      <trkpt lat="46.00252" lon="4.49257">
        <ele>437.9</ele>
        <time>2015-07-09T10:03:47Z</time>
      </trkpt>
      <trkpt lat="46.00255" lon="4.49273">
        <ele>438.5</ele>
        <time>2015-07-09T10:03:49Z</time>
      </trkpt>
      <trkpt lat="46.00259" lon="4.49286">
        <ele>439.4</ele>
        <time>2015-07-09T10:03:51Z</time>
      </trkpt>
      <trkpt lat="46.00264" lon="4.49299">
        <ele>440.3</ele>
        <time>2015-07-09T10:03:53Z</time>
      </trkpt>
      <trkpt lat="46.0027" lon="4.4931">
        <ele>440.5</ele>
        <time>2015-07-09T10:03:55Z</time>
      </trkpt>
      <trkpt lat="46.00276" lon="4.49319">
        <ele>440.8</ele>
        <time>2015-07-09T10:03:57Z</time>
      </trkpt>
      <trkpt lat="46.00285" lon="4.49326">
        <ele>441.1</ele>
        <time>2015-07-09T10:03:59Z</time>
      </trkpt>
      <trkpt lat="46.00295" lon="4.49331">
        <ele>441.4</ele>
        <time>2015-07-09T10:04:01Z</time>
      </trkpt>
      <trkpt lat="46.00305" lon="4.49335">
        <ele>441.6</ele>
        <time>2015-07-09T10:04:03Z</time>
      </trkpt>
      <trkpt lat="46.00316" lon="4.49338">
        <ele>440.7</ele>
        <time>2015-07-09T10:04:05Z</time>
      </trkpt>
      <trkpt lat="46.00329" lon="4.49342">
        <ele>439.9</ele>
        <time>2015-07-09T10:04:07Z</time>
      </trkpt>
      <trkpt lat="46.00342" lon="4.49341">
        <ele>440.2</ele>
        <time>2015-07-09T10:04:09Z</time>
      </trkpt>
      <trkpt lat="46.00356" lon="4.49336">
        <ele>440.5</ele>
        <time>2015-07-09T10:04:11Z</time>
      </trkpt>
      <trkpt lat="46.00369" lon="4.49327">
        <ele>440.4</ele>
        <time>2015-07-09T10:04:13Z</time>
      </trkpt>
      <trkpt lat="46.00381" lon="4.49317">
        <ele>440.3</ele>
        <time>2015-07-09T10:04:15Z</time>
      </trkpt>
      <trkpt lat="46.00394" lon="4.49306">
        <ele>440.2</ele>
        <time>2015-07-09T10:04:17Z</time>
      </trkpt>
      <trkpt lat="46.004" lon="4.49298">
        <ele>440.1</ele>
        <time>2015-07-09T10:04:18Z</time>
      </trkpt>
      <trkpt lat="46.00413" lon="4.49283">
        <ele>436.9</ele>
        <time>2015-07-09T10:04:20Z</time>
      </trkpt>
      <trkpt lat="46.00425" lon="4.49269">
        <ele>434.8</ele>
        <time>2015-07-09T10:04:22Z</time>
      </trkpt>
      <trkpt lat="46.00432" lon="4.49262">
        <ele>432.7</ele>
        <time>2015-07-09T10:04:23Z</time>
      </trkpt>
      <trkpt lat="46.00443" lon="4.49249">
        <ele>431.8</ele>
        <time>2015-07-09T10:04:25Z</time>
      </trkpt>
      <trkpt lat="46.00456" lon="4.49235">
        <ele>430.9</ele>
        <time>2015-07-09T10:04:27Z</time>
      </trkpt>
      <trkpt lat="46.00465" lon="4.49225">
        <ele>428.9</ele>
        <time>2015-07-09T10:04:29Z</time>
      </trkpt>
      <trkpt lat="46.00474" lon="4.49213">
        <ele>427.7</ele>
        <time>2015-07-09T10:04:31Z</time>
      </trkpt>
      <trkpt lat="46.00475" lon="4.49201">
        <ele>426.5</ele>
        <time>2015-07-09T10:04:32Z</time>
      </trkpt>
      <trkpt lat="46.00483" lon="4.49182">
        <ele>425.4</ele>
        <time>2015-07-09T10:04:34Z</time>
      </trkpt>
      <trkpt lat="46.0049" lon="4.49162">
        <ele>424.2</ele>
        <time>2015-07-09T10:04:36Z</time>
      </trkpt>
      <trkpt lat="46.00496" lon="4.49142">
        <ele>423</ele>
        <time>2015-07-09T10:04:38Z</time>
      </trkpt>
      <trkpt lat="46.00498" lon="4.49122">
        <ele>425.2</ele>
        <time>2015-07-09T10:04:40Z</time>
      </trkpt>
      <trkpt lat="46.00496" lon="4.49101">
        <ele>426.3</ele>
        <time>2015-07-09T10:04:42Z</time>
      </trkpt>
      <trkpt lat="46.00499" lon="4.49078">
        <ele>427.4</ele>
        <time>2015-07-09T10:04:44Z</time>
      </trkpt>
      <trkpt lat="46.00502" lon="4.49058">
        <ele>426.9</ele>
        <time>2015-07-09T10:04:46Z</time>
      </trkpt>
      <trkpt lat="46.00511" lon="4.49046">
        <ele>426.5</ele>
        <time>2015-07-09T10:04:48Z</time>
      </trkpt>
      <trkpt lat="46.0052" lon="4.49038">
        <ele>426</ele>
        <time>2015-07-09T10:04:50Z</time>
      </trkpt>
      <trkpt lat="46.0053" lon="4.49032">
        <ele>424.7</ele>
        <time>2015-07-09T10:04:52Z</time>
      </trkpt>
      <trkpt lat="46.0054" lon="4.49028">
        <ele>423.5</ele>
        <time>2015-07-09T10:04:54Z</time>
      </trkpt>
      <trkpt lat="46.00552" lon="4.49014">
        <ele>422.9</ele>
        <time>2015-07-09T10:04:56Z</time>
      </trkpt>
      <trkpt lat="46.00561" lon="4.49003">
        <ele>421.6</ele>
        <time>2015-07-09T10:04:58Z</time>
      </trkpt>
      <trkpt lat="46.00568" lon="4.48988">
        <ele>420.4</ele>
        <time>2015-07-09T10:05:00Z</time>
      </trkpt>
      <trkpt lat="46.00574" lon="4.48974">
        <ele>418.8</ele>
        <time>2015-07-09T10:05:02Z</time>
      </trkpt>
      <trkpt lat="46.00581" lon="4.48965">
        <ele>417.3</ele>
        <time>2015-07-09T10:05:04Z</time>
      </trkpt>
      <trkpt lat="46.00591" lon="4.48957">
        <ele>415.7</ele>
        <time>2015-07-09T10:05:06Z</time>
      </trkpt>
      <trkpt lat="46.00601" lon="4.48964">
        <ele>415.7</ele>
        <time>2015-07-09T10:05:09Z</time>
      </trkpt>
      <trkpt lat="46.00603" lon="4.48978">
        <ele>415</ele>
        <time>2015-07-09T10:05:12Z</time>
      </trkpt>
      <trkpt lat="46.00605" lon="4.48991">
        <ele>414.3</ele>
        <time>2015-07-09T10:05:15Z</time>
      </trkpt>
      <trkpt lat="46.00606" lon="4.49006">
        <ele>413.5</ele>
        <time>2015-07-09T10:05:19Z</time>
      </trkpt>
      <trkpt lat="46.00607" lon="4.4902">
        <ele>412.8</ele>
        <time>2015-07-09T10:05:22Z</time>
      </trkpt>
      <trkpt lat="46.00608" lon="4.49034">
        <ele>411.4</ele>
        <time>2015-07-09T10:05:25Z</time>
      </trkpt>
      <trkpt lat="46.00608" lon="4.49046">
        <ele>412.5</ele>
        <time>2015-07-09T10:05:28Z</time>
      </trkpt>
      <trkpt lat="46.0061" lon="4.49058">
        <ele>413.5</ele>
        <time>2015-07-09T10:05:31Z</time>
      </trkpt>
      <trkpt lat="46.00614" lon="4.49071">
        <ele>414.6</ele>
        <time>2015-07-09T10:05:35Z</time>
      </trkpt>
      <trkpt lat="46.00618" lon="4.49082">
        <ele>414.9</ele>
        <time>2015-07-09T10:05:38Z</time>
      </trkpt>
      <trkpt lat="46.00623" lon="4.49094">
        <ele>415.2</ele>
        <time>2015-07-09T10:05:41Z</time>
      </trkpt>
      <trkpt lat="46.00628" lon="4.49107">
        <ele>415.5</ele>
        <time>2015-07-09T10:05:44Z</time>
      </trkpt>
      <trkpt lat="46.00633" lon="4.49121">
        <ele>416.5</ele>
        <time>2015-07-09T10:05:47Z</time>
      </trkpt>
      <trkpt lat="46.00637" lon="4.49135">
        <ele>417.5</ele>
        <time>2015-07-09T10:05:50Z</time>
      </trkpt>
      <trkpt lat="46.00641" lon="4.49148">
        <ele>418.5</ele>
        <time>2015-07-09T10:05:53Z</time>
      </trkpt>
      <trkpt lat="46.00648" lon="4.4916">
        <ele>419.5</ele>
        <time>2015-07-09T10:05:56Z</time>
      </trkpt>
      <trkpt lat="46.00655" lon="4.49168">
        <ele>420.5</ele>
        <time>2015-07-09T10:05:59Z</time>
      </trkpt>
      <trkpt lat="46.00664" lon="4.49177">
        <ele>419.6</ele>
        <time>2015-07-09T10:06:02Z</time>
      </trkpt>
      <trkpt lat="46.00672" lon="4.49183">
        <ele>417.7</ele>
        <time>2015-07-09T10:06:05Z</time>
      </trkpt>
      <trkpt lat="46.0068" lon="4.49187">
        <ele>415.8</ele>
        <time>2015-07-09T10:06:08Z</time>
      </trkpt>
      <trkpt lat="46.00689" lon="4.49185">
        <ele>415.8</ele>
        <time>2015-07-09T10:06:11Z</time>
      </trkpt>
      <trkpt lat="46.00699" lon="4.49172">
        <ele>415.8</ele>
        <time>2015-07-09T10:06:14Z</time>
      </trkpt>
      <trkpt lat="46.00707" lon="4.49164">
        <ele>415.8</ele>
        <time>2015-07-09T10:06:15Z</time>
      </trkpt>
      <trkpt lat="46.00715" lon="4.49154">
        <ele>415.8</ele>
        <time>2015-07-09T10:06:17Z</time>
      </trkpt>
      <trkpt lat="46.00722" lon="4.49143">
        <ele>415.8</ele>
        <time>2015-07-09T10:06:19Z</time>
      </trkpt>
      <trkpt lat="46.00729" lon="4.49132">
        <ele>415.8</ele>
        <time>2015-07-09T10:06:21Z</time>
      </trkpt>
      <trkpt lat="46.00737" lon="4.49122">
        <ele>415.8</ele>
        <time>2015-07-09T10:06:23Z</time>
      </trkpt>
      <trkpt lat="46.00744" lon="4.49115">
        <ele>413.9</ele>
        <time>2015-07-09T10:06:25Z</time>
      </trkpt>
      <trkpt lat="46.0075" lon="4.49106">
        <ele>412</ele>
        <time>2015-07-09T10:06:27Z</time>
      </trkpt>
      <trkpt lat="46.0076" lon="4.49098">
        <ele>411.2</ele>
        <time>2015-07-09T10:06:29Z</time>
      </trkpt>
      <trkpt lat="46.00772" lon="4.49092">
        <ele>410.4</ele>
        <time>2015-07-09T10:06:31Z</time>
      </trkpt>
      <trkpt lat="46.00783" lon="4.49087">
        <ele>408.5</ele>
        <time>2015-07-09T10:06:34Z</time>
      </trkpt>
      <trkpt lat="46.00793" lon="4.49081">
        <ele>407.5</ele>
        <time>2015-07-09T10:06:35Z</time>
      </trkpt>
      <trkpt lat="46.00802" lon="4.49073">
        <ele>406.5</ele>
        <time>2015-07-09T10:06:37Z</time>
      </trkpt>
      <trkpt lat="46.00811" lon="4.4907">
        <ele>405.5</ele>
        <time>2015-07-09T10:06:39Z</time>
      </trkpt>
      <trkpt lat="46.00819" lon="4.49062">
        <ele>404.5</ele>
        <time>2015-07-09T10:06:41Z</time>
      </trkpt>
      <trkpt lat="46.00828" lon="4.49049">
        <ele>403.5</ele>
        <time>2015-07-09T10:06:43Z</time>
      </trkpt>
      <trkpt lat="46.00836" lon="4.49034">
        <ele>402.5</ele>
        <time>2015-07-09T10:06:46Z</time>
      </trkpt>
      <trkpt lat="46.00846" lon="4.49023">
        <ele>403.4</ele>
        <time>2015-07-09T10:06:48Z</time>
      </trkpt>
      <trkpt lat="46.00853" lon="4.49015">
        <ele>402</ele>
        <time>2015-07-09T10:06:50Z</time>
      </trkpt>
      <trkpt lat="46.00859" lon="4.49005">
        <ele>400.6</ele>
        <time>2015-07-09T10:06:52Z</time>
      </trkpt>
      <trkpt lat="46.00867" lon="4.48996">
        <ele>399.3</ele>
        <time>2015-07-09T10:06:54Z</time>
      </trkpt>
      <trkpt lat="46.00872" lon="4.48977">
        <ele>397.9</ele>
        <time>2015-07-09T10:06:56Z</time>
      </trkpt>
      <trkpt lat="46.00878" lon="4.48961">
        <ele>395.6</ele>
        <time>2015-07-09T10:06:58Z</time>
      </trkpt>
      <trkpt lat="46.00881" lon="4.48947">
        <ele>393.6</ele>
        <time>2015-07-09T10:07:00Z</time>
      </trkpt>
      <trkpt lat="46.00886" lon="4.48931">
        <ele>391.6</ele>
        <time>2015-07-09T10:07:02Z</time>
      </trkpt>
      <trkpt lat="46.00887" lon="4.48913">
        <ele>389.6</ele>
        <time>2015-07-09T10:07:04Z</time>
      </trkpt>
      <trkpt lat="46.00887" lon="4.48897">
        <ele>387.6</ele>
        <time>2015-07-09T10:07:06Z</time>
      </trkpt>
      <trkpt lat="46.00889" lon="4.48882">
        <ele>385.6</ele>
        <time>2015-07-09T10:07:08Z</time>
      </trkpt>
      <trkpt lat="46.00894" lon="4.48872">
        <ele>383.6</ele>
        <time>2015-07-09T10:07:11Z</time>
      </trkpt>
      <trkpt lat="46.00897" lon="4.48861">
        <ele>384.1</ele>
        <time>2015-07-09T10:07:12Z</time>
      </trkpt>
      <trkpt lat="46.00899" lon="4.48846">
        <ele>384.5</ele>
        <time>2015-07-09T10:07:15Z</time>
      </trkpt>
      <trkpt lat="46.00901" lon="4.48832">
        <ele>385</ele>
        <time>2015-07-09T10:07:18Z</time>
      </trkpt>
      <trkpt lat="46.00902" lon="4.48815">
        <ele>385.5</ele>
        <time>2015-07-09T10:07:21Z</time>
      </trkpt>
      <trkpt lat="46.00902" lon="4.488">
        <ele>385.9</ele>
        <time>2015-07-09T10:07:23Z</time>
      </trkpt>
      <trkpt lat="46.00902" lon="4.48786">
        <ele>386.1</ele>
        <time>2015-07-09T10:07:25Z</time>
      </trkpt>
      <trkpt lat="46.00901" lon="4.48773">
        <ele>385.6</ele>
        <time>2015-07-09T10:07:27Z</time>
      </trkpt>
      <trkpt lat="46.00901" lon="4.48756">
        <ele>385.2</ele>
        <time>2015-07-09T10:07:30Z</time>
      </trkpt>
      <trkpt lat="46.009" lon="4.48744">
        <ele>384.7</ele>
        <time>2015-07-09T10:07:32Z</time>
      </trkpt>
      <trkpt lat="46.009" lon="4.4873">
        <ele>384.3</ele>
        <time>2015-07-09T10:07:34Z</time>
      </trkpt>
      <trkpt lat="46.00899" lon="4.48715">
        <ele>384.7</ele>
        <time>2015-07-09T10:07:36Z</time>
      </trkpt>
      <trkpt lat="46.00897" lon="4.48696">
        <ele>385</ele>
        <time>2015-07-09T10:07:38Z</time>
      </trkpt>
      <trkpt lat="46.00895" lon="4.48679">
        <ele>385.3</ele>
        <time>2015-07-09T10:07:40Z</time>
      </trkpt>
      <trkpt lat="46.00893" lon="4.4866">
        <ele>385.5</ele>
        <time>2015-07-09T10:07:42Z</time>
      </trkpt>
      <trkpt lat="46.00891" lon="4.48641">
        <ele>385.8</ele>
        <time>2015-07-09T10:07:44Z</time>
      </trkpt>
      <trkpt lat="46.00889" lon="4.48624">
        <ele>386.1</ele>
        <time>2015-07-09T10:07:46Z</time>
      </trkpt>
      <trkpt lat="46.00889" lon="4.48609">
        <ele>386.4</ele>
        <time>2015-07-09T10:07:48Z</time>
      </trkpt>
      <trkpt lat="46.00894" lon="4.48597">
        <ele>387.3</ele>
        <time>2015-07-09T10:07:50Z</time>
      </trkpt>
      <trkpt lat="46.00901" lon="4.48588">
        <ele>388.2</ele>
        <time>2015-07-09T10:07:52Z</time>
      </trkpt>
      <trkpt lat="46.00908" lon="4.48579">
        <ele>389.1</ele>
        <time>2015-07-09T10:07:54Z</time>
      </trkpt>
      <trkpt lat="46.00919" lon="4.48574">
        <ele>391.3</ele>
        <time>2015-07-09T10:07:57Z</time>
      </trkpt>
      <trkpt lat="46.00927" lon="4.48568">
        <ele>392.5</ele>
        <time>2015-07-09T10:07:59Z</time>
      </trkpt>
      <trkpt lat="46.00938" lon="4.48561">
        <ele>393.8</ele>
        <time>2015-07-09T10:08:01Z</time>
      </trkpt>
      <trkpt lat="46.00948" lon="4.48556">
        <ele>395.1</ele>
        <time>2015-07-09T10:08:03Z</time>
      </trkpt>
      <trkpt lat="46.0096" lon="4.48551">
        <ele>396.4</ele>
        <time>2015-07-09T10:08:05Z</time>
      </trkpt>
      <trkpt lat="46.00972" lon="4.48544">
        <ele>397.6</ele>
        <time>2015-07-09T10:08:07Z</time>
      </trkpt>
      <trkpt lat="46.00981" lon="4.48538">
        <ele>398.9</ele>
        <time>2015-07-09T10:08:09Z</time>
      </trkpt>
      <trkpt lat="46.00991" lon="4.48534">
        <ele>397.6</ele>
        <time>2015-07-09T10:08:11Z</time>
      </trkpt>
      <trkpt lat="46.01003" lon="4.48532">
        <ele>396.4</ele>
        <time>2015-07-09T10:08:13Z</time>
      </trkpt>
      <trkpt lat="46.01015" lon="4.48527">
        <ele>395.1</ele>
        <time>2015-07-09T10:08:15Z</time>
      </trkpt>
      <trkpt lat="46.01027" lon="4.48519">
        <ele>393.8</ele>
        <time>2015-07-09T10:08:17Z</time>
      </trkpt>
      <trkpt lat="46.01037" lon="4.48511">
        <ele>391.3</ele>
        <time>2015-07-09T10:08:19Z</time>
      </trkpt>
      <trkpt lat="46.01047" lon="4.48505">
        <ele>390.2</ele>
        <time>2015-07-09T10:08:21Z</time>
      </trkpt>
      <trkpt lat="46.01056" lon="4.48497">
        <ele>389.1</ele>
        <time>2015-07-09T10:08:23Z</time>
      </trkpt>
      <trkpt lat="46.01066" lon="4.48488">
        <ele>388</ele>
        <time>2015-07-09T10:08:25Z</time>
      </trkpt>
      <trkpt lat="46.01078" lon="4.48476">
        <ele>386.9</ele>
        <time>2015-07-09T10:08:27Z</time>
      </trkpt>
      <trkpt lat="46.01084" lon="4.48468">
        <ele>385.8</ele>
        <time>2015-07-09T10:08:28Z</time>
      </trkpt>
      <trkpt lat="46.01095" lon="4.48452">
        <ele>383.7</ele>
        <time>2015-07-09T10:08:30Z</time>
      </trkpt>
      <trkpt lat="46.011" lon="4.48441">
        <ele>384.2</ele>
        <time>2015-07-09T10:08:31Z</time>
      </trkpt>
      <trkpt lat="46.01109" lon="4.48422">
        <ele>384.6</ele>
        <time>2015-07-09T10:08:33Z</time>
      </trkpt>
      <trkpt lat="46.01119" lon="4.48408">
        <ele>385.1</ele>
        <time>2015-07-09T10:08:35Z</time>
      </trkpt>
      <trkpt lat="46.01127" lon="4.48394">
        <ele>385.5</ele>
        <time>2015-07-09T10:08:37Z</time>
      </trkpt>
      <trkpt lat="46.01134" lon="4.48378">
        <ele>386</ele>
        <time>2015-07-09T10:08:39Z</time>
      </trkpt>
      <trkpt lat="46.01139" lon="4.48364">
        <ele>385</ele>
        <time>2015-07-09T10:08:41Z</time>
      </trkpt>
      <trkpt lat="46.01147" lon="4.4835">
        <ele>384.5</ele>
        <time>2015-07-09T10:08:43Z</time>
      </trkpt>
      <trkpt lat="46.01153" lon="4.48337">
        <ele>383.9</ele>
        <time>2015-07-09T10:08:45Z</time>
      </trkpt>
      <trkpt lat="46.01159" lon="4.48326">
        <ele>383.4</ele>
        <time>2015-07-09T10:08:47Z</time>
      </trkpt>
      <trkpt lat="46.01167" lon="4.48319">
        <ele>382.8</ele>
        <time>2015-07-09T10:08:51Z</time>
      </trkpt>
      <trkpt lat="46.01172" lon="4.4831">
        <ele>383.3</ele>
        <time>2015-07-09T10:08:52Z</time>
      </trkpt>
      <trkpt lat="46.01174" lon="4.48295">
        <ele>383.7</ele>
        <time>2015-07-09T10:08:54Z</time>
      </trkpt>
      <trkpt lat="46.01174" lon="4.48278">
        <ele>384.6</ele>
        <time>2015-07-09T10:08:57Z</time>
      </trkpt>
      <trkpt lat="46.01177" lon="4.48264">
        <ele>385.5</ele>
        <time>2015-07-09T10:09:00Z</time>
      </trkpt>
      <trkpt lat="46.01178" lon="4.48251">
        <ele>386.5</ele>
        <time>2015-07-09T10:09:03Z</time>
      </trkpt>
      <trkpt lat="46.01178" lon="4.48238">
        <ele>387.4</ele>
        <time>2015-07-09T10:09:06Z</time>
      </trkpt>
      <trkpt lat="46.01179" lon="4.48224">
        <ele>388.3</ele>
        <time>2015-07-09T10:09:10Z</time>
      </trkpt>
      <trkpt lat="46.01178" lon="4.48212">
        <ele>388.7</ele>
        <time>2015-07-09T10:09:13Z</time>
      </trkpt>
      <trkpt lat="46.01177" lon="4.48199">
        <ele>389.5</ele>
        <time>2015-07-09T10:09:16Z</time>
      </trkpt>
      <trkpt lat="46.01177" lon="4.48184">
        <ele>390.2</ele>
        <time>2015-07-09T10:09:19Z</time>
      </trkpt>
      <trkpt lat="46.01178" lon="4.48171">
        <ele>390.9</ele>
        <time>2015-07-09T10:09:22Z</time>
      </trkpt>
      <trkpt lat="46.01178" lon="4.48155">
        <ele>391.6</ele>
        <time>2015-07-09T10:09:25Z</time>
      </trkpt>
      <trkpt lat="46.01178" lon="4.48142">
        <ele>392.4</ele>
        <time>2015-07-09T10:09:27Z</time>
      </trkpt>
      <trkpt lat="46.0118" lon="4.48129">
        <ele>392.1</ele>
        <time>2015-07-09T10:09:29Z</time>
      </trkpt>
      <trkpt lat="46.01184" lon="4.48116">
        <ele>391.8</ele>
        <time>2015-07-09T10:09:31Z</time>
      </trkpt>
      <trkpt lat="46.01189" lon="4.48104">
        <ele>391.5</ele>
        <time>2015-07-09T10:09:33Z</time>
      </trkpt>
      <trkpt lat="46.01196" lon="4.48096">
        <ele>391.3</ele>
        <time>2015-07-09T10:09:35Z</time>
      </trkpt>
      <trkpt lat="46.01205" lon="4.48095">
        <ele>391</ele>
        <time>2015-07-09T10:09:38Z</time>
      </trkpt>
      <trkpt lat="46.01215" lon="4.48097">
        <ele>390.7</ele>
        <time>2015-07-09T10:09:41Z</time>
      </trkpt>
      <trkpt lat="46.01223" lon="4.481">
        <ele>390.2</ele>
        <time>2015-07-09T10:09:45Z</time>
      </trkpt>
      <trkpt lat="46.01233" lon="4.48103">
        <ele>389.6</ele>
        <time>2015-07-09T10:09:50Z</time>
      </trkpt>
      <trkpt lat="46.0124" lon="4.48109">
        <ele>389.1</ele>
        <time>2015-07-09T10:09:54Z</time>
      </trkpt>
      <trkpt lat="46.01248" lon="4.48114">
        <ele>388.5</ele>
        <time>2015-07-09T10:09:58Z</time>
      </trkpt>
      <trkpt lat="46.01257" lon="4.48119">
        <ele>387.8</ele>
        <time>2015-07-09T10:10:03Z</time>
      </trkpt>
      <trkpt lat="46.01265" lon="4.48121">
        <ele>387.7</ele>
        <time>2015-07-09T10:10:07Z</time>
      </trkpt>
      <trkpt lat="46.01275" lon="4.48122">
        <ele>389.2</ele>
        <time>2015-07-09T10:10:12Z</time>
      </trkpt>
      <trkpt lat="46.01278" lon="4.48136">
        <ele>390.6</ele>
        <time>2015-07-09T10:10:20Z</time>
      </trkpt>
      <trkpt lat="46.01278" lon="4.48149">
        <ele>391.4</ele>
        <time>2015-07-09T10:10:22Z</time>
      </trkpt>
      <trkpt lat="46.01281" lon="4.48167">
        <ele>392.1</ele>
        <time>2015-07-09T10:10:24Z</time>
      </trkpt>
      <trkpt lat="46.01286" lon="4.48182">
        <ele>392.8</ele>
        <time>2015-07-09T10:10:26Z</time>
      </trkpt>
      <trkpt lat="46.01292" lon="4.48196">
        <ele>393.5</ele>
        <time>2015-07-09T10:10:28Z</time>
      </trkpt>
      <trkpt lat="46.01299" lon="4.48212">
        <ele>394.3</ele>
        <time>2015-07-09T10:10:30Z</time>
      </trkpt>
      <trkpt lat="46.01306" lon="4.48229">
        <ele>394.3</ele>
        <time>2015-07-09T10:10:32Z</time>
      </trkpt>
      <trkpt lat="46.01313" lon="4.48249">
        <ele>394.4</ele>
        <time>2015-07-09T10:10:34Z</time>
      </trkpt>
      <trkpt lat="46.0132" lon="4.48267">
        <ele>394.5</ele>
        <time>2015-07-09T10:10:36Z</time>
      </trkpt>
      <trkpt lat="46.01325" lon="4.48285">
        <ele>394.5</ele>
        <time>2015-07-09T10:10:38Z</time>
      </trkpt>
      <trkpt lat="46.01331" lon="4.48301">
        <ele>393.1</ele>
        <time>2015-07-09T10:10:40Z</time>
      </trkpt>
      <trkpt lat="46.01336" lon="4.48318">
        <ele>391.9</ele>
        <time>2015-07-09T10:10:42Z</time>
      </trkpt>
      <trkpt lat="46.0134" lon="4.48335">
        <ele>391.5</ele>
        <time>2015-07-09T10:10:44Z</time>
      </trkpt>
      <trkpt lat="46.01343" lon="4.48351">
        <ele>391</ele>
        <time>2015-07-09T10:10:46Z</time>
      </trkpt>
      <trkpt lat="46.01344" lon="4.48362">
        <ele>390.5</ele>
        <time>2015-07-09T10:10:48Z</time>
      </trkpt>
      <trkpt lat="46.01348" lon="4.48377">
        <ele>390.1</ele>
        <time>2015-07-09T10:10:51Z</time>
      </trkpt>
      <trkpt lat="46.01352" lon="4.48391">
        <ele>389.6</ele>
        <time>2015-07-09T10:10:54Z</time>
      </trkpt>
      <trkpt lat="46.01357" lon="4.48406">
        <ele>389.9</ele>
        <time>2015-07-09T10:10:57Z</time>
      </trkpt>
      <trkpt lat="46.01361" lon="4.4842">
        <ele>391.4</ele>
        <time>2015-07-09T10:11:00Z</time>
      </trkpt>
      <trkpt lat="46.01361" lon="4.48435">
        <ele>392.8</ele>
        <time>2015-07-09T10:11:04Z</time>
      </trkpt>
      <trkpt lat="46.01358" lon="4.48446">
        <ele>394.3</ele>
        <time>2015-07-09T10:11:07Z</time>
      </trkpt>
      <trkpt lat="46.01354" lon="4.48458">
        <ele>395.7</ele>
        <time>2015-07-09T10:11:12Z</time>
      </trkpt>
      <trkpt lat="46.01348" lon="4.48466">
        <ele>396.9</ele>
        <time>2015-07-09T10:11:18Z</time>
      </trkpt>
      <trkpt lat="46.01342" lon="4.48476">
        <ele>398.1</ele>
        <time>2015-07-09T10:11:23Z</time>
      </trkpt>
      <trkpt lat="46.01334" lon="4.48484">
        <ele>399.3</ele>
        <time>2015-07-09T10:11:28Z</time>
      </trkpt>
      <trkpt lat="46.01326" lon="4.48493">
        <ele>398.8</ele>
        <time>2015-07-09T10:11:32Z</time>
      </trkpt>
      <trkpt lat="46.01319" lon="4.48501">
        <ele>399</ele>
        <time>2015-07-09T10:11:35Z</time>
      </trkpt>
      <trkpt lat="46.01312" lon="4.48509">
        <ele>399.2</ele>
        <time>2015-07-09T10:11:38Z</time>
      </trkpt>
      <trkpt lat="46.01303" lon="4.4852">
        <ele>399.4</ele>
        <time>2015-07-09T10:11:41Z</time>
      </trkpt>
      <trkpt lat="46.01295" lon="4.48532">
        <ele>398.4</ele>
        <time>2015-07-09T10:11:44Z</time>
      </trkpt>
      <trkpt lat="46.01288" lon="4.48542">
        <ele>397.4</ele>
        <time>2015-07-09T10:11:46Z</time>
      </trkpt>
      <trkpt lat="46.01281" lon="4.48552">
        <ele>396.4</ele>
        <time>2015-07-09T10:11:48Z</time>
      </trkpt>
      <trkpt lat="46.01268" lon="4.48568">
        <ele>396.3</ele>
        <time>2015-07-09T10:11:50Z</time>
      </trkpt>
      <trkpt lat="46.01259" lon="4.48582">
        <ele>396.2</ele>
        <time>2015-07-09T10:11:52Z</time>
      </trkpt>
      <trkpt lat="46.01253" lon="4.48597">
        <ele>396.1</ele>
        <time>2015-07-09T10:11:54Z</time>
      </trkpt>
      <trkpt lat="46.01247" lon="4.48612">
        <ele>396</ele>
        <time>2015-07-09T10:11:56Z</time>
      </trkpt>
      <trkpt lat="46.01242" lon="4.48627">
        <ele>397.5</ele>
        <time>2015-07-09T10:11:58Z</time>
      </trkpt>
      <trkpt lat="46.01238" lon="4.48644">
        <ele>399.5</ele>
        <time>2015-07-09T10:12:00Z</time>
      </trkpt>
      <trkpt lat="46.01234" lon="4.48658">
        <ele>401.4</ele>
        <time>2015-07-09T10:12:02Z</time>
      </trkpt>
      <trkpt lat="46.01232" lon="4.48671">
        <ele>403.3</ele>
        <time>2015-07-09T10:12:04Z</time>
      </trkpt>
      <trkpt lat="46.0123" lon="4.48684">
        <ele>402</ele>
        <time>2015-07-09T10:12:06Z</time>
      </trkpt>
      <trkpt lat="46.01225" lon="4.48698">
        <ele>400.7</ele>
        <time>2015-07-09T10:12:08Z</time>
      </trkpt>
      <trkpt lat="46.01221" lon="4.48716">
        <ele>399.5</ele>
        <time>2015-07-09T10:12:10Z</time>
      </trkpt>
      <trkpt lat="46.01216" lon="4.48734">
        <ele>397.4</ele>
        <time>2015-07-09T10:12:12Z</time>
      </trkpt>
      <trkpt lat="46.01211" lon="4.48756">
        <ele>395.3</ele>
        <time>2015-07-09T10:12:14Z</time>
      </trkpt>
      <trkpt lat="46.01208" lon="4.48767">
        <ele>393.2</ele>
        <time>2015-07-09T10:12:15Z</time>
      </trkpt>
      <trkpt lat="46.01206" lon="4.48778">
        <ele>391.1</ele>
        <time>2015-07-09T10:12:16Z</time>
      </trkpt>
      <trkpt lat="46.01204" lon="4.4879">
        <ele>389</ele>
        <time>2015-07-09T10:12:17Z</time>
      </trkpt>
      <trkpt lat="46.01202" lon="4.48804">
        <ele>385.9</ele>
        <time>2015-07-09T10:12:18Z</time>
      </trkpt>
      <trkpt lat="46.01201" lon="4.48816">
        <ele>382.8</ele>
        <time>2015-07-09T10:12:19Z</time>
      </trkpt>
      <trkpt lat="46.01199" lon="4.48829">
        <ele>379.6</ele>
        <time>2015-07-09T10:12:20Z</time>
      </trkpt>
      <trkpt lat="46.01199" lon="4.48841">
        <ele>379.6</ele>
        <time>2015-07-09T10:12:21Z</time>
      </trkpt>
      <trkpt lat="46.01198" lon="4.48853">
        <ele>379.6</ele>
        <time>2015-07-09T10:12:22Z</time>
      </trkpt>
      <trkpt lat="46.01196" lon="4.48865">
        <ele>379.6</ele>
        <time>2015-07-09T10:12:23Z</time>
      </trkpt>
      <trkpt lat="46.01195" lon="4.48878">
        <ele>379.5</ele>
        <time>2015-07-09T10:12:24Z</time>
      </trkpt>
      <trkpt lat="46.01194" lon="4.48891">
        <ele>379.6</ele>
        <time>2015-07-09T10:12:25Z</time>
      </trkpt>
      <trkpt lat="46.01193" lon="4.48905">
        <ele>379.7</ele>
        <time>2015-07-09T10:12:26Z</time>
      </trkpt>
      <trkpt lat="46.01192" lon="4.48917">
        <ele>381.3</ele>
        <time>2015-07-09T10:12:27Z</time>
      </trkpt>
      <trkpt lat="46.01195" lon="4.48939">
        <ele>382.8</ele>
        <time>2015-07-09T10:12:29Z</time>
      </trkpt>
      <trkpt lat="46.01197" lon="4.48951">
        <ele>384.4</ele>
        <time>2015-07-09T10:12:30Z</time>
      </trkpt>
      <trkpt lat="46.01201" lon="4.48963">
        <ele>385.9</ele>
        <time>2015-07-09T10:12:31Z</time>
      </trkpt>
      <trkpt lat="46.01206" lon="4.48976">
        <ele>387.5</ele>
        <time>2015-07-09T10:12:32Z</time>
      </trkpt>
      <trkpt lat="46.01212" lon="4.48987">
        <ele>388.6</ele>
        <time>2015-07-09T10:12:33Z</time>
      </trkpt>
      <trkpt lat="46.01217" lon="4.49">
        <ele>389.7</ele>
        <time>2015-07-09T10:12:34Z</time>
      </trkpt>
      <trkpt lat="46.01224" lon="4.49011">
        <ele>390.8</ele>
        <time>2015-07-09T10:12:35Z</time>
      </trkpt>
      <trkpt lat="46.01228" lon="4.49023">
        <ele>391.9</ele>
        <time>2015-07-09T10:12:36Z</time>
      </trkpt>
      <trkpt lat="46.01234" lon="4.49034">
        <ele>392.8</ele>
        <time>2015-07-09T10:12:37Z</time>
      </trkpt>
      <trkpt lat="46.01239" lon="4.49044">
        <ele>393.7</ele>
        <time>2015-07-09T10:12:38Z</time>
      </trkpt>
      <trkpt lat="46.01247" lon="4.49062">
        <ele>392.7</ele>
        <time>2015-07-09T10:12:40Z</time>
      </trkpt>
      <trkpt lat="46.01254" lon="4.49077">
        <ele>391.6</ele>
        <time>2015-07-09T10:12:42Z</time>
      </trkpt>
      <trkpt lat="46.01261" lon="4.49093">
        <ele>390.5</ele>
        <time>2015-07-09T10:12:44Z</time>
      </trkpt>
      <trkpt lat="46.01269" lon="4.49111">
        <ele>389.5</ele>
        <time>2015-07-09T10:12:46Z</time>
      </trkpt>
      <trkpt lat="46.01277" lon="4.4913">
        <ele>388.3</ele>
        <time>2015-07-09T10:12:48Z</time>
      </trkpt>
      <trkpt lat="46.01286" lon="4.49147">
        <ele>387.5</ele>
        <time>2015-07-09T10:12:50Z</time>
      </trkpt>
      <trkpt lat="46.01293" lon="4.49163">
        <ele>386.8</ele>
        <time>2015-07-09T10:12:52Z</time>
      </trkpt>
      <trkpt lat="46.01292" lon="4.49175">
        <ele>386.1</ele>
        <time>2015-07-09T10:12:53Z</time>
      </trkpt>
      <trkpt lat="46.01289" lon="4.49198">
        <ele>385.4</ele>
        <time>2015-07-09T10:12:55Z</time>
      </trkpt>
      <trkpt lat="46.01285" lon="4.49221">
        <ele>384.6</ele>
        <time>2015-07-09T10:12:57Z</time>
      </trkpt>
      <trkpt lat="46.01282" lon="4.49233">
        <ele>383</ele>
        <time>2015-07-09T10:12:58Z</time>
      </trkpt>
      <trkpt lat="46.01279" lon="4.49246">
        <ele>381.8</ele>
        <time>2015-07-09T10:12:59Z</time>
      </trkpt>
      <trkpt lat="46.01276" lon="4.49259">
        <ele>380.7</ele>
        <time>2015-07-09T10:13:00Z</time>
      </trkpt>
      <trkpt lat="46.01272" lon="4.49272">
        <ele>379.6</ele>
        <time>2015-07-09T10:13:01Z</time>
      </trkpt>
      <trkpt lat="46.01268" lon="4.49284">
        <ele>378.5</ele>
        <time>2015-07-09T10:13:02Z</time>
      </trkpt>
      <trkpt lat="46.01263" lon="4.49306">
        <ele>377.5</ele>
        <time>2015-07-09T10:13:04Z</time>
      </trkpt>
      <trkpt lat="46.01261" lon="4.49328">
        <ele>375.3</ele>
        <time>2015-07-09T10:13:06Z</time>
      </trkpt>
      <trkpt lat="46.01259" lon="4.4934">
        <ele>373</ele>
        <time>2015-07-09T10:13:07Z</time>
      </trkpt>
      <trkpt lat="46.01257" lon="4.49352">
        <ele>370.7</ele>
        <time>2015-07-09T10:13:08Z</time>
      </trkpt>
      <trkpt lat="46.01254" lon="4.49364">
        <ele>368.5</ele>
        <time>2015-07-09T10:13:09Z</time>
      </trkpt>
      <trkpt lat="46.01252" lon="4.49377">
        <ele>366.2</ele>
        <time>2015-07-09T10:13:10Z</time>
      </trkpt>
      <trkpt lat="46.0125" lon="4.4939">
        <ele>364.8</ele>
        <time>2015-07-09T10:13:11Z</time>
      </trkpt>
      <trkpt lat="46.01247" lon="4.49404">
        <ele>363.5</ele>
        <time>2015-07-09T10:13:12Z</time>
      </trkpt>
      <trkpt lat="46.01243" lon="4.49417">
        <ele>361.3</ele>
        <time>2015-07-09T10:13:13Z</time>
      </trkpt>
      <trkpt lat="46.01239" lon="4.49429">
        <ele>359</ele>
        <time>2015-07-09T10:13:14Z</time>
      </trkpt>
      <trkpt lat="46.01235" lon="4.4944">
        <ele>356.7</ele>
        <time>2015-07-09T10:13:15Z</time>
      </trkpt>
      <trkpt lat="46.01231" lon="4.49452">
        <ele>354.5</ele>
        <time>2015-07-09T10:13:16Z</time>
      </trkpt>
      <trkpt lat="46.01226" lon="4.49464">
        <ele>353.5</ele>
        <time>2015-07-09T10:13:17Z</time>
      </trkpt>
      <trkpt lat="46.0122" lon="4.49474">
        <ele>352.6</ele>
        <time>2015-07-09T10:13:18Z</time>
      </trkpt>
      <trkpt lat="46.01209" lon="4.49486">
        <ele>351.7</ele>
        <time>2015-07-09T10:13:20Z</time>
      </trkpt>
      <trkpt lat="46.01201" lon="4.49488">
        <ele>350.8</ele>
        <time>2015-07-09T10:13:21Z</time>
      </trkpt>
      <trkpt lat="46.01191" lon="4.49488">
        <ele>349.9</ele>
        <time>2015-07-09T10:13:22Z</time>
      </trkpt>
      <trkpt lat="46.01181" lon="4.49487">
        <ele>349</ele>
        <time>2015-07-09T10:13:23Z</time>
      </trkpt>
      <trkpt lat="46.01172" lon="4.49486">
        <ele>348.1</ele>
        <time>2015-07-09T10:13:24Z</time>
      </trkpt>
      <trkpt lat="46.01158" lon="4.49488">
        <ele>346.9</ele>
        <time>2015-07-09T10:13:26Z</time>
      </trkpt>
      <trkpt lat="46.01149" lon="4.49498">
        <ele>345.8</ele>
        <time>2015-07-09T10:13:28Z</time>
      </trkpt>
      <trkpt lat="46.0115" lon="4.49511">
        <ele>344.7</ele>
        <time>2015-07-09T10:13:30Z</time>
      </trkpt>
      <trkpt lat="46.01154" lon="4.49527">
        <ele>343.6</ele>
        <time>2015-07-09T10:13:32Z</time>
      </trkpt>
      <trkpt lat="46.0116" lon="4.49541">
        <ele>342.5</ele>
        <time>2015-07-09T10:13:34Z</time>
      </trkpt>
      <trkpt lat="46.01165" lon="4.49555">
        <ele>341.1</ele>
        <time>2015-07-09T10:13:36Z</time>
      </trkpt>
      <trkpt lat="46.01163" lon="4.4957">
        <ele>339.6</ele>
        <time>2015-07-09T10:13:39Z</time>
      </trkpt>
      <trkpt lat="46.01164" lon="4.49582">
        <ele>338.2</ele>
        <time>2015-07-09T10:13:40Z</time>
      </trkpt>
      <trkpt lat="46.01167" lon="4.49597">
        <ele>336.7</ele>
        <time>2015-07-09T10:13:41Z</time>
      </trkpt>
      <trkpt lat="46.01173" lon="4.49616">
        <ele>335.3</ele>
        <time>2015-07-09T10:13:43Z</time>
      </trkpt>
      <trkpt lat="46.01174" lon="4.49633">
        <ele>333.8</ele>
        <time>2015-07-09T10:13:45Z</time>
      </trkpt>
      <trkpt lat="46.01175" lon="4.49648">
        <ele>333.7</ele>
        <time>2015-07-09T10:13:47Z</time>
      </trkpt>
      <trkpt lat="46.01175" lon="4.49664">
        <ele>333.6</ele>
        <time>2015-07-09T10:13:49Z</time>
      </trkpt>
      <trkpt lat="46.01174" lon="4.49684">
        <ele>333.5</ele>
        <time>2015-07-09T10:13:51Z</time>
      </trkpt>
      <trkpt lat="46.01172" lon="4.49698">
        <ele>333.5</ele>
        <time>2015-07-09T10:13:53Z</time>
      </trkpt>
      <trkpt lat="46.01165" lon="4.49711">
        <ele>333.4</ele>
        <time>2015-07-09T10:13:56Z</time>
      </trkpt>
      <trkpt lat="46.0116" lon="4.49727">
        <ele>334</ele>
        <time>2015-07-09T10:13:59Z</time>
      </trkpt>
      <trkpt lat="46.01153" lon="4.49737">
        <ele>334.6</ele>
        <time>2015-07-09T10:14:05Z</time>
      </trkpt>
      <trkpt lat="46.01148" lon="4.49749">
        <ele>335.3</ele>
        <time>2015-07-09T10:14:09Z</time>
      </trkpt>
      <trkpt lat="46.01141" lon="4.49757">
        <ele>335.9</ele>
        <time>2015-07-09T10:14:16Z</time>
      </trkpt>
      <trkpt lat="46.01133" lon="4.49761">
        <ele>336.5</ele>
        <time>2015-07-09T10:14:21Z</time>
      </trkpt>
      <trkpt lat="46.01125" lon="4.49758">
        <ele>337.2</ele>
        <time>2015-07-09T10:14:24Z</time>
      </trkpt>
      <trkpt lat="46.01102" lon="4.49751">
        <ele>337.5</ele>
        <time>2015-07-09T10:14:31Z</time>
      </trkpt>
      <trkpt lat="46.0109" lon="4.4975">
        <ele>338.1</ele>
        <time>2015-07-09T10:14:32Z</time>
      </trkpt>
      <trkpt lat="46.01079" lon="4.49749">
        <ele>338.6</ele>
        <time>2015-07-09T10:14:34Z</time>
      </trkpt>
      <trkpt lat="46.01071" lon="4.49746">
        <ele>339.2</ele>
        <time>2015-07-09T10:14:35Z</time>
      </trkpt>
      <trkpt lat="46.01059" lon="4.49738">
        <ele>339.7</ele>
        <time>2015-07-09T10:14:37Z</time>
      </trkpt>
      <trkpt lat="46.01047" lon="4.49735">
        <ele>338.9</ele>
        <time>2015-07-09T10:14:38Z</time>
      </trkpt>
      <trkpt lat="46.01039" lon="4.49731">
        <ele>338.1</ele>
        <time>2015-07-09T10:14:39Z</time>
      </trkpt>
      <trkpt lat="46.0103" lon="4.4973">
        <ele>337.3</ele>
        <time>2015-07-09T10:14:40Z</time>
      </trkpt>
      <trkpt lat="46.01017" lon="4.49724">
        <ele>336.5</ele>
        <time>2015-07-09T10:14:42Z</time>
      </trkpt>
      <trkpt lat="46.01005" lon="4.49717">
        <ele>335.6</ele>
        <time>2015-07-09T10:14:44Z</time>
      </trkpt>
      <trkpt lat="46.00992" lon="4.49711">
        <ele>334.8</ele>
        <time>2015-07-09T10:14:46Z</time>
      </trkpt>
      <trkpt lat="46.00979" lon="4.49704">
        <ele>334</ele>
        <time>2015-07-09T10:14:48Z</time>
      </trkpt>
      <trkpt lat="46.00967" lon="4.49698">
        <ele>333</ele>
        <time>2015-07-09T10:14:50Z</time>
      </trkpt>
      <trkpt lat="46.00954" lon="4.49696">
        <ele>332</ele>
        <time>2015-07-09T10:14:52Z</time>
      </trkpt>
      <trkpt lat="46.00946" lon="4.49693">
        <ele>331</ele>
        <time>2015-07-09T10:14:54Z</time>
      </trkpt>
      <trkpt lat="46.00935" lon="4.49692">
        <ele>330</ele>
        <time>2015-07-09T10:14:56Z</time>
      </trkpt>
      <trkpt lat="46.00925" lon="4.49691">
        <ele>330</ele>
        <time>2015-07-09T10:14:58Z</time>
      </trkpt>
      <trkpt lat="46.00911" lon="4.49691">
        <ele>330</ele>
        <time>2015-07-09T10:15:00Z</time>
      </trkpt>
      <trkpt lat="46.00899" lon="4.49691">
        <ele>330</ele>
        <time>2015-07-09T10:15:02Z</time>
      </trkpt>
      <trkpt lat="46.00886" lon="4.49691">
        <ele>330</ele>
        <time>2015-07-09T10:15:04Z</time>
      </trkpt>
      <trkpt lat="46.00872" lon="4.49691">
        <ele>330</ele>
        <time>2015-07-09T10:15:06Z</time>
      </trkpt>
      <trkpt lat="46.00858" lon="4.49692">
        <ele>331</ele>
        <time>2015-07-09T10:15:08Z</time>
      </trkpt>
      <trkpt lat="46.0085" lon="4.49695">
        <ele>332</ele>
        <time>2015-07-09T10:15:09Z</time>
      </trkpt>
      <trkpt lat="46.00839" lon="4.497">
        <ele>333</ele>
        <time>2015-07-09T10:15:10Z</time>
      </trkpt>
      <trkpt lat="46.00829" lon="4.49705">
        <ele>332.9</ele>
        <time>2015-07-09T10:15:11Z</time>
      </trkpt>
      <trkpt lat="46.00819" lon="4.49709">
        <ele>332.8</ele>
        <time>2015-07-09T10:15:12Z</time>
      </trkpt>
      <trkpt lat="46.00811" lon="4.49714">
        <ele>332.7</ele>
        <time>2015-07-09T10:15:13Z</time>
      </trkpt>
      <trkpt lat="46.00803" lon="4.49718">
        <ele>332.6</ele>
        <time>2015-07-09T10:15:14Z</time>
      </trkpt>
      <trkpt lat="46.00795" lon="4.49723">
        <ele>332.5</ele>
        <time>2015-07-09T10:15:15Z</time>
      </trkpt>
      <trkpt lat="46.00787" lon="4.49728">
        <ele>332.5</ele>
        <time>2015-07-09T10:15:16Z</time>
      </trkpt>
      <trkpt lat="46.00779" lon="4.49733">
        <ele>332.4</ele>
        <time>2015-07-09T10:15:17Z</time>
      </trkpt>
      <trkpt lat="46.0077" lon="4.49736">
        <ele>332.3</ele>
        <time>2015-07-09T10:15:18Z</time>
      </trkpt>
      <trkpt lat="46.00756" lon="4.49744">
        <ele>331</ele>
        <time>2015-07-09T10:15:20Z</time>
      </trkpt>
      <trkpt lat="46.00747" lon="4.49749">
        <ele>329.7</ele>
        <time>2015-07-09T10:15:21Z</time>
      </trkpt>
      <trkpt lat="46.0074" lon="4.49753">
        <ele>328.5</ele>
        <time>2015-07-09T10:15:22Z</time>
      </trkpt>
      <trkpt lat="46.00725" lon="4.4976">
        <ele>328.3</ele>
        <time>2015-07-09T10:15:24Z</time>
      </trkpt>
      <trkpt lat="46.00711" lon="4.49765">
        <ele>328.1</ele>
        <time>2015-07-09T10:15:26Z</time>
      </trkpt>
      <trkpt lat="46.00696" lon="4.49769">
        <ele>327.9</ele>
        <time>2015-07-09T10:15:28Z</time>
      </trkpt>
      <trkpt lat="46.00684" lon="4.49774">
        <ele>327.5</ele>
        <time>2015-07-09T10:15:29Z</time>
      </trkpt>
      <trkpt lat="46.00669" lon="4.49776">
        <ele>327</ele>
        <time>2015-07-09T10:15:31Z</time>
      </trkpt>
      <trkpt lat="46.00655" lon="4.49777">
        <ele>326.5</ele>
        <time>2015-07-09T10:15:33Z</time>
      </trkpt>
      <trkpt lat="46.00642" lon="4.49778">
        <ele>326.1</ele>
        <time>2015-07-09T10:15:35Z</time>
      </trkpt>
      <trkpt lat="46.00629" lon="4.49777">
        <ele>325.6</ele>
        <time>2015-07-09T10:15:37Z</time>
      </trkpt>
      <trkpt lat="46.00618" lon="4.49775">
        <ele>325.4</ele>
        <time>2015-07-09T10:15:39Z</time>
      </trkpt>
      <trkpt lat="46.00606" lon="4.49772">
        <ele>325.1</ele>
        <time>2015-07-09T10:15:41Z</time>
      </trkpt>
      <trkpt lat="46.00595" lon="4.49769">
        <ele>325.8</ele>
        <time>2015-07-09T10:15:43Z</time>
      </trkpt>
      <trkpt lat="46.00584" lon="4.49765">
        <ele>326.5</ele>
        <time>2015-07-09T10:15:45Z</time>
      </trkpt>
      <trkpt lat="46.00573" lon="4.49761">
        <ele>327.3</ele>
        <time>2015-07-09T10:15:47Z</time>
      </trkpt>
      <trkpt lat="46.00563" lon="4.49756">
        <ele>328</ele>
        <time>2015-07-09T10:15:49Z</time>
      </trkpt>
      <trkpt lat="46.00552" lon="4.49751">
        <ele>329</ele>
        <time>2015-07-09T10:15:51Z</time>
      </trkpt>
      <trkpt lat="46.00541" lon="4.49744">
        <ele>329.3</ele>
        <time>2015-07-09T10:15:53Z</time>
      </trkpt>
      <trkpt lat="46.00531" lon="4.49738">
        <ele>329.5</ele>
        <time>2015-07-09T10:15:55Z</time>
      </trkpt>
      <trkpt lat="46.00522" lon="4.49733">
        <ele>329.8</ele>
        <time>2015-07-09T10:15:57Z</time>
      </trkpt>
      <trkpt lat="46.00513" lon="4.49726">
        <ele>330.1</ele>
        <time>2015-07-09T10:15:59Z</time>
      </trkpt>
      <trkpt lat="46.00505" lon="4.49719">
        <ele>330.8</ele>
        <time>2015-07-09T10:16:01Z</time>
      </trkpt>
      <trkpt lat="46.00497" lon="4.49712">
        <ele>331.5</ele>
        <time>2015-07-09T10:16:03Z</time>
      </trkpt>
      <trkpt lat="46.00489" lon="4.49706">
        <ele>331.3</ele>
        <time>2015-07-09T10:16:05Z</time>
      </trkpt>
      <trkpt lat="46.00481" lon="4.497">
        <ele>331</ele>
        <time>2015-07-09T10:16:06Z</time>
      </trkpt>
      <trkpt lat="46.00469" lon="4.49692">
        <ele>330.7</ele>
        <time>2015-07-09T10:16:08Z</time>
      </trkpt>
      <trkpt lat="46.00459" lon="4.49686">
        <ele>330.5</ele>
        <time>2015-07-09T10:16:10Z</time>
      </trkpt>
      <trkpt lat="46.00448" lon="4.49682">
        <ele>330.2</ele>
        <time>2015-07-09T10:16:12Z</time>
      </trkpt>
      <trkpt lat="46.00436" lon="4.49678">
        <ele>330.5</ele>
        <time>2015-07-09T10:16:14Z</time>
      </trkpt>
      <trkpt lat="46.00423" lon="4.49678">
        <ele>330.7</ele>
        <time>2015-07-09T10:16:16Z</time>
      </trkpt>
      <trkpt lat="46.00414" lon="4.49679">
        <ele>331</ele>
        <time>2015-07-09T10:16:17Z</time>
      </trkpt>
      <trkpt lat="46.00402" lon="4.49678">
        <ele>331.3</ele>
        <time>2015-07-09T10:16:19Z</time>
      </trkpt>
      <trkpt lat="46.00391" lon="4.49677">
        <ele>331.1</ele>
        <time>2015-07-09T10:16:21Z</time>
      </trkpt>
      <trkpt lat="46.0038" lon="4.49677">
        <ele>330.9</ele>
        <time>2015-07-09T10:16:23Z</time>
      </trkpt>
      <trkpt lat="46.00366" lon="4.49677">
        <ele>330.7</ele>
        <time>2015-07-09T10:16:25Z</time>
      </trkpt>
      <trkpt lat="46.00353" lon="4.49678">
        <ele>330.4</ele>
        <time>2015-07-09T10:16:27Z</time>
      </trkpt>
      <trkpt lat="46.00339" lon="4.4968">
        <ele>330</ele>
        <time>2015-07-09T10:16:29Z</time>
      </trkpt>
      <trkpt lat="46.00325" lon="4.49683">
        <ele>329.6</ele>
        <time>2015-07-09T10:16:31Z</time>
      </trkpt>
      <trkpt lat="46.00311" lon="4.49685">
        <ele>329.3</ele>
        <time>2015-07-09T10:16:33Z</time>
      </trkpt>
      <trkpt lat="46.00299" lon="4.49687">
        <ele>329.1</ele>
        <time>2015-07-09T10:16:35Z</time>
      </trkpt>
      <trkpt lat="46.00286" lon="4.49688">
        <ele>328.9</ele>
        <time>2015-07-09T10:16:37Z</time>
      </trkpt>
      <trkpt lat="46.00271" lon="4.49691">
        <ele>328.8</ele>
        <time>2015-07-09T10:16:39Z</time>
      </trkpt>
      <trkpt lat="46.00256" lon="4.49693">
        <ele>328.7</ele>
        <time>2015-07-09T10:16:41Z</time>
      </trkpt>
      <trkpt lat="46.00244" lon="4.49696">
        <ele>328.5</ele>
        <time>2015-07-09T10:16:43Z</time>
      </trkpt>
      <trkpt lat="46.00231" lon="4.49697">
        <ele>328.4</ele>
        <time>2015-07-09T10:16:45Z</time>
      </trkpt>
      <trkpt lat="46.00219" lon="4.497">
        <ele>328.2</ele>
        <time>2015-07-09T10:16:47Z</time>
      </trkpt>
      <trkpt lat="46.00207" lon="4.49706">
        <ele>328.2</ele>
        <time>2015-07-09T10:16:49Z</time>
      </trkpt>
      <trkpt lat="46.00196" lon="4.49713">
        <ele>328.2</ele>
        <time>2015-07-09T10:16:51Z</time>
      </trkpt>
      <trkpt lat="46.00183" lon="4.49722">
        <ele>327.8</ele>
        <time>2015-07-09T10:16:53Z</time>
      </trkpt>
      <trkpt lat="46.00169" lon="4.4973">
        <ele>327.5</ele>
        <time>2015-07-09T10:16:55Z</time>
      </trkpt>
      <trkpt lat="46.00161" lon="4.49735">
        <ele>327.1</ele>
        <time>2015-07-09T10:16:56Z</time>
      </trkpt>
      <trkpt lat="46.00147" lon="4.49745">
        <ele>326.7</ele>
        <time>2015-07-09T10:16:58Z</time>
      </trkpt>
      <trkpt lat="46.00132" lon="4.49755">
        <ele>327.3</ele>
        <time>2015-07-09T10:17:00Z</time>
      </trkpt>
      <trkpt lat="46.00118" lon="4.49764">
        <ele>327.8</ele>
        <time>2015-07-09T10:17:02Z</time>
      </trkpt>
      <trkpt lat="46.00105" lon="4.49773">
        <ele>328.5</ele>
        <time>2015-07-09T10:17:04Z</time>
      </trkpt>
      <trkpt lat="46.00093" lon="4.49782">
        <ele>328.3</ele>
        <time>2015-07-09T10:17:06Z</time>
      </trkpt>
      <trkpt lat="46.00082" lon="4.49789">
        <ele>328.1</ele>
        <time>2015-07-09T10:17:08Z</time>
      </trkpt>
      <trkpt lat="46.00072" lon="4.49797">
        <ele>327.9</ele>
        <time>2015-07-09T10:17:10Z</time>
      </trkpt>
      <trkpt lat="46.00061" lon="4.49805">
        <ele>327.7</ele>
        <time>2015-07-09T10:17:12Z</time>
      </trkpt>
      <trkpt lat="46.0005" lon="4.49814">
        <ele>327.9</ele>
        <time>2015-07-09T10:17:14Z</time>
      </trkpt>
      <trkpt lat="46.00038" lon="4.49822">
        <ele>328.1</ele>
        <time>2015-07-09T10:17:16Z</time>
      </trkpt>
      <trkpt lat="46.00027" lon="4.4983">
        <ele>328.3</ele>
        <time>2015-07-09T10:17:18Z</time>
      </trkpt>
      <trkpt lat="46.00016" lon="4.49839">
        <ele>328.5</ele>
        <time>2015-07-09T10:17:20Z</time>
      </trkpt>
      <trkpt lat="46.00005" lon="4.49847">
        <ele>328.4</ele>
        <time>2015-07-09T10:17:22Z</time>
      </trkpt>
      <trkpt lat="45.99993" lon="4.49855">
        <ele>328.3</ele>
        <time>2015-07-09T10:17:24Z</time>
      </trkpt>
      <trkpt lat="45.99983" lon="4.49862">
        <ele>328.2</ele>
        <time>2015-07-09T10:17:26Z</time>
      </trkpt>
      <trkpt lat="45.99972" lon="4.49869">
        <ele>328.9</ele>
        <time>2015-07-09T10:17:28Z</time>
      </trkpt>
      <trkpt lat="45.99963" lon="4.49874">
        <ele>329.6</ele>
        <time>2015-07-09T10:17:30Z</time>
      </trkpt>
      <trkpt lat="45.99954" lon="4.49881">
        <ele>330.4</ele>
        <time>2015-07-09T10:17:32Z</time>
      </trkpt>
      <trkpt lat="45.99945" lon="4.49887">
        <ele>331.1</ele>
        <time>2015-07-09T10:17:34Z</time>
      </trkpt>
      <trkpt lat="45.99934" lon="4.49894">
        <ele>331.8</ele>
        <time>2015-07-09T10:17:36Z</time>
      </trkpt>
      <trkpt lat="45.99923" lon="4.49901">
        <ele>331.8</ele>
        <time>2015-07-09T10:17:38Z</time>
      </trkpt>
      <trkpt lat="45.99912" lon="4.49907">
        <ele>331.8</ele>
        <time>2015-07-09T10:17:40Z</time>
      </trkpt>
      <trkpt lat="45.99905" lon="4.49911">
        <ele>331.8</ele>
        <time>2015-07-09T10:17:42Z</time>
      </trkpt>
      <trkpt lat="45.99892" lon="4.49918">
        <ele>331.1</ele>
        <time>2015-07-09T10:17:44Z</time>
      </trkpt>
      <trkpt lat="45.99883" lon="4.49922">
        <ele>330.4</ele>
        <time>2015-07-09T10:17:46Z</time>
      </trkpt>
      <trkpt lat="45.9987" lon="4.49927">
        <ele>329.6</ele>
        <time>2015-07-09T10:17:48Z</time>
      </trkpt>
      <trkpt lat="45.99858" lon="4.4993">
        <ele>328.7</ele>
        <time>2015-07-09T10:17:50Z</time>
      </trkpt>
      <trkpt lat="45.99845" lon="4.49932">
        <ele>327.8</ele>
        <time>2015-07-09T10:17:52Z</time>
      </trkpt>
      <trkpt lat="45.99832" lon="4.49934">
        <ele>326.9</ele>
        <time>2015-07-09T10:17:54Z</time>
      </trkpt>
      <trkpt lat="45.99818" lon="4.49933">
        <ele>326</ele>
        <time>2015-07-09T10:17:56Z</time>
      </trkpt>
      <trkpt lat="45.99805" lon="4.49932">
        <ele>325.1</ele>
        <time>2015-07-09T10:17:58Z</time>
      </trkpt>
      <trkpt lat="45.99791" lon="4.4993">
        <ele>324.9</ele>
        <time>2015-07-09T10:18:00Z</time>
      </trkpt>
      <trkpt lat="45.99779" lon="4.49927">
        <ele>324.7</ele>
        <time>2015-07-09T10:18:02Z</time>
      </trkpt>
      <trkpt lat="45.99766" lon="4.49923">
        <ele>324.3</ele>
        <time>2015-07-09T10:18:04Z</time>
      </trkpt>
      <trkpt lat="45.99754" lon="4.4992">
        <ele>323.8</ele>
        <time>2015-07-09T10:18:06Z</time>
      </trkpt>
      <trkpt lat="45.99741" lon="4.49918">
        <ele>323.4</ele>
        <time>2015-07-09T10:18:08Z</time>
      </trkpt>
      <trkpt lat="45.9973" lon="4.4992">
        <ele>322.9</ele>
        <time>2015-07-09T10:18:10Z</time>
      </trkpt>
      <trkpt lat="45.99718" lon="4.49922">
        <ele>322.6</ele>
        <time>2015-07-09T10:18:12Z</time>
      </trkpt>
      <trkpt lat="45.99706" lon="4.49925">
        <ele>322.4</ele>
        <time>2015-07-09T10:18:14Z</time>
      </trkpt>
      <trkpt lat="45.99693" lon="4.4993">
        <ele>322.1</ele>
        <time>2015-07-09T10:18:16Z</time>
      </trkpt>
      <trkpt lat="45.99682" lon="4.49937">
        <ele>321.8</ele>
        <time>2015-07-09T10:18:18Z</time>
      </trkpt>
      <trkpt lat="45.99672" lon="4.4994">
        <ele>321.5</ele>
        <time>2015-07-09T10:18:20Z</time>
      </trkpt>
      <trkpt lat="45.99664" lon="4.49934">
        <ele>321.3</ele>
        <time>2015-07-09T10:18:22Z</time>
      </trkpt>
      <trkpt lat="45.99659" lon="4.4992">
        <ele>322</ele>
        <time>2015-07-09T10:18:27Z</time>
      </trkpt>
      <trkpt lat="45.99655" lon="4.49908">
        <ele>323</ele>
        <time>2015-07-09T10:18:30Z</time>
      </trkpt>
      <trkpt lat="45.99651" lon="4.49895">
        <ele>324</ele>
        <time>2015-07-09T10:18:33Z</time>
      </trkpt>
      <trkpt lat="45.99644" lon="4.49887">
        <ele>325</ele>
        <time>2015-07-09T10:18:36Z</time>
      </trkpt>
      <trkpt lat="45.99635" lon="4.4989">
        <ele>326</ele>
        <time>2015-07-09T10:18:39Z</time>
      </trkpt>
      <trkpt lat="45.99627" lon="4.49896">
        <ele>327</ele>
        <time>2015-07-09T10:18:42Z</time>
      </trkpt>
      <trkpt lat="45.99619" lon="4.49902">
        <ele>328</ele>
        <time>2015-07-09T10:18:45Z</time>
      </trkpt>
      <trkpt lat="45.99611" lon="4.49908">
        <ele>329</ele>
        <time>2015-07-09T10:18:48Z</time>
      </trkpt>
      <trkpt lat="45.99601" lon="4.49915">
        <ele>330</ele>
        <time>2015-07-09T10:18:51Z</time>
      </trkpt>
      <trkpt lat="45.99594" lon="4.4992">
        <ele>331</ele>
        <time>2015-07-09T10:18:54Z</time>
      </trkpt>
      <trkpt lat="45.99585" lon="4.49925">
        <ele>332.7</ele>
        <time>2015-07-09T10:18:58Z</time>
      </trkpt>
      <trkpt lat="45.99576" lon="4.49929">
        <ele>333.5</ele>
        <time>2015-07-09T10:19:01Z</time>
      </trkpt>
      <trkpt lat="45.99567" lon="4.49933">
        <ele>334.2</ele>
        <time>2015-07-09T10:19:04Z</time>
      </trkpt>
      <trkpt lat="45.99559" lon="4.49937">
        <ele>334.9</ele>
        <time>2015-07-09T10:19:07Z</time>
      </trkpt>
      <trkpt lat="45.99551" lon="4.49943">
        <ele>335.6</ele>
        <time>2015-07-09T10:19:10Z</time>
      </trkpt>
      <trkpt lat="45.99544" lon="4.4995">
        <ele>336.4</ele>
        <time>2015-07-09T10:19:13Z</time>
      </trkpt>
      <trkpt lat="45.99534" lon="4.49956">
        <ele>337.1</ele>
        <time>2015-07-09T10:19:17Z</time>
      </trkpt>
      <trkpt lat="45.99526" lon="4.4996">
        <ele>337.8</ele>
        <time>2015-07-09T10:19:20Z</time>
      </trkpt>
      <trkpt lat="45.99515" lon="4.4996">
        <ele>338.5</ele>
        <time>2015-07-09T10:19:23Z</time>
      </trkpt>
      <trkpt lat="45.99493" lon="4.49954">
        <ele>339.3</ele>
        <time>2015-07-09T10:19:29Z</time>
      </trkpt>
      <trkpt lat="45.99488" lon="4.49944">
        <ele>340.5</ele>
        <time>2015-07-09T10:19:32Z</time>
      </trkpt>
      <trkpt lat="45.99486" lon="4.4993">
        <ele>341.1</ele>
        <time>2015-07-09T10:19:35Z</time>
      </trkpt>
      <trkpt lat="45.99486" lon="4.49915">
        <ele>341.6</ele>
        <time>2015-07-09T10:19:38Z</time>
      </trkpt>
      <trkpt lat="45.99486" lon="4.49898">
        <ele>342.2</ele>
        <time>2015-07-09T10:19:41Z</time>
      </trkpt>
      <trkpt lat="45.99488" lon="4.49883">
        <ele>342.7</ele>
        <time>2015-07-09T10:19:44Z</time>
      </trkpt>
      <trkpt lat="45.9949" lon="4.49869">
        <ele>343.3</ele>
        <time>2015-07-09T10:19:47Z</time>
      </trkpt>
      <trkpt lat="45.99493" lon="4.49856">
        <ele>344.1</ele>
        <time>2015-07-09T10:19:50Z</time>
      </trkpt>
      <trkpt lat="45.99498" lon="4.49843">
        <ele>344.9</ele>
        <time>2015-07-09T10:19:53Z</time>
      </trkpt>
      <trkpt lat="45.99503" lon="4.49832">
        <ele>345.7</ele>
        <time>2015-07-09T10:19:56Z</time>
      </trkpt>
      <trkpt lat="45.99508" lon="4.49816">
        <ele>346.5</ele>
        <time>2015-07-09T10:20:00Z</time>
      </trkpt>
      <trkpt lat="45.99511" lon="4.49805">
        <ele>347.4</ele>
        <time>2015-07-09T10:20:02Z</time>
      </trkpt>
      <trkpt lat="45.99516" lon="4.49789">
        <ele>347.6</ele>
        <time>2015-07-09T10:20:05Z</time>
      </trkpt>
      <trkpt lat="45.99519" lon="4.49775">
        <ele>348.7</ele>
        <time>2015-07-09T10:20:08Z</time>
      </trkpt>
      <trkpt lat="45.99523" lon="4.49763">
        <ele>349</ele>
        <time>2015-07-09T10:20:11Z</time>
      </trkpt>
      <trkpt lat="45.99527" lon="4.4975">
        <ele>349.3</ele>
        <time>2015-07-09T10:20:14Z</time>
      </trkpt>
      <trkpt lat="45.99531" lon="4.49734">
        <ele>349.5</ele>
        <time>2015-07-09T10:20:17Z</time>
      </trkpt>
      <trkpt lat="45.99532" lon="4.49719">
        <ele>349.8</ele>
        <time>2015-07-09T10:20:20Z</time>
      </trkpt>
      <trkpt lat="45.99528" lon="4.49707">
        <ele>349.8</ele>
        <time>2015-07-09T10:20:23Z</time>
      </trkpt>
      <trkpt lat="45.99522" lon="4.49715">
        <ele>349.8</ele>
        <time>2015-07-09T10:20:30Z</time>
      </trkpt>
      <trkpt lat="45.99521" lon="4.49729">
        <ele>349.8</ele>
        <time>2015-07-09T10:20:34Z</time>
      </trkpt>
      <trkpt lat="45.99515" lon="4.49741">
        <ele>349.5</ele>
        <time>2015-07-09T10:20:37Z</time>
      </trkpt>
      <trkpt lat="45.9951" lon="4.49753">
        <ele>349.3</ele>
        <time>2015-07-09T10:20:40Z</time>
      </trkpt>
      <trkpt lat="45.99505" lon="4.49766">
        <ele>349</ele>
        <time>2015-07-09T10:20:43Z</time>
      </trkpt>
      <trkpt lat="45.99501" lon="4.49776">
        <ele>347.9</ele>
        <time>2015-07-09T10:20:46Z</time>
      </trkpt>
      <trkpt lat="45.99497" lon="4.49787">
        <ele>347.6</ele>
        <time>2015-07-09T10:20:49Z</time>
      </trkpt>
      <trkpt lat="45.99491" lon="4.49798">
        <ele>348.4</ele>
        <time>2015-07-09T10:20:53Z</time>
      </trkpt>
      <trkpt lat="45.99487" lon="4.49809">
        <ele>349.1</ele>
        <time>2015-07-09T10:20:56Z</time>
      </trkpt>
      <trkpt lat="45.99482" lon="4.49821">
        <ele>349.8</ele>
        <time>2015-07-09T10:20:59Z</time>
      </trkpt>
      <trkpt lat="45.99475" lon="4.4983">
        <ele>349.4</ele>
        <time>2015-07-09T10:21:01Z</time>
      </trkpt>
      <trkpt lat="45.99468" lon="4.4984">
        <ele>348.9</ele>
        <time>2015-07-09T10:21:03Z</time>
      </trkpt>
      <trkpt lat="45.99461" lon="4.4985">
        <ele>348.5</ele>
        <time>2015-07-09T10:21:05Z</time>
      </trkpt>
      <trkpt lat="45.99453" lon="4.49859">
        <ele>348.3</ele>
        <time>2015-07-09T10:21:07Z</time>
      </trkpt>
      <trkpt lat="45.99446" lon="4.49869">
        <ele>348.1</ele>
        <time>2015-07-09T10:21:09Z</time>
      </trkpt>
      <trkpt lat="45.99439" lon="4.49879">
        <ele>347.9</ele>
        <time>2015-07-09T10:21:11Z</time>
      </trkpt>
      <trkpt lat="45.99432" lon="4.49889">
        <ele>347.7</ele>
        <time>2015-07-09T10:21:13Z</time>
      </trkpt>
      <trkpt lat="45.99428" lon="4.49901">
        <ele>347.4</ele>
        <time>2015-07-09T10:21:15Z</time>
      </trkpt>
      <trkpt lat="45.99424" lon="4.49912">
        <ele>346</ele>
        <time>2015-07-09T10:21:17Z</time>
      </trkpt>
      <trkpt lat="45.99421" lon="4.49923">
        <ele>344.6</ele>
        <time>2015-07-09T10:21:19Z</time>
      </trkpt>
      <trkpt lat="45.99417" lon="4.49939">
        <ele>343.3</ele>
        <time>2015-07-09T10:21:22Z</time>
      </trkpt>
      <trkpt lat="45.99416" lon="4.49955">
        <ele>343.1</ele>
        <time>2015-07-09T10:21:27Z</time>
      </trkpt>
      <trkpt lat="45.99417" lon="4.49966">
        <ele>342.9</ele>
        <time>2015-07-09T10:21:29Z</time>
      </trkpt>
      <trkpt lat="45.99418" lon="4.4998">
        <ele>342.1</ele>
        <time>2015-07-09T10:21:31Z</time>
      </trkpt>
      <trkpt lat="45.99416" lon="4.49992">
        <ele>341.3</ele>
        <time>2015-07-09T10:21:33Z</time>
      </trkpt>
      <trkpt lat="45.99412" lon="4.50003">
        <ele>340.5</ele>
        <time>2015-07-09T10:21:35Z</time>
      </trkpt>
      <trkpt lat="45.99407" lon="4.50018">
        <ele>339.6</ele>
        <time>2015-07-09T10:21:37Z</time>
      </trkpt>
      <trkpt lat="45.99403" lon="4.50033">
        <ele>338.8</ele>
        <time>2015-07-09T10:21:39Z</time>
      </trkpt>
      <trkpt lat="45.99401" lon="4.50047">
        <ele>338.2</ele>
        <time>2015-07-09T10:21:41Z</time>
      </trkpt>
      <trkpt lat="45.994" lon="4.5006">
        <ele>338.2</ele>
        <time>2015-07-09T10:21:43Z</time>
      </trkpt>
      <trkpt lat="45.99398" lon="4.50072">
        <ele>338.2</ele>
        <time>2015-07-09T10:21:45Z</time>
      </trkpt>
      <trkpt lat="45.99394" lon="4.50083">
        <ele>338.2</ele>
        <time>2015-07-09T10:21:47Z</time>
      </trkpt>
      <trkpt lat="45.9939" lon="4.50096">
        <ele>338.2</ele>
        <time>2015-07-09T10:21:49Z</time>
      </trkpt>
      <trkpt lat="45.99387" lon="4.50107">
        <ele>338.2</ele>
        <time>2015-07-09T10:21:51Z</time>
      </trkpt>
      <trkpt lat="45.99381" lon="4.50118">
        <ele>338.8</ele>
        <time>2015-07-09T10:21:54Z</time>
      </trkpt>
      <trkpt lat="45.9937" lon="4.50124">
        <ele>339.5</ele>
        <time>2015-07-09T10:21:57Z</time>
      </trkpt>
      <trkpt lat="45.9936" lon="4.50127">
        <ele>340.1</ele>
        <time>2015-07-09T10:21:59Z</time>
      </trkpt>
      <trkpt lat="45.99351" lon="4.50127">
        <ele>340.7</ele>
        <time>2015-07-09T10:22:01Z</time>
      </trkpt>
      <trkpt lat="45.99343" lon="4.50126">
        <ele>340.8</ele>
        <time>2015-07-09T10:22:03Z</time>
      </trkpt>
      <trkpt lat="45.99335" lon="4.50124">
        <ele>340.9</ele>
        <time>2015-07-09T10:22:05Z</time>
      </trkpt>
      <trkpt lat="45.99323" lon="4.50122">
        <ele>340.5</ele>
        <time>2015-07-09T10:22:08Z</time>
      </trkpt>
      <trkpt lat="45.99314" lon="4.5012">
        <ele>340.2</ele>
        <time>2015-07-09T10:22:11Z</time>
      </trkpt>
      <trkpt lat="45.99307" lon="4.50131">
        <ele>339.8</ele>
        <time>2015-07-09T10:22:14Z</time>
      </trkpt>
      <trkpt lat="45.99303" lon="4.50142">
        <ele>339.5</ele>
        <time>2015-07-09T10:22:15Z</time>
      </trkpt>
      <trkpt lat="45.99292" lon="4.5015">
        <ele>339.1</ele>
        <time>2015-07-09T10:22:17Z</time>
      </trkpt>
      <trkpt lat="45.99278" lon="4.50154">
        <ele>338.7</ele>
        <time>2015-07-09T10:22:19Z</time>
      </trkpt>
      <trkpt lat="45.99264" lon="4.50156">
        <ele>337.7</ele>
        <time>2015-07-09T10:22:21Z</time>
      </trkpt>
      <trkpt lat="45.99249" lon="4.50154">
        <ele>336.7</ele>
        <time>2015-07-09T10:22:23Z</time>
      </trkpt>
      <trkpt lat="45.99239" lon="4.50154">
        <ele>335.7</ele>
        <time>2015-07-09T10:22:24Z</time>
      </trkpt>
      <trkpt lat="45.99231" lon="4.50153">
        <ele>335.3</ele>
        <time>2015-07-09T10:22:25Z</time>
      </trkpt>
      <trkpt lat="45.99217" lon="4.50149">
        <ele>334.8</ele>
        <time>2015-07-09T10:22:27Z</time>
      </trkpt>
      <trkpt lat="45.99201" lon="4.50148">
        <ele>334.2</ele>
        <time>2015-07-09T10:22:29Z</time>
      </trkpt>
      <trkpt lat="45.99187" lon="4.5016">
        <ele>333.5</ele>
        <time>2015-07-09T10:22:31Z</time>
      </trkpt>
      <trkpt lat="45.99178" lon="4.50168">
        <ele>332.9</ele>
        <time>2015-07-09T10:22:32Z</time>
      </trkpt>
      <trkpt lat="45.99169" lon="4.50173">
        <ele>331.8</ele>
        <time>2015-07-09T10:22:33Z</time>
      </trkpt>
      <trkpt lat="45.99159" lon="4.50181">
        <ele>330.7</ele>
        <time>2015-07-09T10:22:34Z</time>
      </trkpt>
      <trkpt lat="45.99149" lon="4.50188">
        <ele>329.6</ele>
        <time>2015-07-09T10:22:35Z</time>
      </trkpt>
      <trkpt lat="45.9914" lon="4.50195">
        <ele>328.4</ele>
        <time>2015-07-09T10:22:36Z</time>
      </trkpt>
      <trkpt lat="45.99129" lon="4.50202">
        <ele>327.1</ele>
        <time>2015-07-09T10:22:37Z</time>
      </trkpt>
      <trkpt lat="45.9912" lon="4.50208">
        <ele>325.8</ele>
        <time>2015-07-09T10:22:38Z</time>
      </trkpt>
      <trkpt lat="45.99111" lon="4.50214">
        <ele>324.5</ele>
        <time>2015-07-09T10:22:39Z</time>
      </trkpt>
      <trkpt lat="45.99101" lon="4.50219">
        <ele>323.3</ele>
        <time>2015-07-09T10:22:40Z</time>
      </trkpt>
      <trkpt lat="45.99091" lon="4.50224">
        <ele>322.2</ele>
        <time>2015-07-09T10:22:41Z</time>
      </trkpt>
      <trkpt lat="45.99082" lon="4.5023">
        <ele>321.1</ele>
        <time>2015-07-09T10:22:42Z</time>
      </trkpt>
      <trkpt lat="45.99072" lon="4.50235">
        <ele>320</ele>
        <time>2015-07-09T10:22:43Z</time>
      </trkpt>
      <trkpt lat="45.99062" lon="4.50239">
        <ele>319.4</ele>
        <time>2015-07-09T10:22:44Z</time>
      </trkpt>
      <trkpt lat="45.99052" lon="4.50244">
        <ele>318.7</ele>
        <time>2015-07-09T10:22:45Z</time>
      </trkpt>
      <trkpt lat="45.99044" lon="4.50248">
        <ele>318.1</ele>
        <time>2015-07-09T10:22:46Z</time>
      </trkpt>
      <trkpt lat="45.99035" lon="4.50251">
        <ele>318.3</ele>
        <time>2015-07-09T10:22:47Z</time>
      </trkpt>
      <trkpt lat="45.99027" lon="4.50255">
        <ele>318.5</ele>
        <time>2015-07-09T10:22:48Z</time>
      </trkpt>
      <trkpt lat="45.99014" lon="4.50261">
        <ele>318.6</ele>
        <time>2015-07-09T10:22:50Z</time>
      </trkpt>
      <trkpt lat="45.99006" lon="4.50262">
        <ele>318.8</ele>
        <time>2015-07-09T10:22:51Z</time>
      </trkpt>
      <trkpt lat="45.98995" lon="4.50259">
        <ele>319.6</ele>
        <time>2015-07-09T10:22:53Z</time>
      </trkpt>
      <trkpt lat="45.98986" lon="4.50251">
        <ele>320.3</ele>
        <time>2015-07-09T10:22:55Z</time>
      </trkpt>
      <trkpt lat="45.98979" lon="4.50244">
        <ele>320.9</ele>
        <time>2015-07-09T10:22:57Z</time>
      </trkpt>
      <trkpt lat="45.98972" lon="4.50238">
        <ele>321.5</ele>
        <time>2015-07-09T10:22:59Z</time>
      </trkpt>
      <trkpt lat="45.98964" lon="4.5023">
        <ele>322.2</ele>
        <time>2015-07-09T10:23:02Z</time>
      </trkpt>
      <trkpt lat="45.98955" lon="4.50231">
        <ele>322.8</ele>
        <time>2015-07-09T10:23:07Z</time>
      </trkpt>
      <trkpt lat="45.98946" lon="4.50237">
        <ele>323.5</ele>
        <time>2015-07-09T10:23:10Z</time>
      </trkpt>
      <trkpt lat="45.98935" lon="4.50234">
        <ele>324.1</ele>
        <time>2015-07-09T10:23:13Z</time>
      </trkpt>
      <trkpt lat="45.98925" lon="4.50228">
        <ele>324.7</ele>
        <time>2015-07-09T10:23:17Z</time>
      </trkpt>
      <trkpt lat="45.98917" lon="4.50225">
        <ele>325</ele>
        <time>2015-07-09T10:23:21Z</time>
      </trkpt>
      <trkpt lat="45.98908" lon="4.50225">
        <ele>325.3</ele>
        <time>2015-07-09T10:23:25Z</time>
      </trkpt>
      <trkpt lat="45.989" lon="4.50228">
        <ele>324.9</ele>
        <time>2015-07-09T10:23:28Z</time>
      </trkpt>
      <trkpt lat="45.98893" lon="4.50235">
        <ele>324.5</ele>
        <time>2015-07-09T10:23:31Z</time>
      </trkpt>
      <trkpt lat="45.98885" lon="4.50243">
        <ele>324.2</ele>
        <time>2015-07-09T10:23:34Z</time>
      </trkpt>
      <trkpt lat="45.98878" lon="4.50251">
        <ele>323.8</ele>
        <time>2015-07-09T10:23:37Z</time>
      </trkpt>
      <trkpt lat="45.98871" lon="4.5026">
        <ele>323.5</ele>
        <time>2015-07-09T10:23:41Z</time>
      </trkpt>
      <trkpt lat="45.98862" lon="4.50268">
        <ele>324.2</ele>
        <time>2015-07-09T10:23:45Z</time>
      </trkpt>
      <trkpt lat="45.98854" lon="4.50276">
        <ele>324.9</ele>
        <time>2015-07-09T10:23:48Z</time>
      </trkpt>
      <trkpt lat="45.98847" lon="4.50284">
        <ele>325.6</ele>
        <time>2015-07-09T10:23:51Z</time>
      </trkpt>
      <trkpt lat="45.98839" lon="4.50292">
        <ele>326.4</ele>
        <time>2015-07-09T10:23:54Z</time>
      </trkpt>
      <trkpt lat="45.98829" lon="4.50302">
        <ele>327.5</ele>
        <time>2015-07-09T10:23:57Z</time>
      </trkpt>
      <trkpt lat="45.98821" lon="4.50312">
        <ele>328.5</ele>
        <time>2015-07-09T10:24:00Z</time>
      </trkpt>
      <trkpt lat="45.98814" lon="4.50323">
        <ele>328</ele>
        <time>2015-07-09T10:24:03Z</time>
      </trkpt>
      <trkpt lat="45.98808" lon="4.50335">
        <ele>327.7</ele>
        <time>2015-07-09T10:24:06Z</time>
      </trkpt>
      <trkpt lat="45.98803" lon="4.50347">
        <ele>327.5</ele>
        <time>2015-07-09T10:24:09Z</time>
      </trkpt>
      <trkpt lat="45.98798" lon="4.50358">
        <ele>327.2</ele>
        <time>2015-07-09T10:24:12Z</time>
      </trkpt>
      <trkpt lat="45.98794" lon="4.50371">
        <ele>326.9</ele>
        <time>2015-07-09T10:24:15Z</time>
      </trkpt>
      <trkpt lat="45.98791" lon="4.50384">
        <ele>327.6</ele>
        <time>2015-07-09T10:24:18Z</time>
      </trkpt>
      <trkpt lat="45.98789" lon="4.50397">
        <ele>328.4</ele>
        <time>2015-07-09T10:24:21Z</time>
      </trkpt>
      <trkpt lat="45.98787" lon="4.5041">
        <ele>329.1</ele>
        <time>2015-07-09T10:24:24Z</time>
      </trkpt>
      <trkpt lat="45.98788" lon="4.50432">
        <ele>329.8</ele>
        <time>2015-07-09T10:24:29Z</time>
      </trkpt>
      <trkpt lat="45.9879" lon="4.50445">
        <ele>330.5</ele>
        <time>2015-07-09T10:24:32Z</time>
      </trkpt>
      <trkpt lat="45.98793" lon="4.50458">
        <ele>331.3</ele>
        <time>2015-07-09T10:24:35Z</time>
      </trkpt>
      <trkpt lat="45.98795" lon="4.50471">
        <ele>333.6</ele>
        <time>2015-07-09T10:24:38Z</time>
      </trkpt>
      <trkpt lat="45.98796" lon="4.50486">
        <ele>335.2</ele>
        <time>2015-07-09T10:24:41Z</time>
      </trkpt>
      <trkpt lat="45.98798" lon="4.50501">
        <ele>336.7</ele>
        <time>2015-07-09T10:24:44Z</time>
      </trkpt>
      <trkpt lat="45.988" lon="4.50516">
        <ele>338.3</ele>
        <time>2015-07-09T10:24:47Z</time>
      </trkpt>
      <trkpt lat="45.98804" lon="4.5053">
        <ele>339.8</ele>
        <time>2015-07-09T10:24:50Z</time>
      </trkpt>
      <trkpt lat="45.98811" lon="4.50543">
        <ele>339.3</ele>
        <time>2015-07-09T10:24:53Z</time>
      </trkpt>
      <trkpt lat="45.9882" lon="4.50554">
        <ele>338.7</ele>
        <time>2015-07-09T10:24:56Z</time>
      </trkpt>
      <trkpt lat="45.98829" lon="4.50563">
        <ele>338.2</ele>
        <time>2015-07-09T10:24:59Z</time>
      </trkpt>
      <trkpt lat="45.98838" lon="4.50572">
        <ele>339</ele>
        <time>2015-07-09T10:25:02Z</time>
      </trkpt>
      <trkpt lat="45.98848" lon="4.50582">
        <ele>339.8</ele>
        <time>2015-07-09T10:25:05Z</time>
      </trkpt>
      <trkpt lat="45.98856" lon="4.50589">
        <ele>340.6</ele>
        <time>2015-07-09T10:25:07Z</time>
      </trkpt>
      <trkpt lat="45.98865" lon="4.50595">
        <ele>341.3</ele>
        <time>2015-07-09T10:25:09Z</time>
      </trkpt>
      <trkpt lat="45.98877" lon="4.50599">
        <ele>341.5</ele>
        <time>2015-07-09T10:25:12Z</time>
      </trkpt>
      <trkpt lat="45.98888" lon="4.50605">
        <ele>341.8</ele>
        <time>2015-07-09T10:25:15Z</time>
      </trkpt>
      <trkpt lat="45.98893" lon="4.50617">
        <ele>342.1</ele>
        <time>2015-07-09T10:25:18Z</time>
      </trkpt>
      <trkpt lat="45.98889" lon="4.50628">
        <ele>342.4</ele>
        <time>2015-07-09T10:25:22Z</time>
      </trkpt>
      <trkpt lat="45.98881" lon="4.50634">
        <ele>342.6</ele>
        <time>2015-07-09T10:25:25Z</time>
      </trkpt>
      <trkpt lat="45.98874" lon="4.50644">
        <ele>342.9</ele>
        <time>2015-07-09T10:25:28Z</time>
      </trkpt>
      <trkpt lat="45.98866" lon="4.50654">
        <ele>343.2</ele>
        <time>2015-07-09T10:25:32Z</time>
      </trkpt>
      <trkpt lat="45.98857" lon="4.50661">
        <ele>342.1</ele>
        <time>2015-07-09T10:25:35Z</time>
      </trkpt>
      <trkpt lat="45.98846" lon="4.50667">
        <ele>341</ele>
        <time>2015-07-09T10:25:38Z</time>
      </trkpt>
      <trkpt lat="45.98837" lon="4.50672">
        <ele>339.9</ele>
        <time>2015-07-09T10:25:41Z</time>
      </trkpt>
      <trkpt lat="45.98829" lon="4.50679">
        <ele>338.6</ele>
        <time>2015-07-09T10:25:44Z</time>
      </trkpt>
      <trkpt lat="45.9882" lon="4.50686">
        <ele>338.7</ele>
        <time>2015-07-09T10:25:47Z</time>
      </trkpt>
      <trkpt lat="45.98813" lon="4.50693">
        <ele>338.8</ele>
        <time>2015-07-09T10:25:50Z</time>
      </trkpt>
      <trkpt lat="45.98804" lon="4.50699">
        <ele>338.9</ele>
        <time>2015-07-09T10:25:53Z</time>
      </trkpt>
      <trkpt lat="45.98795" lon="4.50706">
        <ele>339</ele>
        <time>2015-07-09T10:25:56Z</time>
      </trkpt>
      <trkpt lat="45.98784" lon="4.50712">
        <ele>339.1</ele>
        <time>2015-07-09T10:25:59Z</time>
      </trkpt>
      <trkpt lat="45.98776" lon="4.50714">
        <ele>339.2</ele>
        <time>2015-07-09T10:26:01Z</time>
      </trkpt>
      <trkpt lat="45.98767" lon="4.50717">
        <ele>339.3</ele>
        <time>2015-07-09T10:26:03Z</time>
      </trkpt>
      <trkpt lat="45.98758" lon="4.50721">
        <ele>339.4</ele>
        <time>2015-07-09T10:26:05Z</time>
      </trkpt>
      <trkpt lat="45.98747" lon="4.5073">
        <ele>339.5</ele>
        <time>2015-07-09T10:26:07Z</time>
      </trkpt>
      <trkpt lat="45.98738" lon="4.50741">
        <ele>339.3</ele>
        <time>2015-07-09T10:26:09Z</time>
      </trkpt>
      <trkpt lat="45.9873" lon="4.50754">
        <ele>339.5</ele>
        <time>2015-07-09T10:26:11Z</time>
      </trkpt>
      <trkpt lat="45.98724" lon="4.50766">
        <ele>339.2</ele>
        <time>2015-07-09T10:26:13Z</time>
      </trkpt>
      <trkpt lat="45.98719" lon="4.50779">
        <ele>338.9</ele>
        <time>2015-07-09T10:26:15Z</time>
      </trkpt>
      <trkpt lat="45.9871" lon="4.50786">
        <ele>338.6</ele>
        <time>2015-07-09T10:26:16Z</time>
      </trkpt>
      <trkpt lat="45.987" lon="4.50799">
        <ele>338.4</ele>
        <time>2015-07-09T10:26:18Z</time>
      </trkpt>
      <trkpt lat="45.98689" lon="4.5081">
        <ele>338.1</ele>
        <time>2015-07-09T10:26:20Z</time>
      </trkpt>
      <trkpt lat="45.98678" lon="4.5082">
        <ele>339</ele>
        <time>2015-07-09T10:26:22Z</time>
      </trkpt>
      <trkpt lat="45.98668" lon="4.50833">
        <ele>339.9</ele>
        <time>2015-07-09T10:26:24Z</time>
      </trkpt>
      <trkpt lat="45.9866" lon="4.50845">
        <ele>340.8</ele>
        <time>2015-07-09T10:26:26Z</time>
      </trkpt>
      <trkpt lat="45.98654" lon="4.50857">
        <ele>341.7</ele>
        <time>2015-07-09T10:26:28Z</time>
      </trkpt>
      <trkpt lat="45.98648" lon="4.5087">
        <ele>340.7</ele>
        <time>2015-07-09T10:26:30Z</time>
      </trkpt>
      <trkpt lat="45.98643" lon="4.5088">
        <ele>339.7</ele>
        <time>2015-07-09T10:26:32Z</time>
      </trkpt>
      <trkpt lat="45.98638" lon="4.50893">
        <ele>338.7</ele>
        <time>2015-07-09T10:26:34Z</time>
      </trkpt>
      <trkpt lat="45.98634" lon="4.50906">
        <ele>337.7</ele>
        <time>2015-07-09T10:26:36Z</time>
      </trkpt>
      <trkpt lat="45.98628" lon="4.50917">
        <ele>338.4</ele>
        <time>2015-07-09T10:26:38Z</time>
      </trkpt>
      <trkpt lat="45.98622" lon="4.50927">
        <ele>339</ele>
        <time>2015-07-09T10:26:40Z</time>
      </trkpt>
      <trkpt lat="45.98615" lon="4.50936">
        <ele>339.6</ele>
        <time>2015-07-09T10:26:42Z</time>
      </trkpt>
      <trkpt lat="45.98609" lon="4.50945">
        <ele>339.1</ele>
        <time>2015-07-09T10:26:44Z</time>
      </trkpt>
      <trkpt lat="45.98601" lon="4.50958">
        <ele>338.5</ele>
        <time>2015-07-09T10:26:47Z</time>
      </trkpt>
      <trkpt lat="45.98593" lon="4.5097">
        <ele>338</ele>
        <time>2015-07-09T10:26:50Z</time>
      </trkpt>
      <trkpt lat="45.98587" lon="4.50979">
        <ele>337.5</ele>
        <time>2015-07-09T10:26:52Z</time>
      </trkpt>
      <trkpt lat="45.98579" lon="4.50992">
        <ele>339.1</ele>
        <time>2015-07-09T10:26:55Z</time>
      </trkpt>
      <trkpt lat="45.98573" lon="4.51">
        <ele>339</ele>
        <time>2015-07-09T10:26:57Z</time>
      </trkpt>
      <trkpt lat="45.98567" lon="4.51008">
        <ele>341.2</ele>
        <time>2015-07-09T10:26:59Z</time>
      </trkpt>
      <trkpt lat="45.98561" lon="4.51017">
        <ele>343.4</ele>
        <time>2015-07-09T10:27:01Z</time>
      </trkpt>
      <trkpt lat="45.98554" lon="4.51024">
        <ele>343.9</ele>
        <time>2015-07-09T10:27:03Z</time>
      </trkpt>
      <trkpt lat="45.98547" lon="4.51032">
        <ele>344.5</ele>
        <time>2015-07-09T10:27:05Z</time>
      </trkpt>
      <trkpt lat="45.98541" lon="4.5104">
        <ele>345</ele>
        <time>2015-07-09T10:27:07Z</time>
      </trkpt>
      <trkpt lat="45.98534" lon="4.51047">
        <ele>345.5</ele>
        <time>2015-07-09T10:27:09Z</time>
      </trkpt>
      <trkpt lat="45.98525" lon="4.51056">
        <ele>346.1</ele>
        <time>2015-07-09T10:27:12Z</time>
      </trkpt>
      <trkpt lat="45.98516" lon="4.51064">
        <ele>346.6</ele>
        <time>2015-07-09T10:27:15Z</time>
      </trkpt>
      <trkpt lat="45.98508" lon="4.51068">
        <ele>347.2</ele>
        <time>2015-07-09T10:27:18Z</time>
      </trkpt>
      <trkpt lat="45.985" lon="4.51072">
        <ele>347.6</ele>
        <time>2015-07-09T10:27:21Z</time>
      </trkpt>
      <trkpt lat="45.98493" lon="4.51078">
        <ele>349.8</ele>
        <time>2015-07-09T10:27:24Z</time>
      </trkpt>
      <trkpt lat="45.98483" lon="4.51083">
        <ele>349.7</ele>
        <time>2015-07-09T10:27:28Z</time>
      </trkpt>
      <trkpt lat="45.98474" lon="4.51089">
        <ele>349.6</ele>
        <time>2015-07-09T10:27:32Z</time>
      </trkpt>
      <trkpt lat="45.98463" lon="4.51091">
        <ele>349.5</ele>
        <time>2015-07-09T10:27:36Z</time>
      </trkpt>
      <trkpt lat="45.98455" lon="4.51093">
        <ele>349.5</ele>
        <time>2015-07-09T10:27:39Z</time>
      </trkpt>
      <trkpt lat="45.98447" lon="4.51094">
        <ele>349.4</ele>
        <time>2015-07-09T10:27:42Z</time>
      </trkpt>
      <trkpt lat="45.98439" lon="4.51097">
        <ele>349.3</ele>
        <time>2015-07-09T10:27:45Z</time>
      </trkpt>
      <trkpt lat="45.98432" lon="4.51103">
        <ele>349.2</ele>
        <time>2015-07-09T10:27:49Z</time>
      </trkpt>
      <trkpt lat="45.98424" lon="4.51109">
        <ele>348.7</ele>
        <time>2015-07-09T10:27:53Z</time>
      </trkpt>
      <trkpt lat="45.98415" lon="4.51107">
        <ele>348.3</ele>
        <time>2015-07-09T10:27:56Z</time>
      </trkpt>
      <trkpt lat="45.98403" lon="4.51101">
        <ele>347.9</ele>
        <time>2015-07-09T10:27:59Z</time>
      </trkpt>
      <trkpt lat="45.98396" lon="4.51093">
        <ele>347.2</ele>
        <time>2015-07-09T10:28:01Z</time>
      </trkpt>
      <trkpt lat="45.98386" lon="4.51084">
        <ele>346.5</ele>
        <time>2015-07-09T10:28:02Z</time>
      </trkpt>
      <trkpt lat="45.9838" lon="4.51073">
        <ele>345.7</ele>
        <time>2015-07-09T10:28:03Z</time>
      </trkpt>
      <trkpt lat="45.98373" lon="4.51061">
        <ele>345</ele>
        <time>2015-07-09T10:28:05Z</time>
      </trkpt>
      <trkpt lat="45.98365" lon="4.51047">
        <ele>344.3</ele>
        <time>2015-07-09T10:28:07Z</time>
      </trkpt>
      <trkpt lat="45.98357" lon="4.51033">
        <ele>343.5</ele>
        <time>2015-07-09T10:28:09Z</time>
      </trkpt>
      <trkpt lat="45.98349" lon="4.51024">
        <ele>342.8</ele>
        <time>2015-07-09T10:28:11Z</time>
      </trkpt>
      <trkpt lat="45.98342" lon="4.51013">
        <ele>342.1</ele>
        <time>2015-07-09T10:28:13Z</time>
      </trkpt>
      <trkpt lat="45.98335" lon="4.51002">
        <ele>341.6</ele>
        <time>2015-07-09T10:28:15Z</time>
      </trkpt>
      <trkpt lat="45.98326" lon="4.50987">
        <ele>341.2</ele>
        <time>2015-07-09T10:28:17Z</time>
      </trkpt>
      <trkpt lat="45.98318" lon="4.50981">
        <ele>339</ele>
        <time>2015-07-09T10:28:18Z</time>
      </trkpt>
      <trkpt lat="45.98311" lon="4.50975">
        <ele>337.2</ele>
        <time>2015-07-09T10:28:19Z</time>
      </trkpt>
      <trkpt lat="45.98294" lon="4.50967">
        <ele>335.4</ele>
        <time>2015-07-09T10:28:21Z</time>
      </trkpt>
      <trkpt lat="45.98284" lon="4.50963">
        <ele>333.5</ele>
        <time>2015-07-09T10:28:22Z</time>
      </trkpt>
      <trkpt lat="45.98275" lon="4.50961">
        <ele>331.7</ele>
        <time>2015-07-09T10:28:23Z</time>
      </trkpt>
      <trkpt lat="45.98264" lon="4.50959">
        <ele>329.9</ele>
        <time>2015-07-09T10:28:24Z</time>
      </trkpt>
      <trkpt lat="45.98256" lon="4.50958">
        <ele>328.1</ele>
        <time>2015-07-09T10:28:25Z</time>
      </trkpt>
      <trkpt lat="45.98247" lon="4.50958">
        <ele>326.3</ele>
        <time>2015-07-09T10:28:26Z</time>
      </trkpt>
      <trkpt lat="45.98234" lon="4.50958">
        <ele>324.8</ele>
        <time>2015-07-09T10:28:28Z</time>
      </trkpt>
      <trkpt lat="45.98224" lon="4.50958">
        <ele>323.1</ele>
        <time>2015-07-09T10:28:30Z</time>
      </trkpt>
      <trkpt lat="45.98216" lon="4.50958">
        <ele>321</ele>
        <time>2015-07-09T10:28:33Z</time>
      </trkpt>
      <trkpt lat="45.98222" lon="4.5095">
        <ele>321</ele>
        <time>2015-07-09T10:28:40Z</time>
      </trkpt>
      <trkpt lat="45.98231" lon="4.50947">
        <ele>321</ele>
        <time>2015-07-09T10:28:44Z</time>
      </trkpt>
    </trkseg>
  </trk>
</gpx>